[[{"header":{"parameterUnit":"m.s-1","parameterCategory":1,"la1":30.6,"la2":29.2853,"lo1":-89.7004,"lo2":-87.6739,"dy":0.0162,"dx":0.0183,"nx":112,"ny":82,"refTime":"2023-07-10T12:00:00:Z","depth":0,"parameterNumber":2,"parameterNumberName":"U-component_of_WINDS"},"data":[0.0,0.0,0.0,0.0,0.0,0.0,0.0,0.0,0.0,0.0,0.0,0.0,0.0,0.0,0.0,0.0,0.0,0.0,0.0,0.0,0.0,0.0,0.0,0.0,0.0,0.0,0.0,0.0,0.0,0.0,0.0,0.0,0.0,0.0,0.0,0.0,0.0,0.0,0.0,0.0,0.0,0.0,0.0,0.0,0.0,0.0,0.0,0.0,0.0,0.0,0.0,0.0,0.0,0.0,0.0,0.0,0.0,0.0,0.0,0.0,0.0,0.0,0.0,0.0,0.0,0.0,0.0,0.0,0.0,0.0,0.0,0.0,0.0,0.0,0.0,0.0,0.0,0.0,0.0,0.0,0.0,0.0,0.0,0.0,0.0,0.0,0.0,0.0,0.0,0.0,0.0,-1.2522,-1.4286,-1.5146,-1.4717,-1.457,-1.3941,-1.2696,0.0,0.0,0.0,0.0,0.0,0.0,0.0,0.0,0.0,0.0,0.0,0.0,0.0,0.0,0.0,0.0,0.0,0.0,0.0,0.0,0.0,0.0,0.0,0.0,0.0,0.0,0.0,0.0,0.0,0.0,0.0,0.0,0.0,0.0,0.0,0.0,0.0,0.0,0.0,0.0,0.0,0.0,0.0,0.0,0.0,0.0,0.0,0.0,0.0,0.0,0.0,0.0,0.0,0.0,0.0,0.0,0.0,0.0,0.0,0.0,0.0,0.0,0.0,0.0,0.0,0.0,0.0,0.0,0.0,0.0,0.0,0.0,0.0,0.0,0.0,0.0,0.0,0.0,0.0,0.0,0.0,0.0,0.0,0.0,0.0,0.0,0.0,0.0,0.0,0.0,0.0,0.0,0.0,0.0,0.0,0.0,0.0,0.0,0.0,0.0,0.0,0.0,0.0,0.0,-1.1463,-1.3609,-1.4486,-1.4707,-1.4268,-1.3584,-1.2809,-1.2021,0.0,0.0,0.0,0.0,0.0,0.0,0.0,0.0,0.0,0.0,0.0,0.0,0.0,0.0,0.0,0.0,0.0,0.0,0.0,0.0,0.0,0.0,0.0,0.0,0.0,0.0,0.0,0.0,0.0,0.0,0.0,0.0,0.0,0.0,0.0,0.0,0.0,0.0,0.0,0.0,0.0,0.0,0.0,0.0,0.0,0.0,0.0,0.0,0.0,0.0,0.0,0.0,0.0,0.0,0.0,0.0,0.0,0.0,0.0,0.0,0.0,0.0,0.0,0.0,0.0,0.0,0.0,0.0,0.0,0.0,0.0,0.0,0.0,0.0,0.0,0.0,0.0,0.0,0.0,0.0,0.0,0.0,0.0,0.0,0.0,0.0,0.0,0.0,0.0,0.0,0.0,0.0,0.0,0.0,0.0,0.0,0.0,0.0,0.0,0.0,0.0,0.0,0.0,-1.1755,-1.2753,-1.3956,-1.4521,-1.4609,-1.4116,-1.3256,-1.2287,-1.1334,-1.114,0.0,0.0,0.0,0.0,0.0,0.0,0.0,0.0,0.0,0.0,0.0,0.0,0.0,0.0,0.0,0.0,0.0,0.0,0.0,0.0,0.0,0.0,0.0,0.0,0.0,0.0,0.0,0.0,0.0,0.0,0.0,0.0,0.0,0.0,0.0,0.0,0.0,0.0,0.0,0.0,0.0,0.0,0.0,0.0,0.0,0.0,0.0,0.0,0.0,0.0,0.0,0.0,0.0,0.0,0.0,0.0,0.0,0.0,0.0,0.0,0.0,0.0,0.0,0.0,0.0,0.0,0.0,0.0,0.0,0.0,0.0,0.0,0.0,0.0,0.0,0.0,0.0,0.0,0.0,0.0,0.0,0.0,0.0,0.0,0.0,0.0,0.0,0.0,0.0,0.0,0.0,0.0,0.0,0.0,0.0,0.0,0.0,0.0,0.0,0.0,0.0,0.0,-1.2507,-1.3227,-1.3742,-1.3976,-1.3978,-1.3603,-1.2709,-1.1711,-1.0626,-1.014,0.0,0.0,0.0,0.0,0.0,0.0,0.0,0.0,0.0,0.0,0.0,0.0,0.0,0.0,0.0,0.0,0.0,0.0,0.0,0.0,0.0,0.0,0.0,0.0,0.0,0.0,0.0,0.0,0.0,0.0,0.0,0.0,0.0,0.0,0.0,0.0,0.0,0.0,0.0,0.0,0.0,0.0,0.0,0.0,0.0,0.0,0.0,0.0,0.0,0.0,0.0,0.0,0.0,0.0,0.0,0.0,0.0,0.0,0.0,0.0,0.0,0.0,0.0,0.0,0.0,0.0,0.0,0.0,0.0,0.0,0.0,0.0,0.0,0.0,0.0,0.0,0.0,0.0,0.0,0.0,0.0,0.0,0.0,0.0,0.0,0.0,0.0,0.0,0.0,0.0,0.0,0.0,0.0,0.0,0.0,0.0,0.0,0.0,0.0,0.0,0.0,0.0,-1.1742,-1.2055,-1.2896,-1.2483,-1.2086,-1.2061,-1.1615,-1.0882,-0.9946,-1.0071,0.0,0.0,0.0,0.0,0.0,0.0,0.0,0.0,0.0,0.0,0.0,0.0,0.0,0.0,0.0,0.0,0.0,0.0,0.0,0.0,0.0,0.0,0.0,0.0,0.0,0.0,0.0,0.0,0.0,0.0,0.0,0.0,0.0,0.0,0.0,0.0,0.0,0.0,0.0,0.0,0.0,0.0,0.0,0.0,0.0,0.0,0.0,0.0,0.0,0.0,0.0,0.0,0.0,0.0,0.0,0.0,0.0,0.0,0.0,0.0,0.0,0.0,0.0,0.0,0.0,0.0,0.0,0.0,0.0,0.0,0.0,0.0,0.0,0.0,0.0,0.0,0.0,0.0,0.0,0.0,0.0,0.0,0.0,0.0,0.0,0.0,0.0,0.0,0.0,0.0,0.0,0.0,0.0,0.0,0.0,0.0,0.0,0.0,0.0,0.0,0.0,0.0,-1.1626,-1.1678,0.0,-1.178,-1.1672,-1.1672,-1.0832,-1.0179,-0.9806,0.0,0.0,0.0,0.0,0.0,0.0,0.0,0.0,0.0,0.0,0.0,0.0,0.0,0.0,0.0,0.0,0.0,0.0,0.0,0.0,0.0,0.0,0.0,0.0,0.0,0.0,0.0,0.0,0.0,0.0,0.0,0.0,0.0,0.0,0.0,0.0,0.0,0.0,0.0,0.0,0.0,0.0,0.0,0.0,0.0,0.0,0.0,0.0,0.0,0.0,0.0,0.0,0.0,0.0,0.0,0.0,0.0,0.0,0.0,0.0,0.0,0.0,0.0,0.0,0.0,0.0,0.0,0.0,0.0,0.0,0.0,0.0,0.0,0.0,0.0,0.0,0.0,0.0,0.0,0.0,0.0,0.0,0.0,0.0,0.0,0.0,0.0,0.0,0.0,0.0,0.0,0.0,0.0,0.0,0.0,0.0,0.0,0.0,0.0,0.0,0.0,0.0,-1.1399,-1.1139,-1.0971,0.0,-1.0885,-1.0778,-1.0778,-1.006,-0.9497,-0.9131,0.0,0.0,0.0,0.0,0.0,0.0,0.0,0.0,0.0,0.0,0.0,0.0,0.0,0.0,0.0,0.0,0.0,0.0,0.0,0.0,0.0,0.0,0.0,0.0,0.0,0.0,0.0,0.0,0.0,0.0,0.0,0.0,0.0,0.0,0.0,0.0,0.0,0.0,0.0,0.0,0.0,0.0,0.0,0.0,0.0,0.0,0.0,0.0,0.0,0.0,0.0,0.0,0.0,0.0,0.0,0.0,0.0,0.0,0.0,0.0,0.0,0.0,0.0,0.0,0.0,0.0,0.0,0.0,0.0,0.0,0.0,0.0,0.0,0.0,0.0,0.0,0.0,0.0,0.0,0.0,0.0,0.0,0.0,0.0,0.0,0.0,0.0,0.0,0.0,0.0,0.0,0.0,0.0,0.0,0.0,0.0,0.0,0.0,0.0,0.0,0.0,0.0,-1.0721,-1.0064,-0.9783,-1.0216,-0.9611,-0.9183,-0.9183,-0.921,-0.8774,0.0,0.0,0.0,0.0,0.0,0.0,0.0,0.0,0.0,0.0,0.0,0.0,0.0,0.0,0.0,0.0,0.0,0.0,0.0,0.0,0.0,0.0,0.0,0.0,0.0,0.0,0.0,0.0,0.0,0.0,0.0,0.0,0.0,0.0,0.0,0.0,0.0,0.0,0.0,0.0,0.0,0.0,0.0,0.0,0.0,0.0,0.0,0.0,0.0,0.0,0.0,0.0,0.0,0.0,0.0,0.0,0.0,0.0,0.0,0.0,0.0,0.0,0.0,0.0,0.0,0.0,0.0,0.0,0.0,0.0,0.0,0.0,0.0,0.0,0.0,0.0,0.0,0.0,0.0,0.0,0.0,0.0,0.0,0.0,0.0,0.0,0.0,0.0,0.0,0.0,0.0,0.0,0.0,0.0,0.0,0.0,0.0,0.0,0.0,0.0,0.0,0.0,0.0,-1.01,-0.9458,-0.9095,-0.9238,-0.9038,-0.8931,-0.8931,-0.8442,-0.8084,-0.7854,0.0,0.0,0.0,0.0,0.0,0.0,0.0,0.0,0.0,0.0,0.0,0.0,0.0,0.0,0.0,0.0,0.0,0.0,0.0,0.0,0.0,0.0,0.0,0.0,0.0,0.0,0.0,0.0,0.0,0.0,0.0,0.0,0.0,0.0,0.0,0.0,0.0,0.0,0.0,0.0,0.0,0.0,0.0,0.0,0.0,0.0,0.0,0.0,0.0,0.0,0.0,0.0,0.0,0.0,0.0,0.0,0.0,0.0,0.0,0.0,0.0,0.0,0.0,0.0,0.0,0.0,0.0,0.0,0.0,0.0,0.0,0.0,0.0,0.0,0.0,0.0,0.0,0.0,0.0,0.0,0.0,0.0,0.0,0.0,0.0,0.0,0.0,0.0,0.0,0.0,0.0,0.0,0.0,0.0,0.0,0.0,0.0,0.0,0.0,0.0,0.0,0.0,-0.9532,-0.913,-0.8804,-0.8804,-0.8804,-0.8699,-0.8374,-0.7937,-0.7507,-0.6981,0.0,0.0,0.0,0.0,0.0,0.0,0.0,0.0,0.0,0.0,0.0,0.0,0.0,0.0,0.0,0.0,0.0,0.0,0.0,0.0,0.0,0.0,0.0,0.0,0.0,0.0,0.0,0.0,0.0,0.0,0.0,0.0,0.0,0.0,0.0,0.0,0.0,0.0,0.0,0.0,0.0,0.0,0.0,0.0,0.0,0.0,0.0,0.0,0.0,0.0,0.0,0.0,0.0,0.0,0.0,0.0,0.0,0.0,0.0,0.0,0.0,0.0,0.0,0.0,0.0,0.0,0.0,0.0,0.0,0.0,0.0,0.0,0.0,0.0,0.0,0.0,0.0,0.0,0.0,0.0,0.0,0.0,0.0,0.0,0.0,0.0,0.0,0.0,0.0,0.0,0.0,0.0,0.0,0.0,0.0,0.0,0.0,0.0,0.0,0.0,0.0,0.0,-0.915,-0.8931,-0.8699,-0.8699,-0.8646,-0.8321,-0.767,-0.7557,-0.6912,-0.5622,0.0,0.0,0.0,0.0,0.0,0.0,0.0,0.0,0.0,0.0,0.0,0.0,0.0,0.0,0.0,0.0,0.0,0.0,0.0,0.0,0.0,0.0,0.0,0.0,0.0,0.0,0.0,0.0,0.0,0.0,0.0,0.0,0.0,0.0,0.0,0.0,0.0,0.0,0.0,0.0,0.0,0.0,0.0,0.0,0.0,0.0,0.0,0.0,0.0,0.0,0.0,0.0,0.0,0.0,0.0,0.0,0.0,0.0,0.0,0.0,-0.991,0.0,0.0,0.0,0.0,0.0,0.0,0.0,0.0,0.0,0.0,0.0,0.0,0.0,0.0,0.0,0.0,0.0,0.0,0.0,0.0,0.0,0.0,0.0,0.0,0.0,0.0,0.0,0.0,0.0,0.0,0.0,0.0,0.0,0.0,0.0,0.0,0.0,0.0,0.0,0.0,0.0,-0.9176,-0.8438,-0.7943,-0.7943,-0.7402,-0.702,-0.6858,-0.6308,-0.5881,-0.5758,-0.5079,0.0,0.0,0.0,0.0,0.0,0.0,0.0,0.0,0.0,0.0,0.0,0.0,0.0,0.0,0.0,0.0,0.0,0.0,0.0,0.0,0.0,0.0,0.0,0.0,0.0,0.0,0.0,0.0,0.0,0.0,0.0,0.0,0.0,0.0,0.0,0.0,0.0,0.0,0.0,0.0,0.0,0.0,0.0,0.0,0.0,0.0,0.0,0.0,0.0,0.0,0.0,0.0,0.0,0.0,0.0,0.0,0.0,0.0,0.0,0.0,-1.0301,0.0,0.0,0.0,0.0,0.0,0.0,0.0,0.0,0.0,0.0,0.0,0.0,0.0,0.0,0.0,0.0,0.0,0.0,0.0,0.0,0.0,0.0,0.0,0.0,0.0,0.0,0.0,0.0,0.0,0.0,0.0,0.0,0.0,0.0,0.0,0.0,0.0,0.0,0.0,0.0,-0.8269,-0.7621,-0.7182,-0.7182,-0.6804,-0.648,-0.6091,-0.5706,-0.5419,-0.5185,-0.4727,0.0,0.0,0.0,0.0,0.0,0.0,0.0,0.0,0.0,0.0,0.0,0.0,0.0,0.0,0.0,0.0,0.0,0.0,0.0,0.0,0.0,0.0,0.0,0.0,0.0,0.0,0.0,0.0,0.0,0.0,0.0,0.0,0.0,0.0,0.0,0.0,0.0,0.0,0.0,0.0,0.0,0.0,0.0,0.0,0.0,0.0,0.0,0.0,0.0,0.0,0.0,0.0,0.0,-1.4803,-1.4649,-1.2485,-1.33,-1.328,-1.2538,-1.1162,-1.0847,-1.1321,0.0,0.0,0.0,0.0,0.0,0.0,0.0,0.0,0.0,0.0,0.0,0.0,0.0,0.0,0.0,0.0,0.0,0.0,0.0,0.0,0.0,0.0,0.0,0.0,0.0,-0.5996,-0.6302,0.0,0.0,0.0,0.0,0.0,0.0,0.0,0.0,0.0,0.0,0.0,0.0,-0.7264,-0.6832,-0.648,-0.648,-0.637,-0.6023,-0.5382,-0.5324,-0.5109,-0.4519,-0.4519,-0.4529,0.0,0.0,0.0,0.0,0.0,0.0,0.0,0.0,0.0,0.0,0.0,0.0,0.0,0.0,0.0,0.0,0.0,0.0,0.0,0.0,0.0,0.0,0.0,0.0,0.0,0.0,0.0,0.0,0.0,0.0,0.0,0.0,-0.5423,-0.5804,0.0,0.0,0.0,0.0,0.0,0.0,0.0,0.0,0.0,0.0,0.0,0.0,0.0,-1.4753,-1.7198,-1.3843,-1.2672,-1.3868,-1.5197,-1.487,-1.3146,-1.475,-1.489,-1.3728,-1.1523,0.0,-1.1979,-0.996,0.0,0.0,0.0,0.0,0.0,0.0,0.0,0.0,0.0,0.0,0.0,0.0,0.0,0.0,0.0,0.0,0.0,0.0,0.0,0.0,0.0,0.0,-0.623,-0.6352,-0.6305,-0.6318,0.0,-0.6958,-0.7057,-0.6442,-0.6918,0.0,0.0,0.0,0.0,0.0,0.0,0.0,-0.7284,-0.6499,-0.5905,-0.5905,-0.5342,-0.4887,-0.4636,-0.4625,-0.457,-0.4519,-0.4519,-0.4577,-0.4657,-0.4545,0.0,0.0,0.0,0.0,0.0,0.0,0.0,0.0,0.0,0.0,0.0,0.0,0.0,0.0,0.0,0.0,0.0,0.0,0.0,0.0,0.0,0.0,0.0,0.0,0.0,0.0,0.0,0.0,0.0,-0.5329,-0.664,-0.6735,-0.7511,-0.8089,0.0,0.0,0.0,0.0,0.0,0.0,0.0,0.0,0.0,-1.2285,-1.3138,-1.4626,-1.6747,-1.5113,-1.4543,-1.507,-1.5585,-1.5424,-1.471,-1.5478,-1.5551,-1.501,-1.3975,-1.3814,-1.4155,-1.2472,-1.0453,-0.8297,0.0,0.0,0.0,0.0,-0.8078,-0.7936,-0.73,-0.8245,0.0,-1.0709,0.0,0.0,0.0,0.0,0.0,0.0,0.0,0.0,0.0,0.0,-0.6878,-0.6854,-0.6932,-0.7007,-0.6983,-0.7087,-0.6946,0.0,-0.655,-0.6648,-0.6463,0.0,0.0,0.0,0.0,-0.6072,-0.6072,-0.5623,-0.5288,-0.5288,-0.4995,-0.4792,-0.4724,-0.464,-0.4589,-0.4589,-0.4567,-0.4546,-0.4558,-0.4532,-0.4279,0.0,0.0,0.0,0.0,0.0,0.0,0.0,0.0,0.0,0.0,0.0,0.0,0.0,0.0,0.0,0.0,0.0,0.0,0.0,0.0,0.0,0.0,0.0,0.0,0.0,0.0,0.0,0.0,-0.6473,-0.7626,-0.7865,-0.896,-0.9722,0.0,0.0,0.0,0.0,0.0,0.0,-1.143,-1.157,-1.1991,-1.2739,-1.3908,-1.495,-1.5818,-1.5832,-1.5832,-1.5832,-1.5832,-1.5832,-1.5832,-1.5832,-1.5832,-1.5832,-1.5832,-1.5832,-1.5758,-1.489,-1.1998,-0.8054,-0.7973,-0.8038,-0.7933,-0.7044,-0.6756,-0.6858,-0.718,-0.8176,-0.9305,-0.8566,0.0,-0.8269,-0.7012,0.0,0.0,0.0,0.0,-0.682,-0.6861,-0.7149,-0.7421,-0.738,-0.7546,-0.7682,-0.7567,-0.7421,-0.7126,0.0,-0.6342,-0.6268,-0.6115,0.0,0.0,0.0,0.0,-0.525,-0.525,-0.5121,-0.5033,-0.5033,-0.4996,-0.4958,-0.4921,-0.4779,-0.4691,-0.4691,-0.4548,-0.4519,-0.4519,-0.4519,-0.4512,-0.4596,0.0,0.0,0.0,0.0,0.0,0.0,0.0,0.0,0.0,0.0,0.0,0.0,0.0,0.0,0.0,0.0,0.0,0.0,0.0,0.0,0.0,0.0,0.0,0.0,0.0,0.0,0.0,0.0,0.0,-0.8851,-0.9391,0.0,0.0,0.0,0.0,-1.0873,-1.1717,-1.2238,-1.2245,-1.2251,-1.2792,-1.3961,-1.513,-1.5772,-1.5832,-1.5832,-1.5832,-1.5832,-1.5832,-1.5832,-1.5832,-1.5832,-1.5832,-1.5832,-1.5832,-1.5832,-1.5825,-1.5765,-1.5571,-1.481,-0.9947,-0.8038,-0.8031,-0.7974,-0.7597,-0.7177,-0.7573,-0.757,-0.7604,-0.7708,-0.7657,-0.7502,-0.7339,-0.7207,0.0,0.0,-0.7004,-0.7149,-0.7299,-0.7461,-0.7655,-0.7929,-0.8007,-0.8014,-0.8007,-0.7885,-0.756,0.0,-0.6563,-0.6417,-0.6274,0.0,-0.5959,-0.5813,-0.5661,-0.5566,-0.5566,-0.5433,-0.5404,-0.5404,-0.5206,-0.5064,-0.4928,-0.4779,-0.4691,-0.4691,-0.4548,-0.4519,-0.4519,-0.4525,-0.4613,-0.4783,-0.4735,0.0,0.0,0.0,0.0,0.0,0.0,0.0,0.0,0.0,0.0,0.0,0.0,0.0,0.0,0.0,0.0,0.0,0.0,0.0,0.0,0.0,0.0,0.0,0.0,0.0,0.0,0.0,0.0,-0.9944,-1.1141,0.0,-1.2215,-1.2254,-1.2383,-1.266,-1.2837,-1.2886,-1.2886,-1.3247,-1.3988,-1.517,-1.5611,-1.5832,-1.5832,-1.5832,-1.5832,-1.5832,-1.5832,-1.5832,-1.5832,-1.5832,-1.5832,-1.5832,-1.5832,-1.5832,-1.5534,-1.2129,-1.0769,-1.0574,-0.8722,-0.8157,-0.8303,-0.8109,-0.7967,-0.7872,-0.7919,-0.7875,-0.7818,-0.7902,-0.7797,-0.76,-0.7424,-0.7333,-0.7299,-0.7346,-0.7533,-0.7753,-0.7909,-0.7991,-0.8058,-0.8163,-0.8113,-0.8038,-0.8038,-0.7997,-0.7879,-0.7614,-0.7285,-0.7034,-0.6983,-0.6692,-0.6444,-0.639,-0.6176,-0.5986,-0.5884,-0.5827,-0.5752,-0.5654,-0.5515,-0.5406,-0.5355,-0.5118,-0.4972,-0.4972,-0.4836,-0.4755,-0.4755,-0.4755,-0.4809,-0.486,-0.4864,-0.4918,0.0,0.0,0.0,0.0,0.0,0.0,0.0,0.0,0.0,0.0,0.0,0.0,0.0,0.0,0.0,0.0,0.0,0.0,0.0,0.0,0.0,0.0,0.0,0.0,0.0,0.0,-1.0487,-1.1341,-1.2707,-1.3581,-1.3774,-1.3707,-1.3734,-1.3921,-1.4035,-1.4008,-1.3814,-1.4355,-1.503,-1.5805,-1.5832,-1.5832,-1.5832,-1.5832,-1.5832,-1.5832,-1.5832,-1.5832,-1.5832,-1.5832,-1.5832,-1.573,-1.3974,-1.3199,-1.2904,-0.9406,-0.816,-0.8343,-0.8343,-0.8381,-0.8418,-0.8289,-0.8282,-0.8333,-0.8265,-0.8153,-0.8062,-0.8197,-0.8106,-0.7899,-0.7665,-0.7634,-0.7695,-0.7797,-0.7967,-0.815,-0.8303,-0.834,-0.834,-0.834,-0.8262,-0.8187,-0.8187,-0.8187,-0.8174,-0.8126,-0.7834,-0.758,-0.7529,-0.7234,-0.6987,-0.6936,-0.6675,-0.6447,-0.6346,-0.62,-0.6067,-0.5966,-0.5779,-0.564,-0.5593,-0.5403,-0.524,-0.5138,-0.5043,-0.4969,-0.4921,-0.4965,-0.5013,-0.5067,-0.5067,-0.5165,-0.5428,0.0,0.0,0.0,0.0,0.0,0.0,0.0,0.0,0.0,0.0,0.0,0.0,0.0,0.0,0.0,0.0,0.0,0.0,0.0,0.0,0.0,0.0,0.0,-0.9473,-1.0701,-1.1948,-1.3134,-1.3768,-1.4135,-1.4155,-1.4409,-1.4576,-1.4589,-1.5378,-1.5611,-1.5037,-1.5531,-1.5832,-1.5832,-1.5832,-1.5832,-1.5832,-1.5832,-1.5832,-1.5832,-1.5832,-1.5832,-1.5832,-1.5832,-1.5832,-1.5534,-1.0284,-0.8052,-0.8065,-0.8045,-0.8384,-0.891,-0.891,-0.8679,-0.8367,-0.8554,-0.856,-0.8489,-0.8587,-0.8367,-0.8106,-0.8503,-0.8496,-0.8296,-0.8109,-0.8153,-0.8272,-0.8275,-0.8282,-0.8316,-0.8459,-0.8492,-0.8489,-0.8496,-0.8489,-0.8482,-0.8482,-0.8482,-0.8438,-0.8299,-0.815,-0.7997,-0.7845,-0.7699,-0.7556,-0.7407,-0.7132,0.0,-0.6936,-0.6552,-0.6281,-0.6274,-0.6003,-0.5762,-0.5616,-0.5599,-0.5464,-0.5155,-0.5138,-0.5077,-0.4938,-0.5064,-0.5209,-0.5432,-0.5439,-0.5442,-0.5442,0.0,0.0,0.0,0.0,0.0,0.0,0.0,0.0,0.0,0.0,0.0,0.0,0.0,0.0,0.0,0.0,0.0,0.0,0.0,0.0,0.0,0.0,-1.0899,-1.1423,-1.242,-1.3336,-1.401,-1.4676,-1.5204,-1.5631,-1.5745,-1.5879,-1.6092,-1.6333,-1.6333,-1.6032,-1.5899,-1.5832,-1.5832,-1.5832,-1.5832,-1.5832,-1.5832,-1.5832,-1.5832,-1.5832,-1.5832,-1.5832,-1.5832,-1.5832,-1.5534,-1.0284,-0.8289,-0.8659,-0.8218,-0.8136,-0.8286,-0.8286,-0.835,-0.8425,-0.8262,-0.8279,-0.8364,-0.8245,-0.813,-0.8082,-0.8336,-0.8286,-0.8153,-0.8313,-0.8319,-0.8292,-0.8394,-0.8506,-0.8625,-0.8774,-0.873,-0.8676,-0.8784,-0.8645,-0.8482,-0.8482,-0.8482,-0.8438,-0.8299,-0.8238,-0.816,-0.8004,-0.7851,-0.774,-0.7695,-0.7441,0.0,-0.7095,-0.6885,-0.6702,-0.659,-0.6403,-0.6183,-0.5928,-0.5806,-0.5616,-0.5318,-0.5298,-0.5281,-0.524,-0.5277,-0.5369,-0.5525,-0.563,-0.5681,0.0,0.0,0.0,0.0,0.0,0.0,0.0,0.0,0.0,0.0,0.0,0.0,0.0,0.0,0.0,0.0,0.0,0.0,0.0,0.0,0.0,0.0,-1.0478,-1.2022,-1.3424,-1.4048,-1.4549,-1.5017,-1.5585,-1.6079,-1.642,-1.6453,-1.6526,-1.6693,-1.682,-1.682,-1.6667,-1.6286,-1.5999,-1.5832,-1.5832,-1.5832,-1.5832,-1.5832,-1.5832,-1.5832,-1.5832,-1.5832,-1.5832,-1.5832,-1.5832,0.0,-1.0284,-0.8238,-0.8533,-0.8184,-0.8038,0.0,0.0,0.0,0.0,0.0,-0.8272,-0.833,-0.8252,-0.8143,-0.8072,-0.8275,-0.8316,-0.8316,-0.8442,-0.8469,-0.8472,-0.8554,-0.8642,-0.8747,-0.8899,-0.8872,-0.8828,-0.8916,-0.8804,-0.8672,-0.8672,-0.8621,-0.8533,-0.8387,-0.8313,0.0,-0.8065,-0.7967,-0.7906,-0.7906,-0.7706,-0.7502,-0.7353,-0.7146,-0.6959,-0.681,-0.6603,-0.638,-0.6146,-0.5986,0.0,0.0,0.0,-0.5484,-0.5542,-0.5545,0.0,0.0,0.0,-0.5864,-0.58,0.0,0.0,0.0,-0.6154,-0.627,0.0,0.0,0.0,0.0,0.0,0.0,0.0,0.0,0.0,0.0,0.0,0.0,0.0,0.0,0.0,0.0,-1.1031,-1.2835,-1.5219,-1.5625,-1.5712,-1.5905,-1.6386,-1.672,-1.6754,-1.676,-1.6767,-1.68,-1.7048,-1.7141,-1.7021,0.0,0.0,0.0,0.0,-1.5939,-1.5959,-1.5905,-1.5879,-1.5879,-1.5845,-1.5832,-1.5832,-1.5832,-1.5439,-1.4657,-0.9989,-0.8038,-0.8038,-0.8038,-0.8038,-0.8038,-0.8038,-0.8038,-0.8072,-0.8336,-0.8377,-0.8319,-0.8401,0.0,0.0,-0.8248,-0.8472,-0.8655,-0.8564,-0.8615,-0.8713,-0.873,-0.8747,-0.8791,-0.8927,-0.8964,-0.8964,-0.8964,-0.895,-0.894,-0.894,-0.8818,-0.8669,-0.8533,-0.8381,-0.8225,-0.8089,-0.8052,-0.8038,-0.8038,-0.7909,-0.776,-0.7617,-0.7346,-0.7112,-0.6966,0.0,0.0,-0.6298,-0.6159,-0.5945,-0.5633,-0.5613,-0.5671,-0.5796,-0.58,-0.5874,-0.6027,-0.6047,-0.5996,-0.5878,-0.5895,-0.5905,-0.5908,-0.6132,-0.6244,0.0,0.0,0.0,0.0,0.0,0.0,0.0,0.0,0.0,0.0,0.0,0.0,0.0,0.0,0.0,-1.1086,-1.3237,-1.5117,-1.666,-1.7014,-1.7007,-1.6587,-1.6633,-1.68,-1.7041,-1.7061,-1.7161,-1.7395,-1.7468,-1.7388,-1.7134,-1.7048,-1.6787,-1.6313,-1.6453,-1.6613,-1.6774,-1.6386,-1.6186,-1.6186,0.0,0.0,-1.5832,-1.5832,-1.3488,-0.9406,-0.8428,-0.8038,-0.8038,-0.8038,-0.8038,-0.8038,-0.8038,-0.8038,-0.8045,-0.8102,-0.8113,-0.8099,-0.8119,-0.8085,-0.8045,-0.8085,-0.8452,-0.8876,-0.8855,-0.8784,0.0,-0.8859,-0.8977,-0.9076,-0.9103,-0.9113,-0.9113,-0.9113,-0.9022,-0.894,-0.894,-0.8818,-0.8703,-0.8672,-0.8452,-0.8262,-0.8231,-0.8123,-0.8038,-0.8038,-0.7909,-0.776,-0.7617,-0.7441,-0.7268,-0.7115,-0.7048,-0.6854,-0.6464,-0.6403,-0.6207,-0.5786,-0.5762,-0.5772,-0.58,-0.58,-0.5874,-0.6027,-0.6152,-0.6257,-0.6342,-0.6468,-0.6525,-0.6519,-0.6217,-0.6142,0.0,0.0,0.0,0.0,0.0,0.0,0.0,0.0,0.0,0.0,0.0,-0.6257,0.0,0.0,-1.0527,-1.2696,-1.4437,-1.5978,-1.7178,-1.7622,-1.7649,-1.7201,-1.7281,-1.7375,-1.7368,-1.7368,-1.7428,-1.7569,-1.7722,-1.7682,-1.7382,-1.7515,-1.7348,-1.68,-1.6874,-1.6907,-1.6854,-1.6613,-1.6486,-1.6486,-1.6239,-1.6019,-1.5832,-1.5832,-1.3073,-0.8489,-0.8489,-0.8319,-0.8038,-0.8038,-0.8038,-0.8038,-0.8038,-0.8038,-0.8038,-0.8038,-0.8038,-0.8038,-0.8038,-0.8038,-0.8038,-0.8038,-0.8343,-0.8737,-0.8893,-0.8954,-0.8991,-0.9069,-0.912,-0.9154,-0.9154,-0.91,-0.9045,-0.9045,-0.8991,-0.894,-0.894,-0.8818,-0.871,-0.871,-0.8472,-0.8272,-0.8272,-0.8143,-0.8038,-0.8038,-0.7974,-0.7872,-0.7726,-0.7638,-0.7506,-0.7282,-0.7187,-0.7021,-0.6725,-0.6495,-0.6203,-0.5827,-0.58,-0.5837,-0.5911,-0.5915,-0.602,-0.6247,-0.6329,-0.6437,-0.6586,-0.6664,-0.6702,-0.6695,-0.6468,-0.6407,0.0,0.0,0.0,0.0,0.0,0.0,0.0,0.0,-0.4893,-0.6751,-0.7077,-0.7522,-0.9104,-1.0168,-1.1522,-1.4019,-1.533,-1.6355,-1.7543,-1.7889,-1.7929,-1.7615,-1.7802,-1.7856,-1.7609,-1.7582,-1.7582,-1.7582,-1.7816,-1.7869,-1.7682,-1.7909,-1.7849,-1.7422,-1.7408,-1.7275,-1.6994,-1.6914,-1.6914,-1.6987,-1.664,-1.6006,-1.5107,-1.5586,-1.3233,-0.894,-0.894,-0.8662,-0.8214,-0.8214,-0.8147,-0.8038,-0.8038,-0.8038,-0.8038,-0.8038,-0.8038,-0.8038,-0.8038,-0.8038,-0.8058,-0.8174,-0.8374,-0.8618,-0.8862,-0.9079,-0.9242,-0.9262,-0.9245,-0.9208,-0.913,-0.9069,-0.9008,-0.8954,-0.894,-0.894,-0.894,-0.8818,-0.872,-0.875,-0.8516,-0.8323,-0.835,-0.8204,-0.8075,-0.8045,-0.8038,-0.7984,-0.7831,-0.7811,-0.7699,-0.7404,-0.7258,-0.7115,-0.6943,-0.6569,-0.624,-0.5993,-0.5949,-0.5986,-0.6112,-0.6091,-0.62,-0.6468,-0.6502,-0.6593,-0.6746,-0.6773,-0.6787,-0.6787,-0.6787,-0.677,-0.5013,-0.3909,-0.2678,-0.2754,-0.2996,-0.3261,0.0,0.0,-0.7087,-0.7343,-0.8532,-0.9609,-0.9892,-1.2154,-1.4214,-1.4944,-1.6169,-1.7277,-1.7916,-1.8023,-1.7929,-1.7615,-1.7615,-1.7622,-1.7589,-1.7582,-1.7582,-1.7582,-1.7615,-1.7742,-1.7983,-1.8029,-1.8136,-1.8337,-1.8343,-1.8237,-1.8036,-1.7669,-1.7669,-1.8023,-1.7108,-1.5318,-1.2822,-1.488,-1.3233,-0.894,-0.894,-0.8899,-0.8838,-0.8838,-0.8523,-0.8038,-0.8038,-0.8038,-0.8038,-0.8038,-0.8038,-0.8038,-0.8038,-0.8038,-0.8126,-0.8662,-0.8862,-0.8896,-0.8927,-0.9079,-0.9256,-0.934,-0.9422,-0.9398,-0.9052,-0.9147,-0.9266,-0.9001,-0.894,-0.894,-0.894,-0.8818,-0.875,-0.8886,-0.8665,-0.8503,-0.8638,-0.8428,-0.8197,-0.8062,-0.8038,-0.7984,-0.7831,-0.7811,-0.7699,-0.7404,-0.7356,-0.7234,-0.6953,-0.6759,-0.6637,-0.6603,-0.6471,-0.6403,-0.6424,-0.6302,-0.6308,-0.6468,-0.6607,-0.6749,-0.6905,-0.7031,-0.7092,-0.7092,-0.7092,-0.7024,-0.5413,-0.4882,0.0,0.0,-0.5455,-0.5746,-0.5996,-0.6997,-0.8105,-0.9368,-0.9953,-1.0753,-1.2459,-1.384,-1.5022,0.0,-1.697,-1.7488,-1.7742,-1.7776,-1.7602,-1.7128,-1.7074,-1.7141,-1.7315,-1.7328,-1.7402,-1.7569,-1.7749,-1.7909,-1.8036,-1.837,-1.8537,-1.849,-1.8597,-1.8571,-1.837,-1.8196,-1.8143,-1.819,-1.7528,-1.6581,-1.5303,-1.2898,-1.0707,-0.894,-0.894,-0.894,-0.894,-0.894,-0.8791,-0.8564,-0.8564,-0.8564,-0.852,-0.8167,-0.8038,-0.8038,-0.8038,-0.8269,-0.8604,-0.8859,-0.894,-0.9001,-0.9347,-0.951,-0.9585,-0.9625,-0.9666,-0.9659,-0.9493,-0.9418,-0.9364,-0.9293,-0.9103,-0.896,-0.9045,-0.8947,-0.8862,-0.8927,-0.8764,-0.8635,-0.8699,-0.8465,-0.8248,-0.8184,-0.8096,-0.8018,-0.795,-0.7943,-0.7862,-0.7648,-0.7553,-0.7417,-0.7204,-0.7044,-0.6922,-0.6841,-0.6692,-0.6607,-0.6607,-0.6549,-0.6586,-0.6736,-0.68,-0.6905,-0.7051,-0.7112,-0.7139,-0.7139,-0.7139,-0.7109,-0.589,0.0,0.0,-0.6598,-0.7174,-0.7765,-0.8066,-0.8675,-0.9686,-1.1129,-1.1586,-1.2278,-1.432,-1.5059,-1.5739,-1.6886,-1.7268,-1.7435,-1.7355,-1.7341,-1.7154,-1.6647,-1.6513,-1.658,-1.6881,-1.6981,-1.7148,-1.7442,-1.7669,-1.7869,-1.8036,-1.8531,-1.8744,-1.8611,-1.8824,-1.8878,-1.8738,-1.8731,-1.7741,-1.5885,-1.5632,-1.6399,-1.7853,-1.1854,-0.9181,-0.9181,-0.9181,-0.9181,-0.9171,-0.9005,-0.894,-0.894,-0.894,-0.894,-0.8886,-0.8448,-0.818,-0.8038,-0.8038,-0.8435,-0.894,-0.894,-0.894,-0.9049,-0.9642,-0.9822,-0.9822,-0.9822,-0.9822,-0.9822,-0.9822,-0.9663,-0.952,-0.9588,-0.9306,-0.9045,-0.9133,-0.9042,-0.894,-0.894,-0.8849,-0.8774,-0.8774,-0.8526,-0.833,-0.833,-0.8163,-0.8038,-0.8038,-0.8004,-0.7933,-0.7824,-0.7685,-0.7553,-0.7444,-0.7292,-0.716,-0.7058,-0.6868,-0.6763,-0.6763,-0.6722,-0.6773,-0.6926,-0.6929,-0.7,-0.7139,-0.7139,-0.7139,-0.7139,-0.7139,-0.7139,0.0,0.0,-0.7139,-0.6623,-0.7792,-0.9134,-0.9413,-1.0894,-1.2243,-1.2149,-1.3625,-1.4838,-1.4599,-1.5683,-1.6707,-1.6714,-1.6967,-1.7061,-1.6774,-1.6734,-1.662,-1.6319,-1.6032,-1.5972,0.0,-1.6553,-1.684,-1.7141,-1.7174,-1.7435,-1.8016,-1.8337,-1.8631,-1.8905,-1.9199,-1.9345,-1.9339,-1.9339,-1.6234,-1.0041,-1.0034,-1.3361,-1.9074,-1.2649,-0.9795,-0.9795,-0.9795,-0.9795,-0.9751,-0.9174,-0.894,-0.894,-0.894,-0.894,-0.8937,-0.8916,-0.8543,-0.8038,-0.8038,-0.8435,-0.894,-0.894,-0.894,-0.9049,-0.9642,-0.9822,-0.9822,-0.9822,-0.9822,-0.9822,-0.9822,-0.9815,-0.9808,-0.9812,-0.9513,-0.9215,-0.9164,-0.9042,-0.894,-0.894,-0.8933,-0.893,-0.893,-0.8679,-0.8476,-0.8476,-0.8228,-0.8038,-0.8038,-0.7909,-0.7818,-0.7811,-0.7685,-0.7597,-0.7594,-0.7451,-0.7363,-0.736,-0.7082,-0.6922,-0.6922,-0.678,-0.6773,-0.6926,-0.6929,-0.7,-0.7139,-0.7139,-0.7139,-0.7139,-0.7139,-0.7139,-0.8462,0.0,-0.9751,-0.9918,-1.0567,-1.1194,-1.1385,-1.2024,-1.2749,-1.3496,-1.3733,-1.4039,-1.4741,-1.5265,-1.5551,-1.5551,-1.6279,-1.6754,-1.646,-1.6754,-1.6673,-1.5792,-1.5945,0.0,0.0,0.0,0.0,-1.6834,-1.7041,-1.7321,-1.7716,-1.8217,-1.8624,-1.8911,-1.9212,-1.9366,-1.9366,-1.9366,-1.7214,-1.2933,-1.0778,-1.0895,-1.2924,-1.0778,-0.9822,-0.9822,-0.9822,-0.9822,-0.9774,-0.9181,-0.894,-0.894,-0.894,-0.894,-0.894,-0.894,-0.8811,-0.8635,-0.8635,-0.8771,-0.894,-0.894,-0.9205,-0.9561,-0.9761,-0.9822,-0.9822,-0.9822,-0.9822,-0.9822,-0.9822,-0.9822,-0.9822,-0.9822,-0.9618,-0.9432,-0.9452,-0.9259,-0.9083,-0.9083,-0.9005,-0.894,-0.894,-0.8767,-0.8567,-0.837,-0.817,-0.8038,-0.8038,-0.7994,-0.7963,-0.7963,-0.7919,-0.7892,-0.7892,-0.775,-0.7624,-0.7529,-0.7333,-0.7177,-0.7075,-0.7017,-0.7017,-0.7068,-0.7068,-0.7092,-0.7139,-0.7139,-0.7139,-0.7139,-0.7139,-0.7193,-1.0486,-1.1067,-1.188,-1.1994,-1.2587,-1.3084,-1.3055,-1.3556,-1.4165,-1.4327,-1.4366,-1.4372,-1.4688,-1.475,-1.4785,-1.4981,-1.5474,-1.5932,-1.5952,-1.6286,-1.6359,-1.5919,-1.6012,0.0,0.0,0.0,0.0,-1.6547,-1.6921,-1.7275,-1.7569,-1.8163,-1.8624,-1.8911,-1.9212,-1.9366,-1.9366,-1.9366,-1.7214,-1.2813,-1.0778,-0.9822,-0.9822,-0.9822,-0.9822,-0.9808,-0.9598,-0.9507,-0.9476,-0.9096,-0.894,-0.894,-0.894,-0.894,-0.894,-0.894,-0.894,-0.894,-0.894,-0.894,-0.894,-0.894,-0.9195,-0.9544,-0.9758,-0.9822,-0.9822,-0.9822,-0.9822,-0.9822,-0.9822,-0.9822,-0.9822,-0.9822,-0.9683,-0.9564,-0.9602,-0.9367,-0.9154,-0.9154,-0.9035,-0.894,-0.894,-0.8767,-0.8547,-0.8306,-0.814,-0.8038,-0.8038,-0.8038,-0.8038,-0.8038,-0.8038,-0.8038,-0.8038,-0.7899,-0.775,-0.7607,-0.7455,-0.7302,-0.7146,-0.7139,-0.7166,-0.7221,-0.7221,-0.7221,-0.7224,-0.7278,-0.7275,-0.7224,-0.7278,-0.7356,-1.2475,-1.3075,-1.3512,-1.3007,-1.3886,-1.4803,-1.4529,-1.5642,-1.631,-1.498,-1.543,-1.5711,0.0,0.0,-1.4487,-1.4823,-1.4635,-1.4763,-1.5357,-1.5478,-1.5805,0.0,0.0,0.0,0.0,0.0,0.0,-1.6339,0.0,-1.7295,-1.7589,-1.8183,-1.8637,-1.8918,-1.9212,-1.9366,-1.9366,-1.9366,-1.6374,-1.0301,-1.0301,-1.0058,-0.9822,-0.9822,-0.9822,-0.9788,-0.9228,-0.8967,-0.894,-0.894,-0.894,-0.894,-0.894,-0.894,-0.894,-0.894,-0.894,-0.894,-0.894,-0.894,-0.894,-0.894,-0.896,-0.9089,-0.9652,-0.9822,-0.9822,-0.9822,-0.9822,-0.9822,-0.9822,-0.9822,-0.9822,-0.9822,-0.972,-0.9618,-0.9618,-0.9381,-0.9164,-0.9164,-0.9042,-0.894,-0.8947,-0.8696,-0.8445,-0.8303,-0.815,-0.8048,-0.8041,-0.8038,-0.8038,-0.8038,-0.8038,-0.8038,-0.8038,-0.7906,-0.7756,-0.7607,-0.7461,-0.7316,-0.7156,-0.7143,-0.7217,-0.738,-0.7373,-0.7373,-0.7383,-0.7529,-0.7526,-0.7387,-0.7533,-0.7604,-1.4858,-1.568,-1.6529,-1.6361,-1.6504,-1.6737,-1.7315,-1.689,-1.6382,-1.6768,-1.5724,-1.4676,0.0,0.0,0.0,-1.445,-1.4787,0.0,-1.5952,-1.6613,0.0,0.0,0.0,-1.7021,-1.6734,-1.7308,0.0,0.0,-1.7261,-1.7609,-1.7909,-1.849,-1.8844,-1.8918,-1.9212,-1.9366,-1.9366,-1.9366,-1.8525,-1.6973,-1.6973,-1.447,-0.9822,-0.9822,-0.9822,-0.9812,-0.9663,-0.9347,-0.894,-0.894,-0.894,-0.894,-0.894,-0.894,-0.894,-0.894,-0.894,-0.894,-0.894,-0.894,-0.894,-0.894,-0.9235,-0.9622,-0.9774,-0.9822,-0.9822,-0.9822,-0.9822,-0.9822,-0.9822,-0.9822,-0.9822,-0.9822,-0.9791,-0.9768,-0.9768,-0.9534,-0.9323,-0.9323,-0.9113,-0.8974,-0.9079,-0.8849,-0.8601,-0.8452,-0.8303,-0.817,-0.8055,-0.8038,-0.8038,-0.8038,-0.8038,-0.8038,-0.8038,-0.8004,-0.7872,-0.7614,-0.7563,-0.7472,-0.7319,-0.72,-0.7268,-0.7536,-0.7431,-0.7428,-0.7543,-0.758,-0.758,-0.7543,-0.7584,-0.7655,-1.6613,-1.7382,-1.7949,-1.7816,-1.7562,-1.7326,-1.7175,-1.6692,-1.6051,-1.5513,-1.4952,0.0,0.0,0.0,0.0,0.0,0.0,0.0,-1.5745,-1.6393,-1.6947,0.0,-1.7488,0.0,-1.7495,-1.7943,-1.815,0.0,-1.7963,-1.8056,-1.823,-1.8677,-1.8985,-1.9112,-1.9279,-1.9366,-1.9366,-1.9366,-1.9366,-1.9366,-1.9366,-1.7566,-1.3994,-1.3994,-1.2444,-0.9819,0.0,-1.0925,-0.931,-1.0137,-1.0389,-1.0381,-0.93,-0.894,-0.894,-0.894,-0.894,-0.894,-0.894,-0.894,-0.894,-0.894,-0.934,-0.9822,-0.9822,-0.9822,-0.9822,-0.9822,-0.9822,-0.9822,-0.9822,-0.9822,-0.9822,-0.9822,-0.9822,-0.9822,-0.9822,-0.9642,-0.9462,-0.9395,-0.9191,-0.9059,-0.914,-0.8906,-0.8679,-0.8594,-0.8459,-0.8309,-0.816,-0.8082,-0.8038,-0.8038,-0.8038,-0.8038,-0.8038,-0.8038,-0.794,-0.7706,-0.7692,-0.7628,-0.7478,-0.7387,-0.7451,-0.7689,-0.7607,-0.7607,-0.7692,-0.776,-0.7756,-0.7695,-0.776,-0.7834,-1.7862,-1.8384,-1.8524,-1.8401,-1.8016,-1.7456,-1.6181,-1.6027,-1.5539,-1.3376,0.0,0.0,-1.3865,0.0,-1.3752,-1.499,0.0,-1.5369,-1.5633,-1.5981,-1.6779,-1.8009,-1.7929,-1.7949,-1.8444,-1.8557,-1.8698,-1.8911,-1.8724,-1.8611,-1.8611,-1.8844,-1.9098,-1.9359,-1.9366,-1.9366,-1.9366,-1.9366,-1.9366,-1.9366,-1.9366,-1.9366,-1.9366,-1.9366,-1.6374,-1.1257,0.0,0.0,-1.1106,-1.209,-1.2551,-1.237,-1.0385,-0.9349,-0.9045,-0.8967,-0.894,-0.894,-0.894,-0.894,-0.894,-0.894,-0.9286,-0.9703,-0.9703,-0.9758,-0.9822,-0.9822,-0.9822,-0.9822,-0.9822,-0.9822,-0.9822,-0.9822,-0.9822,-0.9822,-0.9822,-0.971,-0.9571,-0.9439,-0.9289,-0.9191,-0.9211,-0.8981,-0.8788,-0.8747,-0.8628,-0.8482,-0.8319,-0.8167,-0.8062,-0.8041,-0.8038,-0.8038,-0.8038,-0.8038,-0.7974,-0.7821,-0.7811,-0.7756,-0.7634,-0.7611,-0.7675,-0.7838,-0.7821,-0.7821,-0.7841,-0.7974,-0.797,-0.7845,-0.7977,-0.8038,-1.8577,-1.8991,-1.9421,-1.9931,-1.9364,-1.8581,-1.8581,-1.7357,0.0,0.0,0.0,-1.4332,-1.4532,-1.4811,0.0,-1.6828,0.0,0.0,0.0,0.0,-1.8601,0.0,0.0,0.0,0.0,0.0,0.0,0.0,0.0,-1.9212,-1.9212,-1.9265,-1.9319,-1.9366,-1.9366,-1.9366,-1.9366,-1.9366,-1.9366,-1.9366,-1.9366,-1.9366,-1.9366,-1.9366,-1.8765,-1.7812,-1.8292,0.0,-1.7443,-1.4247,-1.3296,-1.3763,-1.3375,-1.1744,-0.9608,-0.912,-0.894,-0.894,-0.894,-0.894,-0.894,-0.894,-0.9008,-0.9093,-0.9093,-0.9432,-0.9822,-0.9822,-0.9822,-0.9822,-0.9822,-0.9822,-0.9822,-0.9822,-0.9822,-0.9822,-0.9822,-0.971,-0.9602,-0.9574,-0.9445,-0.9381,-0.9507,-0.9381,-0.9181,-0.8937,-0.8876,-0.876,-0.8482,-0.8319,-0.818,-0.8055,-0.8038,-0.8038,-0.8038,-0.8038,-0.7974,-0.7821,-0.7811,-0.7801,-0.7777,-0.7662,-0.7726,-0.7994,-0.7875,-0.7872,-0.7997,-0.8028,-0.8024,-0.8001,-0.8028,-0.8038,-2.1249,-2.1587,-2.1662,-2.1635,-2.0664,-1.9359,-1.8198,0.0,0.0,0.0,0.0,-1.3877,-1.4082,0.0,0.0,0.0,0.0,0.0,0.0,0.0,0.0,0.0,0.0,0.0,0.0,0.0,0.0,0.0,0.0,-1.9686,-1.9379,-1.9366,-1.9366,-1.9366,-1.9366,-1.9366,-1.9366,-1.9366,-1.9366,-1.9366,-1.9366,-1.9366,-1.9366,-1.9366,-1.9366,-1.9366,-1.9366,0.0,-1.9243,-1.7214,-1.553,-1.4508,-1.6247,-1.6042,-1.4365,-1.0381,-0.894,-0.894,-0.894,-1.0891,-1.294,-0.9915,-0.894,-0.8998,-0.9303,-0.9595,-0.9822,-0.9822,-0.9822,-0.9822,-0.9822,-0.9822,-0.9822,-0.9822,-0.9822,-0.9822,-0.9822,-0.9768,-0.972,-0.972,-0.9602,-0.9523,-0.9598,-0.9483,-0.9334,-0.9191,-0.91,-0.8971,-0.8747,-0.8591,-0.8411,-0.8184,-0.8089,-0.8038,-0.8038,-0.8038,-0.8007,-0.7933,-0.7929,-0.7929,-0.7929,-0.7865,-0.7896,-0.8035,-0.7967,-0.7967,-0.8038,-0.8038,-0.8038,-0.8038,-0.8038,-0.8038,-2.3234,-2.3706,-2.3648,-2.3252,-2.1896,-2.0004,-1.7666,-1.6329,0.0,0.0,-1.2856,-1.3398,-1.3486,0.0,0.0,0.0,0.0,0.0,0.0,0.0,0.0,0.0,0.0,0.0,0.0,0.0,0.0,0.0,0.0,0.0,-1.9519,-1.9492,-1.9452,-1.9372,-1.9366,-1.9366,-1.9366,-1.9366,-1.9366,-1.9366,-1.9366,-1.9366,-1.9366,-1.9366,-1.9366,-1.9366,-1.9366,0.0,0.0,-1.9366,-1.7929,-1.5908,-1.8409,-1.9366,-1.8751,-1.2933,-1.0781,-1.0781,-1.0781,-1.3804,-1.6823,-1.229,-0.9915,-0.9049,-0.9642,-0.9822,-0.9822,-0.9822,-0.9822,-0.9822,-0.9822,-0.9822,-0.9822,-0.9822,-0.9822,-0.9822,-0.9822,-0.9822,-0.9822,-0.9822,-0.973,-0.9656,-0.9656,-0.9787,-1.0044,-1.0008,-1.0119,-1.0081,-0.9554,-0.9603,-0.9393,-0.8498,-0.8197,-0.8075,-0.8041,-0.8038,-0.8038,-0.8038,-0.8038,-0.8038,-0.8038,-0.8038,-0.8038,-0.8038,-0.8038,-0.8038,-0.8038,-0.8038,-0.8038,-0.8038,-0.8038,-0.8038,-2.2519,-2.3217,-2.398,-2.4421,-2.3019,-2.0988,-1.8991,0.0,0.0,0.0,-1.2641,-1.3057,-1.3437,-1.3564,0.0,0.0,0.0,0.0,0.0,0.0,0.0,0.0,0.0,0.0,0.0,0.0,0.0,0.0,0.0,0.0,-1.99,-1.9887,-1.9726,-1.9379,-1.9366,-1.9366,-1.9366,-1.9366,-1.9366,-1.9366,-1.9366,-1.9366,-1.9366,-1.9366,-1.9366,-1.9366,-1.9366,0.0,0.0,-1.9366,-1.9249,-1.9004,-1.9249,-1.9366,-1.9219,-1.7469,-1.6823,-1.6823,-1.6823,-1.7147,-1.747,-1.6929,-1.3264,-0.9049,-0.9642,-0.9822,-0.9822,-0.9822,-0.9822,-0.9822,-0.9822,-0.9822,-0.9822,-0.9822,-0.9822,-0.9822,-0.9822,-0.9822,-0.9822,-0.9822,-0.9812,-0.9802,-0.9802,-1.0985,-1.1869,-1.1816,-1.2938,-1.325,-1.1513,-1.2279,-1.1958,-0.9004,-0.8418,-0.8194,-0.8052,-0.8038,-0.8038,-0.8038,-0.8038,-0.8038,-0.8038,-0.8038,-0.8038,-0.8038,-0.8038,-0.8038,-0.8038,-0.8038,-0.8038,-0.8038,-0.8038,-0.8038,-2.45,-2.5249,-2.5752,-2.5722,-2.356,-2.0865,-1.9098,0.0,0.0,-1.2953,-1.2791,-1.293,-1.3096,-1.3545,-1.3999,0.0,0.0,0.0,0.0,0.0,0.0,0.0,0.0,0.0,0.0,0.0,0.0,0.0,0.0,0.0,-2.0765,-1.998,-1.9686,-1.9887,-1.9553,-1.9366,-1.9366,-1.9366,-1.9366,-1.9366,-1.9366,-1.9366,-1.9366,-1.9366,-1.9366,-1.9366,-1.9366,0.0,0.0,-1.9366,-1.9366,-1.9366,-1.9366,-1.9366,-1.9219,-1.8023,-1.7582,-1.7582,-1.7582,-1.7582,-1.7582,-1.7582,-1.6068,-1.4191,-1.4457,-1.2311,-0.9822,-0.9822,-0.9822,-0.9822,-0.9822,-0.9822,-0.9822,-0.9822,-0.9822,-0.9822,-0.9822,-0.9822,-0.9822,-0.9822,-0.9822,-0.9822,-0.9822,-1.114,-1.2187,-1.2111,-1.341,-1.4084,-1.3336,-1.3461,-1.3044,-1.176,-1.0456,-0.94,-0.8412,-0.8306,-0.8269,-0.8184,-0.8177,-0.8136,-0.8041,-0.8038,-0.8038,-0.8038,-0.8038,-0.8038,-0.8038,-0.8038,-0.8038,-0.8038,-0.8038,-0.8038,-2.4953,-2.5917,-2.6367,-2.6074,-2.3496,-2.0615,0.0,0.0,0.0,-1.3057,-1.2881,-1.2881,-1.2881,-1.3359,-1.3537,0.0,0.0,0.0,0.0,0.0,0.0,0.0,0.0,0.0,0.0,0.0,0.0,0.0,0.0,0.0,0.0,-2.278,-2.1817,-2.1228,-2.1117,-2.0445,-1.9366,-1.9366,-1.9366,-1.9366,-1.9366,-1.9366,-1.9366,-1.9366,-1.9366,-1.9366,0.0,0.0,0.0,-1.9366,-1.9366,-1.9366,-1.9366,-1.9366,-1.9265,-1.8424,-1.7883,-1.7582,-1.7582,-1.7582,-1.7582,-1.7582,-1.7582,-1.7649,-1.8003,-1.5579,-1.2684,-1.2684,-1.1732,-1.066,-1.0539,-1.0179,-0.9822,-0.9822,-0.9822,-0.9822,-0.9822,-0.9822,-0.9822,-0.9822,-0.9822,-0.9822,-0.9822,-1.1499,-1.2933,-1.2933,-1.458,-1.5737,-1.5198,-1.5123,-1.4822,-1.3806,-1.2802,-1.1357,-0.9321,-0.8793,-0.8438,-0.834,-0.8333,-0.8286,-0.8174,-0.813,-0.8106,-0.8106,-0.8062,-0.8038,-0.8038,-0.8038,-0.8038,-0.8038,-0.8038,-0.8038,-2.2716,-2.3967,-2.5088,-2.5088,-2.2812,-2.0234,0.0,0.0,0.0,-1.3057,-1.2881,-1.2881,-1.2881,-1.2891,-1.282,-1.2556,0.0,0.0,0.0,0.0,0.0,0.0,0.0,0.0,0.0,0.0,0.0,0.0,0.0,0.0,0.0,-2.9118,-2.6844,-2.383,-2.4294,-2.2944,-1.9488,-1.9366,-1.9366,-1.9366,-1.9366,-1.9366,-1.9366,-1.9366,-1.9366,0.0,0.0,0.0,0.0,-1.9366,-1.9366,-1.9366,-1.9366,-1.9366,-1.9366,-1.9352,-1.8597,-1.7582,-1.7582,-1.7582,-1.7582,-1.7582,-1.7582,-1.7802,-1.8991,-1.9359,-1.9249,-1.9249,-1.6262,-1.2813,-1.2333,-1.102,-0.9822,-0.9822,-0.9822,-0.9822,-0.9822,-0.9822,-0.9822,-0.9822,-0.9822,-0.9822,-0.9822,-1.2453,-1.4604,-1.4604,-1.7337,-1.8654,-1.6948,-1.797,-1.7635,-1.439,-1.5166,-1.4396,-1.0997,-0.9306,-0.8482,-0.8479,-0.8479,-0.8479,-0.8476,-0.8343,-0.8269,-0.8269,-0.8116,-0.8038,-0.8038,-0.8038,-0.8038,-0.8038,-0.8038,-0.8038,-1.9713,-2.0515,-2.1273,-2.1659,-1.964,-1.7435,-1.7153,0.0,0.0,-1.2939,-1.2881,-1.2881,-1.2881,-1.3115,-1.3279,-1.3259,-1.4629,0.0,0.0,0.0,0.0,0.0,0.0,0.0,0.0,0.0,0.0,0.0,0.0,0.0,0.0,-2.9336,-2.7977,-2.4679,-2.6234,-2.5881,-2.3069,-2.2611,-2.138,-1.9366,-1.9366,-1.9366,-1.9352,-1.8951,0.0,0.0,0.0,0.0,0.0,-1.9366,-1.9366,-1.9366,-1.9366,-1.9125,-1.8818,-1.9219,-1.8611,-1.7582,-1.7582,-1.7582,-1.7582,-1.7582,-1.8136,-1.8871,-1.9252,-1.9366,-1.9127,-1.7683,-1.495,-1.2453,-1.2213,-1.102,-0.9822,-0.9822,-0.99,-0.9978,-0.9978,-1.0059,-1.0103,-0.9998,-1.0063,-1.01,-0.9995,-1.1682,-1.3139,-1.3139,-1.5769,-1.7535,-1.6967,-1.8103,-1.8538,-1.7516,-1.6519,-1.4604,-1.1564,-1.0679,-0.9812,-0.8752,-0.8638,-0.9009,-0.9928,-0.9975,-0.9891,-0.9774,-0.9831,-0.9244,-0.8038,-0.8147,-0.8197,-0.8197,-0.8197,-0.8248,0.0,-1.8182,-1.8744,-1.9244,-1.7611,0.0,0.0,0.0,0.0,0.0,0.0,-1.2403,-1.2157,-1.23,-1.2471,-1.2351,-1.3959,0.0,0.0,0.0,0.0,0.0,0.0,0.0,0.0,0.0,0.0,0.0,0.0,0.0,0.0,-2.8401,-2.7724,-2.6425,-2.7635,-2.7303,-2.529,-2.5395,-2.3822,-2.0486,-1.97,-1.9366,-1.9339,-1.8524,0.0,0.0,0.0,0.0,0.0,-1.9366,-1.9366,-1.9366,-1.9366,-1.9145,-1.8831,-1.8898,-1.8357,-1.7582,-1.7582,-1.7582,-1.7582,-1.7582,-1.829,-1.9145,-1.9145,-1.9252,-1.9127,-1.78,-1.5779,-1.388,-1.3287,-1.1856,-1.0539,-0.994,-0.9893,-0.9978,-1.0036,-1.0127,-1.0181,-1.0144,-1.0215,-1.0232,-1.0076,-1.1275,-1.2352,-1.2281,-1.4446,-1.6256,-1.6968,-1.7658,-1.8378,-1.8977,-1.7847,-1.6098,-1.3615,-1.2501,-1.1546,-1.081,-1.0578,-1.0911,-1.181,-1.1659,-1.1209,-1.0583,-1.0621,-0.9919,-0.8204,-0.8303,-0.835,-0.835,-0.835,-0.8397,0.0,0.0,0.0,0.0,0.0,0.0,0.0,0.0,0.0,0.0,0.0,0.0,0.0,-1.0871,-1.0753,-1.0576,-1.2386,0.0,0.0,0.0,0.0,0.0,0.0,0.0,0.0,0.0,0.0,0.0,0.0,0.0,0.0,-2.639,-2.6154,-2.8433,-2.8066,-2.7327,-2.6264,-2.7571,-2.6345,-2.271,-2.0666,-1.955,-1.9325,-1.813,0.0,0.0,0.0,0.0,0.0,-1.9366,-1.9366,-1.9366,-1.9366,-1.9359,-1.9252,-1.8544,-1.8016,-1.7642,-1.7595,-1.7582,-1.7589,-1.7615,-1.8116,-1.8711,-1.8771,-1.9058,-1.9366,-1.9366,-1.8286,-1.6609,-1.5192,-1.354,-1.1877,-1.0318,-0.9967,-0.9893,-1.0049,-1.008,-1.0124,-1.0266,-1.0304,-1.0263,-1.0107,-1.1309,-1.2233,-1.2059,-1.3449,-1.4981,-1.652,-1.6862,-1.7566,-1.912,-1.8984,-1.8343,-1.7062,-1.4795,-1.3706,-1.4117,-1.3632,-1.3495,-1.383,-1.3291,-1.2423,-1.1159,-1.0749,-0.9827,-0.8499,-0.8486,-0.8486,-0.8499,-0.8499,-0.8506,-1.3571,0.0,-1.4113,-1.4644,0.0,0.0,0.0,0.0,0.0,0.0,0.0,0.0,0.0,0.0,0.0,0.0,0.0,0.0,0.0,0.0,0.0,0.0,0.0,0.0,0.0,0.0,0.0,0.0,0.0,0.0,0.0,-2.3384,-2.3119,-2.4312,-2.4225,-2.5335,-2.7726,-2.7631,-2.741,-2.6825,-2.3595,-2.1115,-1.9325,-1.813,0.0,0.0,0.0,0.0,-1.9366,-1.9366,-1.9366,-1.9366,-1.9366,-1.9225,-1.9038,-1.9078,-1.8744,-1.821,-1.7742,-1.7582,-1.7635,-1.7949,-1.7969,-1.7996,-1.8684,-1.9112,-1.9366,-1.9366,-1.8286,-1.6968,-1.6492,-1.436,-1.231,-1.1824,-1.0948,-1.0212,-1.0358,-1.0388,-1.0399,-1.0436,-1.0538,-1.0568,-1.0412,-1.0642,-1.0881,-1.0845,-1.1993,-1.3039,-1.34,-1.5536,-1.7085,-1.7566,-1.8391,-1.8897,-1.8764,-1.6803,-1.516,-1.4138,-1.3775,-1.4277,-1.5635,-1.4076,-1.3076,-1.2856,-1.029,-0.885,-0.8655,-0.854,-0.854,-0.8655,-0.8655,-0.872,-1.2881,-1.3018,-1.3263,-1.3579,-1.3402,-1.3263,0.0,0.0,0.0,0.0,0.0,0.0,0.0,0.0,0.0,0.0,0.0,0.0,0.0,0.0,0.0,0.0,0.0,0.0,0.0,0.0,0.0,0.0,0.0,0.0,0.0,-2.1891,-2.1697,-2.2855,-2.2207,-2.3145,-2.5834,-2.6085,-2.6085,-2.5834,-2.3785,-2.1937,-2.0233,-1.868,-1.823,0.0,0.0,0.0,-1.9366,-1.9366,-1.9366,-1.9366,-1.9366,-1.9265,-1.9132,-1.9152,-1.8965,-1.8624,-1.8163,-1.7816,-1.7682,-1.827,-1.819,-1.7989,-1.8657,-1.9098,-1.9366,-1.9366,-1.8765,-1.7923,-1.685,-1.6115,-1.4952,-1.2093,-1.0879,-1.0341,-1.0324,-1.0409,-1.0514,-1.0582,-1.0605,-1.0588,-1.0507,-1.0436,-1.0395,-1.0395,-1.1009,-1.1639,-1.2499,-1.391,-1.5225,-1.5937,-1.7265,-1.8115,-1.8273,-1.7886,-1.7363,-1.6551,-1.6086,-1.6104,-1.6357,-1.5205,-1.3899,-1.2566,-1.0177,-0.8903,-0.8913,-0.8828,-0.8798,-0.8815,-0.8815,-0.8859,-1.2881,-1.333,-1.3679,-1.3314,-1.3343,-1.3378,0.0,0.0,0.0,0.0,0.0,0.0,0.0,0.0,0.0,0.0,0.0,0.0,0.0,0.0,0.0,0.0,0.0,0.0,0.0,0.0,0.0,0.0,0.0,0.0,0.0,-2.0964,-2.0825,-2.2046,-2.088,-2.088,-2.2046,-2.3791,-2.407,-2.2847,-2.2421,-2.1884,-2.1145,-1.9259,-1.851,0.0,0.0,0.0,-1.9366,-1.9366,-1.9249,-1.9004,-1.9004,-1.9004,-1.8978,-1.8728,-1.8757,-1.8945,-1.8644,-1.8116,-1.7702,-1.845,-1.8424,-1.819,-1.8644,-1.8998,-1.9252,-1.9339,-1.9366,-1.9004,-1.7202,-1.7843,-1.7784,-1.2966,-1.1648,-1.1305,-1.0745,-1.0735,-1.0921,-1.069,-1.0599,-1.05,-1.0524,-1.0409,-1.0321,-1.0344,-1.0327,-1.0813,-1.2182,-1.2403,-1.3014,-1.4314,-1.5715,-1.6767,-1.6968,-1.8286,-1.9004,-1.9004,-1.8505,-1.7491,-1.5817,-1.5546,-1.4076,-1.12,-1.0066,-0.9317,-0.9188,-0.9164,-0.9089,-0.8971,-0.895,-0.9047,-1.2881,-1.3975,-1.4598,-1.2563,-1.2532,-1.2744,0.0,0.0,0.0,0.0,0.0,0.0,0.0,0.0,0.0,0.0,0.0,0.0,0.0,0.0,0.0,0.0,0.0,0.0,0.0,0.0,0.0,0.0,0.0,0.0,0.0,-1.8529,-1.8406,-1.845,-1.8232,-1.8126,-1.8436,-2.1306,-2.2758,-2.2838,-2.0977,-2.0481,-2.1129,-1.8801,-1.811,-1.8778,0.0,-1.8865,-1.9366,-1.9366,-1.8642,-1.7325,-1.7325,-1.7325,-1.7319,-1.7277,-1.81,-1.9245,-1.8871,-1.823,-1.7662,-1.8136,-1.8009,-1.7816,-1.8557,-1.8711,-1.8731,-1.9232,-1.9366,-1.9366,-1.9004,-1.7909,-1.7254,-1.8619,-1.7685,-1.5827,-1.3345,-1.2738,-1.233,-1.0951,-1.0599,-1.0531,-1.0663,-1.0561,-1.0504,-1.0633,-1.0541,-1.0586,-1.0841,-1.196,-1.2665,-1.2755,-1.4163,-1.5632,-1.6868,-1.7202,-1.7325,-1.7325,-1.7038,-1.5401,-1.2382,-1.2512,-1.1703,-0.9726,-0.9497,-0.9367,-0.9347,-0.9215,-0.9144,-0.9117,-0.8994,-0.9592,-1.2881,-1.3613,-1.4077,-1.2819,-1.3336,-1.3844,0.0,0.0,0.0,0.0,0.0,0.0,0.0,0.0,0.0,0.0,0.0,0.0,0.0,0.0,0.0,0.0,0.0,0.0,0.0,0.0,0.0,0.0,0.0,0.0,0.0,0.0,-1.7729,-1.7589,-1.7582,-1.7582,-1.7582,-1.906,-1.9829,-2.0076,-1.9769,-1.9531,-1.9211,-1.8256,-1.8123,-1.8631,0.0,-1.8496,-1.8046,-1.8046,-1.7091,-1.5784,-1.6609,-1.6968,-1.7085,-1.7929,-1.8635,-1.9025,-1.8844,-1.8404,-1.7943,-1.8136,-1.8217,-1.8337,-1.8925,-1.9038,-1.9018,-1.9292,-1.9366,-1.9366,-1.9366,-1.8996,-1.885,-2.0466,-1.9157,-1.72,-1.5908,-1.5058,-1.4119,-1.2397,-1.2015,-1.1694,-1.0822,-1.0595,-1.0544,-1.0697,-1.066,-1.0616,-1.0616,-1.112,-1.1502,-1.1426,-1.261,-1.3793,-1.442,-1.5261,-1.602,-1.6968,-1.52,-1.3452,-1.1959,-1.1213,-1.0394,-0.9618,-0.9618,-0.9581,-0.9503,-0.9351,-0.9235,-0.915,-0.9005,-0.9699,-1.2618,-1.3118,-1.3408,0.0,0.0,0.0,0.0,0.0,0.0,0.0,0.0,0.0,0.0,0.0,0.0,0.0,0.0,0.0,0.0,0.0,0.0,0.0,0.0,0.0,0.0,0.0,0.0,0.0,0.0,0.0,0.0,0.0,-1.7582,-1.7582,-1.7582,-1.7582,-1.7582,-1.7582,-1.7582,-1.7582,-1.8603,-1.8603,-1.7589,-1.7829,-1.8103,-1.8397,-1.8269,-1.7748,-1.6874,-1.6523,-1.5735,-1.4718,-1.5902,-1.6615,-1.7202,-1.8765,-1.9178,-1.8905,-1.8818,-1.8584,-1.835,-1.8444,-1.8551,-1.8738,-1.9219,-1.9366,-1.9366,-1.9366,-1.9366,-1.9366,-1.9366,-1.9693,-2.0187,-2.0822,-1.9543,-1.814,-1.7837,-1.7076,-1.5913,-1.3713,-1.3168,-1.2588,-1.0955,-1.0595,-1.0544,-1.0697,-1.0721,-1.0721,-1.0721,-1.0619,-1.0531,-1.0493,-1.1419,-1.2117,-1.2444,-1.3797,-1.5002,-1.5937,-1.3573,-1.1976,-1.1619,-1.0422,-0.9822,-0.9822,-0.9822,-0.9768,-0.9659,-0.9507,-0.9357,-0.9201,-0.9055,-0.9732,-1.1873,-1.2821,-1.343,-1.1842,0.0,0.0,0.0,0.0,0.0,0.0,0.0,0.0,0.0,0.0,0.0,0.0,0.0,0.0,0.0,0.0,0.0,0.0,0.0,0.0,0.0,0.0,0.0,0.0,0.0,0.0,0.0,0.0,0.0,-1.7582,-1.7582,-1.7582,-1.7582,-1.7582,-1.7582,-1.7582,-1.7687,-1.7687,-1.7582,-1.7602,-1.7789,-1.7968,-1.6636,-1.6257,-1.6373,-1.5098,-1.4646,-1.4604,-1.4723,-1.5666,-1.7202,-1.8765,-1.9352,-1.9272,-1.8911,-1.8764,-1.8804,-1.9165,-1.8811,-1.8384,-1.9138,-1.9366,-1.9366,-1.9366,-1.9366,-1.9366,-1.9366,-1.9399,-1.9619,-2.0381,-2.0438,-1.9904,-1.8697,-1.8378,-1.7339,-1.397,-1.3168,-1.2588,-1.0955,-1.0595,-1.0544,-1.0697,-1.0721,-1.0721,-1.0721,-1.0711,-1.0649,-1.0507,-1.0603,-1.1166,-1.2511,-1.3877,-1.4174,-1.3078,-1.2525,-1.1499,-1.0061,-0.9819,-0.9822,-0.9822,-0.9822,-0.9815,-0.9805,-0.9663,-0.9513,-0.9361,-0.9208,-0.9839,-1.1266,-1.227,-1.3213,0.0,0.0,0.0,0.0,0.0,0.0,0.0,0.0,0.0,0.0,0.0,0.0,0.0,0.0,0.0,0.0,0.0,0.0,0.0,0.0,0.0,0.0,0.0,0.0,0.0,0.0,0.0,0.0,0.0,0.0,-1.7582,-1.7582,-1.7582,-1.7582,-1.7582,-1.7582,-1.7582,-1.7582,-1.7582,-1.7582,-1.7582,-1.7756,-1.7941,-1.7482,-1.6901,-1.6448,-1.5721,-1.5087,-1.4723,-1.5666,-1.699,-1.8282,-1.9061,-1.9252,-1.9072,-1.8918,-1.8871,-1.8865,-1.8831,-1.8871,-1.8938,-1.8985,-1.9172,-1.9366,-1.9366,-1.9366,-1.9366,-1.9366,-1.9499,-1.9713,-2.0,-2.0354,-2.0531,-2.0033,-1.9947,-1.903,-1.5524,-1.4943,-1.4012,-1.1233,-1.0673,-1.1041,-1.2142,-1.2281,-1.2672,-1.3844,-1.397,-1.3944,-1.3864,-1.2855,-1.183,-1.1292,-1.1658,-1.1764,-1.127,-1.0841,-1.0512,-1.01,-1.0015,-1.0008,-1.0107,-1.0012,-0.9964,-0.9964,-0.9727,-0.9581,-0.952,-0.9364,-1.0052,-1.0618,-1.1268,-1.2122,0.0,0.0,0.0,0.0,0.0,0.0,0.0,0.0,0.0,0.0,0.0,0.0,0.0,0.0,0.0,0.0,0.0,0.0,0.0,0.0,0.0,0.0,0.0,0.0,0.0,0.0,0.0,0.0,0.0,0.0,0.0,-1.7582,-1.7582,-1.7582,-1.7582,-1.7582,-1.7582,-1.7582,-1.7582,-1.7582,-1.7582,-1.7702,-1.7903,-1.7346,-1.6838,-1.6209,-1.5586,-1.5194,-1.521,-1.6848,-1.8027,-1.8824,-1.9118,-1.9038,-1.8811,-1.8998,-1.8998,-1.8905,-1.8798,-1.9038,-1.9319,-1.9052,-1.9158,-1.9366,-1.9366,-1.9366,-1.9366,-1.9366,-1.9512,-1.9686,-1.978,-2.018,-2.0561,-2.0661,-2.0902,-2.0068,-1.6565,-1.5913,-1.4749,-1.124,-1.1111,-1.1894,-1.3062,-1.3709,-1.4488,-1.5784,-1.5913,-1.5659,-1.5139,-1.4304,-1.2888,-1.0677,-1.0834,-1.082,-1.0412,-1.0134,-1.0063,-1.0273,-1.0178,-1.0419,-1.1154,-1.0867,-1.1027,-1.1638,-1.135,-1.0948,-1.0303,-1.031,-1.0454,-0.9814,-0.9821,0.0,0.0,0.0,0.0,0.0,0.0,0.0,0.0,0.0,0.0,0.0,0.0,0.0,0.0,0.0,0.0,0.0,0.0,0.0,0.0,0.0,0.0,0.0,0.0,0.0,0.0,0.0,0.0,0.0,0.0,0.0,0.0,-1.7582,-1.7582,-1.7582,-1.7582,-1.7582,-1.7582,-1.7582,-1.7582,-1.7582,-1.7582,-1.7582,-1.7477,-1.6062,-1.557,-1.5597,-1.4161,-1.4516,-1.6304,-1.7916,-1.849,-1.8524,-1.8811,-1.8738,-1.8577,-1.9158,-1.9165,-1.8971,-1.9265,-1.9366,-1.9366,-1.9366,-1.9366,-1.9366,-1.9366,-1.9366,-1.9366,-1.9366,-1.9366,-1.9439,-1.9726,-2.002,-2.0314,-2.0608,-2.0902,-2.0068,-1.656,-1.5913,-1.4879,-1.1372,-1.2153,-1.332,-1.3325,-1.4879,-1.5913,-1.5918,-1.5918,-1.5269,-1.3582,-1.47,-1.4277,-1.0969,-1.1974,-1.2171,-1.0833,-1.0446,-1.0283,-1.0283,-1.0283,-1.1158,-1.2905,-1.2597,-1.3233,-1.5059,-1.4715,-1.366,-1.2051,-1.1934,-1.1028,-0.9211,0.0,0.0,0.0,0.0,0.0,0.0,0.0,0.0,0.0,0.0,0.0,0.0,0.0,0.0,0.0,0.0,0.0,0.0,0.0,0.0,0.0,0.0,0.0,0.0,0.0,0.0,0.0,0.0,0.0,0.0,0.0,0.0,0.0,-1.7582,-1.7582,-1.7582,-1.7582,-1.7582,-1.7582,-1.7582,-1.7582,-1.7582,-1.7582,-1.7582,-1.7582,-1.7147,-1.7103,-1.7284,-1.7145,-1.7039,-1.7225,-1.8097,-1.8364,-1.8217,-1.851,-1.8564,-1.8517,-1.8691,-1.8831,-1.8938,-1.9025,-1.9199,-1.9366,-1.9366,-1.9366,-1.9366,-1.9366,-1.9366,-1.9366,-1.9366,-1.9366,-1.9392,-1.9472,-1.9873,-2.0261,-2.0341,-2.0755,-2.0456,-1.8122,-1.7731,-1.6953,-1.4749,-1.4749,-1.5529,-1.6818,-1.7339,-1.8122,-1.9419,-1.9546,-1.8896,-1.7082,-1.7407,-1.6229,-1.28,-1.2832,-1.2433,-1.0846,-1.0636,-1.0588,-1.0588,-1.0487,-1.1242,-1.316,-1.2974,-1.3757,-1.5513,-1.391,-1.2981,-1.244,-1.1117,-1.0204,0.0,0.0,0.0,0.0,0.0,0.0,0.0,0.0,0.0,0.0,0.0,0.0,0.0,0.0,0.0,0.0,0.0,0.0,0.0,0.0,0.0,0.0,0.0,0.0,0.0,0.0,0.0,0.0,0.0,0.0,0.0,0.0,0.0,0.0,-1.7582,-1.7582,-1.7582,-1.7582,-1.7582,-1.7582,-1.7582,-1.7582,-1.7582,-1.7582,-1.7582,-1.7582,-1.7582,-1.7689,-1.7889,-1.819,-1.8023,-1.7629,-1.8123,-1.813,-1.7896,-1.8203,-1.8237,-1.8163,-1.841,-1.8604,-1.8771,-1.8885,-1.9125,-1.9366,-1.9366,-1.9366,-1.9366,-1.9366,-1.9366,-1.9366,-1.9366,-1.9366,-1.9399,-1.9512,-1.9893,-2.0267,-2.0381,-2.0775,-2.0589,-1.8896,-1.8506,-1.7988,-1.6172,-1.6436,-1.7339,-1.8378,-1.903,-1.9935,-2.0976,-2.1109,-2.0456,-1.864,-1.8506,-1.7082,-1.3582,-1.3325,-1.2545,-1.085,-1.0721,-1.0721,-1.0721,-1.0633,-1.1399,-1.332,-1.3139,-1.3934,-1.558,-1.4232,-1.3177,-1.2488,-1.1409,-1.0483,0.0,0.0,0.0,0.0,0.0,0.0,0.0,0.0,0.0,0.0,0.0,0.0,0.0,0.0,0.0,0.0,0.0,0.0,0.0,0.0,0.0,0.0,0.0,0.0,0.0,0.0,0.0,0.0,0.0,0.0,0.0,0.0,0.0,-1.7542,-1.7542,-1.7542,-1.7542,-1.7515,-1.7528,0.0,-1.7528,-1.7528,-1.7582,-1.7582,-1.7582,-1.7582,-1.7582,-1.7582,-1.7609,-1.7916,-1.7862,-1.7615,-1.7923,-1.7856,-1.7615,-1.7903,-1.7822,-1.7662,-1.8217,-1.8424,-1.8497,-1.8791,-1.9085,-1.9332,-1.9359,-1.9366,-1.9366,-1.9366,-1.9366,-1.9366,-1.9366,-1.9366,-1.9446,-1.9766,-2.004,-2.0314,-2.0615,-2.0902,-2.0589,-1.9024,-1.8768,-1.8244,-1.6695,-1.7731,-1.8768,-1.8768,-2.0068,-2.1109,-2.1109,-2.1109,-2.0456,-1.8896,-1.8768,-1.7339,-1.3844,-1.3582,-1.2672,-1.085,-1.0721,-1.0721,-1.0721,-1.0721,-1.1501,-1.3325,-1.303,-1.3837,-1.5493,-1.5016,-1.406,-1.2402,-1.2279,-1.1318,0.0,0.0,0.0,0.0,0.0,0.0,0.0,0.0,0.0,0.0,0.0,0.0,0.0,0.0,0.0,0.0,0.0,0.0,0.0,0.0,0.0,0.0,0.0,0.0,0.0,0.0,0.0,0.0,0.0,0.0,0.0,0.0,0.0,-1.7248,-1.7241,-1.7241,-1.7241,-1.7014,-1.7128,0.0,-1.7114,-1.7134,-1.7582,-1.7582,-1.7582,-1.7582,-1.7582,-1.7582,-1.7609,-1.7916,-1.7862,-1.7615,-1.7923,-1.7856,-1.7589,-1.7655,-1.7642,-1.7602,-1.7729,-1.7936,-1.819,-1.849,-1.8778,-1.9065,-1.9299,-1.9366,-1.9366,-1.9366,-1.9366,-1.9366,-1.9366,-1.9366,-1.9499,-2.0013,-2.0187,-2.0314,-2.0615,-2.0902,-2.0982,-2.0589,-2.0589,-2.0456,-2.0068,-2.0329,-2.0589,-2.0589,-2.0849,-2.1109,-2.1109,-2.1109,-2.0976,-2.0589,-2.0589,-1.9158,-1.5654,-1.5394,-1.397,-1.085,-1.0721,-1.0721,-1.0721,-1.0721,-1.1501,-1.3325,-1.3282,-1.4038,-1.5843,-1.4217,-1.3265,-1.2716,-1.1351,-1.0454,0.0,0.0,0.0,0.0,0.0,0.0,0.0,0.0,0.0,0.0,0.0,0.0,0.0,0.0,0.0,0.0,0.0,0.0,0.0,0.0,0.0,0.0,0.0,0.0,0.0,0.0,0.0,0.0,0.0,0.0,0.0,-1.7582,-1.7448,-1.7161,-1.7148,-1.7081,-1.6941,-1.678,-1.686,-1.7161,-1.6854,-1.6867,-1.7174,-1.7455,-1.7582,-1.7582,-1.7582,-1.7669,-1.7829,-1.8136,-1.8076,-1.7836,-1.8143,-1.7983,-1.7582,-1.7582,-1.7582,-1.7582,-1.7582,-1.7789,-1.807,-1.823,-1.8571,-1.8951,-1.9112,-1.9252,-1.9366,-1.9366,-1.9366,-1.9366,-1.9366,-1.9366,-1.9479,-1.992,-2.0134,-2.0354,-2.0788,-2.1002,-2.1109,-2.1109,-2.1109,-2.1109,-2.1109,-2.1109,-2.1109,-2.1109,-2.1109,-2.1109,-2.1109,-2.1109,-2.1109,-2.1109,-2.1109,-1.9674,-1.6172,-1.5913,-1.4358,-1.0982,-1.0721,-1.0721,-1.0721,-1.0721,-1.1111,-1.2022,-1.2025,-1.2541,-1.3451,-1.2449,-1.1934,-1.1772,-1.076,-1.0259,0.0,0.0,0.0,0.0,0.0,0.0,0.0,0.0,0.0,0.0,0.0,0.0,0.0,0.0,0.0,0.0,0.0,0.0,0.0,0.0,0.0,0.0,0.0,0.0,0.0,0.0,0.0,0.0,0.0,0.0,-1.7508,-1.7462,-1.7301,-1.7007,-1.7001,-1.6881,-1.6633,-1.658,-1.6607,-1.6707,-1.6707,-1.668,-1.6653,-1.7241,-1.7508,-1.7508,-1.7562,-1.7756,-1.807,-1.837,-1.8317,-1.8076,-1.8377,-1.8123,-1.7582,-1.7582,-1.7582,-1.7582,-1.7582,-1.7749,-1.7976,-1.8029,-1.8377,-1.8791,-1.8891,-1.9092,-1.9299,-1.9352,-1.9366,-1.9366,-1.9366,-1.9366,-1.9439,-1.9733,-2.002,-2.0381,-2.0922,-2.1076,-2.1109,-2.1109,-2.1109,-2.1109,-2.1109,-2.1109,-2.1109,-2.1109,-2.1109,-2.1109,-2.1109,-2.1109,-2.1109,-2.1109,-2.1109,-1.9674,-1.6172,-1.5913,-1.4358,-1.0982,-1.0721,-1.0721,-1.0721,-1.0721,-1.0721,-1.0721,-1.0721,-1.0721,-1.0721,-1.0721,-1.0639,-1.049,-1.0517,-1.0439,0.0,0.0,0.0,0.0,0.0,0.0,0.0,0.0,0.0,0.0,0.0,0.0,0.0,0.0,0.0,0.0,0.0,0.0,0.0,0.0,0.0,0.0,0.0,0.0,0.0,0.0,0.0,0.0,0.0,0.0,-1.7208,-1.6961,-1.6687,-1.64,-1.6393,-1.6373,-1.6333,-1.6079,-1.6199,-1.6707,-1.6707,-1.6573,-1.6346,-1.6941,-1.7208,-1.7221,-1.7475,-1.7756,-1.807,-1.837,-1.8317,-1.8076,-1.8377,-1.8123,-1.7582,-1.7582,-1.7582,-1.7582,-1.7582,-1.7609,-1.7689,-1.7956,-1.8103,-1.8257,-1.8771,-1.8951,-1.9038,-1.9292,-1.9366,-1.9366,-1.9366,-1.9366,-1.9439,-1.9733,-2.002,-2.0327,-2.0661,-2.0935,-2.1109,-2.1109,-2.1109,-2.1109,-2.1109,-2.1109,-2.1109,-2.1109,-2.1109,-2.1109,-2.1109,-2.1109,-2.1109,-2.1109,-2.1109,-1.9674,-1.6172,-1.5913,-1.4358,-1.0982,-1.0721,-1.0721,-1.0721,-1.0721,-1.0721,-1.0721,-1.0721,-1.0721,-1.0721,-1.0721,-1.0639,-1.0493,-1.0626,-1.0541,0.0,0.0,0.0,0.0,0.0,0.0,0.0,0.0,0.0,0.0,0.0,0.0,0.0,0.0,0.0,0.0,0.0,0.0,0.0,0.0,0.0,0.0,0.0,0.0,0.0,0.0,0.0,0.0,0.0,-1.6901,-1.6901,-1.6774,-1.6573,-1.6286,-1.6273,-1.6192,-1.6025,-1.5892,-1.5959,-1.6219,-1.6219,-1.6233,-1.6286,-1.6707,-1.6987,-1.7161,-1.7455,-1.7756,-1.8056,-1.819,-1.8163,-1.8063,-1.819,-1.7969,-1.7582,-1.7582,-1.7582,-1.7582,-1.7582,-1.7582,-1.7602,-1.7742,-1.7896,-1.8076,-1.835,-1.8657,-1.8951,-1.9085,-1.9239,-1.9366,-1.9366,-1.9366,-1.9399,-1.9526,-1.9163,-1.8772,-1.8889,-2.0145,-2.1109,-2.1109,-2.1109,-2.1109,-2.1109,-2.1109,-2.1109,-2.1109,-2.1109,-2.1109,-2.1109,-2.1109,-2.1109,-2.1109,-2.0202,-1.864,-1.6172,-1.5009,-1.332,-1.085,-1.0721,-1.0721,-1.0721,-1.0721,-1.0721,-1.0721,-1.0721,-1.0721,-1.0721,-1.0721,-1.0683,-1.0622,-1.0687,-1.0653,0.0,0.0,0.0,0.0,0.0,0.0,0.0,0.0,0.0,0.0,0.0,0.0,0.0,0.0,0.0,0.0,0.0,0.0,0.0,0.0,0.0,0.0,0.0,0.0,0.0,0.0,0.0,0.0,0.0,-1.66,-1.66,-1.6526,-1.6386,-1.6166,-1.6159,-1.6052,-1.5832,-1.5832,-1.5832,-1.5832,-1.5832,-1.5945,-1.6172,-1.654,-1.6827,-1.7054,-1.7422,-1.7756,-1.805,-1.805,-1.805,-1.805,-1.805,-1.7903,-1.7702,-1.7702,-1.7702,-1.7702,-1.7702,-1.7649,-1.7582,-1.7582,-1.7729,-1.7923,-1.8016,-1.835,-1.8731,-1.8878,-1.9085,-1.9272,-1.9352,-1.9366,-1.9366,-1.9366,-1.8835,-1.8024,-1.7281,-1.8878,-2.0456,-2.0456,-2.0849,-2.1109,-2.1109,-2.1109,-2.1109,-2.1109,-2.1109,-2.1109,-2.1109,-2.1109,-2.1109,-2.1109,-1.9546,-1.7731,-1.6043,-1.4362,-1.2545,-1.085,-1.0721,-1.0721,-1.0721,-1.0721,-1.0721,-1.0721,-1.0721,-1.0721,-1.0721,-1.0721,-1.0721,-1.0721,-1.0721,-1.0721,0.0,0.0,0.0,0.0,0.0,0.0,0.0,0.0,0.0,0.0,0.0,0.0,0.0,0.0,0.0,0.0,0.0,0.0,0.0,0.0,0.0,0.0,0.0,0.0,0.0,0.0,0.0,0.0,0.0,-1.6293,-1.6293,-1.6025,-1.5872,-1.5852,-1.5852,-1.5845,-1.5832,-1.5832,-1.5832,-1.5832,-1.5832,-1.5838,-1.5872,-1.6446,-1.6714,-1.676,-1.7335,-1.7756,-1.805,-1.805,-1.805,-1.805,-1.805,-1.8036,-1.8023,-1.8023,-1.8023,-1.8023,-1.8023,-1.7829,-1.7582,-1.7582,-1.7595,-1.7662,-1.7956,-1.807,-1.821,-1.8764,-1.8931,-1.9011,-1.9292,-1.9366,-1.9366,-1.9366,-1.9688,-1.9381,-1.6562,-1.7323,-1.8634,-1.8634,-1.9935,-2.1109,-2.1109,-2.1109,-2.1109,-2.1109,-2.1109,-2.1109,-2.1109,-2.1109,-2.1109,-2.1109,-1.9546,-1.7731,-1.6043,-1.4362,-1.2545,-1.085,-1.0721,-1.0721,-1.0721,-1.0721,-1.0721,-1.0721,-1.0721,-1.0721,-1.0721,-1.0721,-1.0721,-1.0721,-1.0721,-1.0721,0.0,0.0,0.0,0.0,0.0,0.0,0.0,0.0,0.0,0.0,0.0,0.0,0.0,0.0,0.0,0.0,0.0,0.0,0.0,0.0,0.0,0.0,0.0,0.0,0.0,0.0,0.0,0.0,0.0,0.0,-1.5985,-1.5885,-1.5832,-1.5832,-1.5832,-1.5832,-1.5832,-1.5832,-1.5832,-1.5832,-1.5832,-1.5925,-1.6119,-1.6333,-1.6526,-1.6727,-1.7134,-1.7475,-1.7749,-1.7749,-1.7749,-1.7749,-1.7749,-1.7749,-1.7769,-1.7969,-1.805,-1.807,-1.8263,-1.8136,-1.7883,-1.7883,-1.7749,-1.7602,-1.7716,-1.7889,-1.813,-1.8531,-1.8778,-1.8991,-1.9292,-1.9366,-1.9219,-1.8489,-1.6742,-1.5122,-1.4401,-1.6431,-1.8506,-1.8506,-1.9935,-2.1109,-2.1109,-2.1109,-2.1109,-2.1109,-2.1109,-2.1109,-2.1109,-2.1109,-2.1109,-2.1109,-1.8506,-1.6565,-1.5918,-1.3325,-1.1372,-1.0721,-1.0721,-1.0721,-1.0721,-1.0721,-1.0721,-1.0721,-1.0721,-1.0721,-1.0721,-1.0721,-1.0721,-1.0721,-1.0721,-1.0721,0.0,0.0,0.0,0.0,0.0,0.0,0.0,0.0,0.0,0.0,0.0,0.0,0.0,0.0,0.0,0.0,0.0,0.0,0.0,0.0,0.0,0.0,0.0,0.0,0.0,0.0,0.0,0.0,0.0,0.0,-1.5832,-1.5832,-1.5832,-1.5832,-1.5832,-1.5832,-1.5832,-1.5832,-1.5832,-1.5832,-1.5832,-1.5932,-1.6126,-1.6226,-1.638,-1.6587,-1.6981,-1.7255,-1.7442,-1.7542,-1.7582,-1.7582,-1.7582,-1.7649,-1.7776,-1.8083,-1.8196,-1.8237,-1.8531,-1.8444,-1.8183,-1.8083,-1.7909,-1.7716,-1.7615,-1.7722,-1.7976,-1.8377,-1.8631,-1.8751,-1.8667,-1.8169,-1.7829,-1.7741,-1.5623,-1.3618,-1.4146,-1.6048,-1.7597,-1.7597,-1.9546,-2.1109,-2.1109,-2.1109,-2.1109,-2.1109,-2.1109,-2.1109,-2.1109,-2.0589,-2.0195,-2.0195,-1.7082,-1.5009,-1.5009,-1.2413,-1.0721,-1.0721,-1.0721,-1.0721,-1.0721,-1.0721,-1.0721,-1.0721,-1.0721,-1.0721,-1.0721,-1.0721,-1.0721,-1.0721,-1.0721,-1.0982,0.0,0.0,0.0,0.0,0.0,0.0,0.0,0.0,0.0,0.0,0.0,0.0,0.0,0.0,0.0,0.0,0.0,0.0,0.0,0.0,0.0,0.0,0.0,0.0,0.0,0.0,0.0,0.0,0.0,-1.5832,-1.5832,-1.5832,-1.5832,-1.5832,-1.5832,-1.5832,-1.5832,-1.5832,-1.5832,-1.5832,-1.5832,-1.5832,-1.5838,-1.6126,-1.6259,-1.6293,-1.6874,-1.723,-1.7161,-1.7462,-1.7582,-1.7582,-1.7582,-1.7769,-1.807,-1.8377,-1.849,-1.8537,-1.8831,-1.8744,-1.8457,-1.8156,-1.8056,-1.7989,-1.7675,-1.7589,-1.7722,-1.8323,-1.8497,-1.8289,-1.731,-1.579,-1.508,-1.737,-1.65,-1.5377,-1.5822,-1.5913,-1.5913,-1.5913,-1.8768,-2.1109,-2.1109,-2.1109,-2.1109,-2.1109,-2.1109,-2.1109,-2.1109,-1.9546,-1.8506,-1.8506,-1.5399,-1.3325,-1.3325,-1.1765,-1.0721,-1.0721,-1.0721,-1.0721,-1.0721,-1.0721,-1.0721,-1.0721,-1.0721,-1.0721,-1.0721,-1.0721,-1.0721,-1.0721,-1.0721,-1.1762,-0.9413,0.0,0.0,0.0,0.0,0.0,0.0,0.0,0.0,0.0,0.0,0.0,0.0,0.0,0.0,0.0,0.0,0.0,0.0,0.0,0.0,0.0,0.0,0.0,0.0,0.0,0.0,0.0,-1.5832,-1.5832,-1.5832,-1.5832,-1.5832,-1.5832,-1.5832,-1.5832,-1.5832,-1.5832,-1.5832,-1.5832,-1.5832,-1.5832,-1.5832,-1.5912,-1.5952,-1.5972,-1.6353,-1.6633,-1.6867,-1.7375,-1.7582,-1.7582,-1.7582,-1.7635,-1.7769,-1.8297,-1.849,-1.8564,-1.9072,-1.9052,-1.8758,-1.8464,-1.8223,-1.7989,-1.7675,-1.7742,-1.7996,-1.8384,-1.8644,-1.8538,-1.7358,-1.4955,-1.3817,-1.7165,-1.5748,-1.4171,-1.5594,-1.6953,-1.7468,-1.6172,-1.8768,-2.1109,-2.1109,-2.1109,-2.1109,-2.1109,-2.1109,-2.1109,-2.1109,-1.9546,-1.8506,-1.8506,-1.5399,-1.3325,-1.3325,-1.1765,-1.0721,-1.0721,-1.0721,-1.0721,-1.0721,-1.0721,-1.0721,-1.0721,-1.0721,-1.0721,-1.0721,-1.0721,-1.0721,-1.0721,-1.2022,-1.4232,0.0,0.0,0.0,0.0,0.0,0.0,0.0,-1.3389,0.0,0.0,0.0,0.0,0.0,0.0,0.0,0.0,0.0,0.0,0.0,0.0,0.0,0.0,0.0,0.0,0.0,0.0,0.0,-1.6546,-1.6109,-1.5832,-1.5832,-1.5832,-1.5832,-1.5832,-1.5832,-1.5832,-1.5832,-1.5832,-1.5832,-1.5832,-1.5832,-1.5832,-1.5832,-1.5832,-1.5832,-1.5845,-1.6146,-1.6373,-1.6567,-1.7161,-1.7475,-1.7582,-1.7582,-1.7662,-1.7836,-1.8317,-1.8564,-1.8738,-1.9205,-1.9172,-1.8878,-1.8584,-1.829,-1.8016,-1.7829,-1.7903,-1.8136,-1.8551,-1.7951,-1.6907,-1.6222,-1.3611,-1.2057,-1.4936,-1.4288,-1.3361,-1.4447,-1.6749,-1.7988,-1.6302,-1.8768,-2.1109,-2.1109,-2.1109,-2.1109,-2.1109,-2.1109,-2.0849,-2.0068,-1.8506,-1.7082,-1.6431,-1.384,-1.2285,-1.2285,-1.124,-1.0721,-1.0721,-1.0721,-1.0721,-1.0721,-1.0721,-1.0721,-1.0721,-1.0721,-1.1111,-1.1762,-1.1111,-1.1111,-1.1894,-1.4362,-1.656,0.0,0.0,0.0,0.0,0.0,0.0,-1.3105,-1.334,-1.374,0.0,0.0,0.0,0.0,0.0,0.0,0.0,0.0,0.0,0.0,0.0,0.0,0.0,0.0,0.0,0.0,-1.7451,-1.6028,-1.7509,-1.6459,-1.5832,-1.5832,-1.5832,-1.5832,-1.5832,-1.5832,-1.5832,-1.5832,-1.5832,-1.5832,-1.5832,-1.5832,-1.5832,-1.5832,-1.5832,-1.5832,-1.5845,-1.6112,-1.6246,-1.6319,-1.6874,-1.7275,-1.7542,-1.7569,-1.7749,-1.8036,-1.837,-1.8651,-1.8918,-1.9252,-1.9172,-1.8878,-1.8584,-1.829,-1.8036,-1.8003,-1.8043,-1.8107,-1.8572,-1.6681,-1.4604,-1.4366,-1.2109,-1.0239,-1.2208,-1.276,-1.2948,-1.3101,-1.5977,-1.7942,-1.6265,-1.8744,-2.1109,-2.1109,-2.1109,-2.1109,-2.1109,-2.1109,-2.0456,-1.8768,-1.6953,-1.5269,-1.3451,-1.1762,-1.0721,-1.0721,-1.0721,-1.0721,-1.0721,-1.0721,-1.0721,-1.0721,-1.0721,-1.0721,-1.0721,-1.0721,-1.1501,-1.3325,-1.1762,-1.2022,-1.397,-1.7082,-1.8634,0.0,0.0,0.0,0.0,0.0,0.0,-1.3906,-1.4228,-1.4453,0.0,0.0,0.0,0.0,0.0,0.0,0.0,0.0,0.0,0.0,0.0,0.0,0.0,0.0,0.0,0.0,-1.6893,-1.5922,-1.7017,-1.6334,-1.5832,-1.5832,-1.5832,-1.5832,-1.5832,-1.5832,-1.5832,-1.5832,-1.5832,-1.5832,-1.5832,-1.5832,-1.5832,-1.5832,-1.5832,-1.5832,-1.5832,-1.5892,-1.6052,-1.6299,-1.6647,-1.6967,-1.7255,-1.7495,-1.7615,-1.7742,-1.829,-1.8524,-1.8651,-1.9185,-1.9172,-1.8878,-1.8584,-1.829,-1.8003,-1.7749,-1.8016,-1.8295,-1.7572,-1.5987,-1.4242,-1.3053,-1.1362,-1.0376,-1.2237,-1.276,-1.2909,-1.2948,-1.5746,-1.7805,-1.6022,-1.8619,-2.1109,-2.1109,-2.1109,-2.1109,-2.1109,-2.1109,-2.0456,-1.8768,-1.6953,-1.5269,-1.3451,-1.1762,-1.0721,-1.0721,-1.0721,-1.0721,-1.0721,-1.0721,-1.0721,-1.0721,-1.0721,-1.0721,-1.0721,-1.0721,-1.1501,-1.3325,-1.2931,-1.4358,-1.7468,-1.8122,-1.9285,0.0,0.0,0.0,-1.4402,0.0,0.0,0.0,-1.4307,-1.4521,0.0,0.0,0.0,0.0,0.0,0.0,0.0,0.0,0.0,0.0,0.0,0.0,0.0,0.0,0.0,0.0,-1.6452,-1.5391,-1.5758,-1.549,-1.5464,-1.5605,-1.5611,-1.5678,-1.5825,-1.5832,-1.5832,-1.5832,-1.5832,-1.5832,-1.5832,-1.5832,-1.5832,-1.5832,-1.5832,-1.5832,-1.5832,-1.5832,-1.5912,-1.6072,-1.6366,-1.6667,-1.6974,-1.7408,-1.7675,-1.7849,-1.8156,-1.8364,-1.8537,-1.8824,-1.8738,-1.8464,-1.8317,-1.8063,-1.7816,-1.7816,-1.823,-1.842,-1.7171,-1.5691,-1.4242,-1.2573,-1.1084,-1.0176,-1.1023,-1.1275,-1.1401,-1.1401,-1.3721,-1.5706,-1.5701,-1.7938,-2.0068,-2.0976,-2.1109,-2.1109,-2.1109,-2.1109,-2.0456,-1.8768,-1.6953,-1.5269,-1.3451,-1.1762,-1.0721,-1.0721,-1.0721,-1.0721,-1.0721,-1.0721,-1.0721,-1.0721,-1.0721,-1.0721,-1.0721,-1.1501,-1.2804,-1.4619,-1.5529,-1.6824,-1.8506,-1.9413,-2.0195,0.0,0.0,0.0,0.0,0.0,-1.4814,0.0,0.0,0.0,0.0,0.0,0.0,0.0,0.0,0.0,0.0,0.0,0.0,0.0,0.0,0.0,0.0,0.0,0.0,0.0,-1.6144,-1.4969,-1.4394,-1.4683,-1.4977,-1.5217,-1.5337,-1.5504,-1.5738,-1.5798,-1.5832,-1.5832,-1.5832,-1.5832,-1.5832,-1.5832,-1.5832,-1.5832,-1.5832,-1.5832,-1.5832,-1.5832,-1.5832,-1.5852,-1.6152,-1.644,-1.6754,-1.7288,-1.7689,-1.7963,-1.8023,-1.8196,-1.841,-1.847,-1.8297,-1.805,-1.805,-1.7836,-1.7642,-1.7956,-1.8189,-1.8032,-1.6448,-1.5125,-1.377,-1.2217,-1.0781,-0.9822,-0.9822,-0.9917,-1.0005,-1.0005,-1.1583,-1.3576,-1.5383,-1.7229,-1.8963,-2.0836,-2.1109,-2.1109,-2.1109,-2.1109,-2.0456,-1.8768,-1.6953,-1.5269,-1.3451,-1.1762,-1.0721,-1.0721,-1.0721,-1.0721,-1.0721,-1.0721,-1.0721,-1.0721,-1.0721,-1.085,-1.1244,-1.2541,-1.4358,-1.6431,-1.7859,-1.8634,-1.903,-2.0456,-2.1109,0.0,0.0,0.0,0.0,-1.5342,0.0,0.0,0.0,0.0,0.0,0.0,0.0,0.0,0.0,0.0,0.0,0.0,0.0,0.0,0.0,0.0,0.0,0.0,0.0,0.0,0.0,-1.5303,-1.3796,-1.4255,-1.4583,-1.4616,-1.5117,-1.5411,-1.5444,-1.5698,-1.5832,-1.5832,-1.5832,-1.5832,-1.5832,-1.5832,-1.5832,-1.5832,-1.5832,-1.5832,-1.5832,-1.5832,-1.5832,-1.5852,-1.6152,-1.644,-1.674,-1.7068,-1.7375,-1.7669,-1.7949,-1.807,-1.8136,-1.8397,-1.8297,-1.805,-1.805,-1.7836,-1.7642,-1.7956,-1.7256,-1.6174,-1.4772,-1.3476,-1.2093,-1.0539,-0.994,-0.9822,-0.9822,-0.9836,-0.9846,-0.9846,-1.1314,-1.3217,-1.5137,-1.698,-1.8872,-2.0803,-2.1109,-2.1109,-2.1109,-2.1109,-2.0456,-1.8768,-1.6953,-1.5269,-1.3451,-1.1762,-1.0721,-1.0721,-1.0721,-1.0721,-1.0721,-1.0721,-1.0721,-1.0721,-1.0721,-1.1369,-1.2931,-1.3193,-1.4879,-1.825,-1.8378,-1.9285,-2.0849,-2.0976,-2.1109,0.0,0.0,0.0,0.0,0.0,0.0,-1.5853,0.0,-1.6056,0.0,0.0,0.0,0.0,0.0,0.0,0.0,0.0,0.0,0.0,0.0,0.0,0.0,0.0,0.0,0.0,0.0,0.0,0.0,0.0,-1.3641,-1.3995,-1.4569,-1.5044,-1.5384,-1.5678,-1.5832,-1.5832,-1.5832,-1.5832,-1.5832,-1.5832,-1.5832,-1.5832,-1.5832,-1.5832,-1.5832,-1.5832,-1.5832,-1.5838,-1.5965,-1.6286,-1.6714,-1.684,-1.7174,-1.7595,-1.7729,-1.7776,-1.7796,-1.7923,-1.7883,-1.7776,-1.7776,-1.7689,-1.7609,-1.7736,-1.6984,-1.5689,-1.422,-1.3063,-1.1721,-1.0155,-0.9822,-0.9822,-0.9822,-0.9822,-0.9822,-0.9822,-1.0623,-1.1815,-1.3631,-1.4784,-1.6316,-1.9139,-2.0456,-2.1109,-2.1109,-2.0195,-1.9291,-1.8634,-1.6048,-1.4101,-1.332,-1.1762,-1.0721,-1.0721,-1.0721,-1.0721,-1.0721,-1.0721,-1.0721,-1.0721,-1.1633,-1.2545,-1.332,-1.5269,-1.7082,-1.8506,-1.9708,-2.0618,-2.1109,-2.1109,-2.1109,-1.2936,0.0,0.0,0.0,0.0,0.0,0.0,0.0,0.0,0.0,0.0,0.0,0.0,0.0,0.0,0.0,0.0,0.0,0.0,0.0,0.0,0.0,0.0,0.0,0.0,0.0,0.0,-1.1877,-1.2291,-1.2812,-1.3253,-1.4068,-1.4716,-1.5144,-1.5591,-1.5832,-1.5832,-1.5832,-1.5832,-1.5832,-1.5832,-1.5832,-1.5832,-1.5832,-1.5635,-1.5337,-1.5635,-1.5629,-1.5337,-1.5635,-1.6179,-1.6707,-1.6707,-1.7061,-1.7582,-1.7582,-1.7582,-1.7582,-1.7582,-1.7582,-1.7582,-1.7582,-1.7582,-1.7582,-1.7582,-1.6473,-1.5082,-1.3969,-1.2592,-1.1043,-1.002,-0.9822,-0.9822,-0.9822,-0.9822,-0.9822,-0.9822,-1.0029,-1.0728,-1.2515,-1.3029,-1.4424,-1.7848,-1.9546,-2.0329,-2.0329,-1.9285,-1.8378,-1.7859,-1.5139,-1.3325,-1.3325,-1.1762,-1.0721,-1.0721,-1.0758,-1.0799,-1.0839,-1.1199,-1.1437,-1.1437,-1.3087,-1.4232,-1.4749,-1.7211,-1.8768,-1.9158,-2.0876,-2.1403,-2.1109,-2.1196,-2.1189,0.0,0.0,0.0,-1.4382,0.0,0.0,0.0,0.0,-1.5988,0.0,0.0,0.0,0.0,0.0,0.0,-1.541,0.0,0.0,0.0,0.0,0.0,0.0,0.0,0.0,0.0,0.0,0.0,-1.1485,-1.1984,-1.2325,-1.2345,-1.3728,-1.4529,-1.4549,-1.5384,-1.5832,-1.5832,-1.5832,-1.5832,-1.5832,-1.5832,-1.5832,-1.5832,-1.5832,-1.5146,-1.407,-1.5242,-1.514,-1.407,-1.5337,-1.6179,-1.6707,-1.6707,-1.7061,-1.7582,-1.7582,-1.7582,-1.7582,-1.7582,-1.7582,-1.7582,-1.7582,-1.7582,-1.7582,-1.7582,-1.5713,-1.3537,-1.3635,-1.1794,-0.9642,-0.9785,-0.9822,-0.9822,-0.9822,-0.9822,-0.9822,-0.9822,-0.9944,-1.0592,-1.249,-1.305,-1.4254,-1.782,-1.8506,-1.8634,-1.8634,-1.8506,-1.7859,-1.6172,-1.4358,-1.3325,-1.3325,-1.1762,-1.0721,-1.0721,-1.0856,-1.0999,-1.1138,-1.2624,-1.3465,-1.3465,-1.4988,-1.6565,-1.825,-1.8378,-1.9291,-2.0982,-2.141,-2.1403,-2.1116,-2.1403,-2.1383,0.0,0.0,-1.1674,-1.2743,0.0,0.0,0.0,0.0,0.0,0.0,0.0,0.0,0.0,0.0,-1.3786,-1.3786,-1.3606,0.0,0.0,0.0,0.0,0.0,0.0,0.0,0.0,0.0,0.0,-1.0907,-1.139,-1.1804,0.0,-1.324,-1.4115,-1.4509,-1.5184,-1.5631,-1.5825,-1.5832,-1.5832,-1.5832,-1.5832,-1.5832,-1.5832,-1.5832,-1.514,-1.3974,-1.5242,-1.5045,-1.3974,-1.5242,-1.6059,-1.644,-1.6627,-1.6947,-1.7321,-1.7508,-1.7582,-1.7582,-1.7582,-1.7582,-1.7582,-1.7582,-1.7582,-1.747,-1.6393,-1.4832,-1.3237,-1.2466,-1.0902,-0.9513,-0.9758,-0.9822,-0.9822,-0.9822,-0.9822,-0.9822,-0.9822,-1.0022,-1.0342,-1.102,-1.2258,-1.4021,-1.6421,-1.7731,-1.8506,-1.8506,-1.7468,-1.6172,-1.4358,-1.2672,-1.1633,-1.1633,-1.1111,-1.0761,-1.0863,-1.2078,-1.301,-1.3066,-1.4765,-1.5601,-1.5461,-1.7102,-1.8159,-1.8512,-1.9674,-2.0462,-2.1109,-2.141,-2.1403,-2.1116,-2.1416,-2.1396,-1.0752,-1.0641,0.0,-1.1919,-1.239,0.0,-1.4585,0.0,0.0,0.0,0.0,0.0,0.0,0.0,0.0,-1.3033,-1.2757,-1.2493,0.0,-1.2186,0.0,0.0,0.0,0.0,0.0,0.0,-1.1121,-1.047,-1.1035,-1.151,0.0,0.0,-1.3868,-1.4349,-1.5037,-1.5538,-1.5825,-1.5832,-1.5832,-1.5832,-1.5832,-1.5534,-1.5146,-1.5146,-1.4459,-1.3199,-1.4076,-1.4172,-1.3968,-1.4758,-1.5608,-1.6299,-1.5976,-1.6158,-1.6542,-1.7259,-1.7582,-1.7582,-1.7582,-1.7582,-1.7582,-1.7582,-1.7582,-1.7364,-1.5849,-1.4449,-1.3029,-1.189,-1.052,-0.9449,-0.9744,-0.9822,-0.9836,-0.989,-0.99,-0.9917,-0.9971,-1.0178,-1.0611,-1.1239,-1.235,-1.4101,-1.6431,-1.7731,-1.8506,-1.8506,-1.7602,-1.5913,-1.3582,-1.2281,-1.1394,-1.0795,-1.0802,-1.1146,-1.2027,-1.3912,-1.5069,-1.5069,-1.6626,-1.7556,-1.7187,-1.8806,-1.9733,-1.9844,-2.0739,-2.1263,-2.1577,-2.1563,-2.1403,-2.1116,-2.1416,-2.1396]},{"header":{"parameterUnit":"m.s-1","parameterCategory":1,"la1":30.6,"la2":29.2853,"lo1":-89.7004,"lo2":-87.6739,"dy":0.0162,"dx":0.0183,"nx":112,"ny":82,"refTime":"2023-07-10T12:00:00:Z","depth":0,"parameterNumber":3,"parameterNumberName":"V-component_of_WINDS"},"data":[0.0,0.0,0.0,0.0,0.0,0.0,0.0,0.0,0.0,0.0,0.0,0.0,0.0,0.0,0.0,0.0,0.0,0.0,0.0,0.0,0.0,0.0,0.0,0.0,0.0,0.0,0.0,0.0,0.0,0.0,0.0,0.0,0.0,0.0,0.0,0.0,0.0,0.0,0.0,0.0,0.0,0.0,0.0,0.0,0.0,0.0,0.0,0.0,0.0,0.0,0.0,0.0,0.0,0.0,0.0,0.0,0.0,0.0,0.0,0.0,0.0,0.0,0.0,0.0,0.0,0.0,0.0,0.0,0.0,0.0,0.0,0.0,0.0,0.0,0.0,0.0,0.0,0.0,0.0,0.0,0.0,0.0,0.0,0.0,0.0,0.0,0.0,0.0,0.0,0.0,0.0,-2.3801,-2.551,-2.6234,-2.549,-2.5236,-2.4269,-2.2326,0.0,0.0,0.0,0.0,0.0,0.0,0.0,0.0,0.0,0.0,0.0,0.0,0.0,0.0,0.0,0.0,0.0,0.0,0.0,0.0,0.0,0.0,0.0,0.0,0.0,0.0,0.0,0.0,0.0,0.0,0.0,0.0,0.0,0.0,0.0,0.0,0.0,0.0,0.0,0.0,0.0,0.0,0.0,0.0,0.0,0.0,0.0,0.0,0.0,0.0,0.0,0.0,0.0,0.0,0.0,0.0,0.0,0.0,0.0,0.0,0.0,0.0,0.0,0.0,0.0,0.0,0.0,0.0,0.0,0.0,0.0,0.0,0.0,0.0,0.0,0.0,0.0,0.0,0.0,0.0,0.0,0.0,0.0,0.0,0.0,0.0,0.0,0.0,0.0,0.0,0.0,0.0,0.0,0.0,0.0,0.0,0.0,0.0,0.0,0.0,0.0,0.0,0.0,0.0,-2.3245,-2.43,-2.5217,-2.5473,-2.4712,-2.3528,-2.2756,-2.2608,0.0,0.0,0.0,0.0,0.0,0.0,0.0,0.0,0.0,0.0,0.0,0.0,0.0,0.0,0.0,0.0,0.0,0.0,0.0,0.0,0.0,0.0,0.0,0.0,0.0,0.0,0.0,0.0,0.0,0.0,0.0,0.0,0.0,0.0,0.0,0.0,0.0,0.0,0.0,0.0,0.0,0.0,0.0,0.0,0.0,0.0,0.0,0.0,0.0,0.0,0.0,0.0,0.0,0.0,0.0,0.0,0.0,0.0,0.0,0.0,0.0,0.0,0.0,0.0,0.0,0.0,0.0,0.0,0.0,0.0,0.0,0.0,0.0,0.0,0.0,0.0,0.0,0.0,0.0,0.0,0.0,0.0,0.0,0.0,0.0,0.0,0.0,0.0,0.0,0.0,0.0,0.0,0.0,0.0,0.0,0.0,0.0,0.0,0.0,0.0,0.0,0.0,0.0,-2.2946,-2.3612,-2.4418,-2.5152,-2.5304,-2.4574,-2.367,-2.3108,-2.2982,-2.3488,0.0,0.0,0.0,0.0,0.0,0.0,0.0,0.0,0.0,0.0,0.0,0.0,0.0,0.0,0.0,0.0,0.0,0.0,0.0,0.0,0.0,0.0,0.0,0.0,0.0,0.0,0.0,0.0,0.0,0.0,0.0,0.0,0.0,0.0,0.0,0.0,0.0,0.0,0.0,0.0,0.0,0.0,0.0,0.0,0.0,0.0,0.0,0.0,0.0,0.0,0.0,0.0,0.0,0.0,0.0,0.0,0.0,0.0,0.0,0.0,0.0,0.0,0.0,0.0,0.0,0.0,0.0,0.0,0.0,0.0,0.0,0.0,0.0,0.0,0.0,0.0,0.0,0.0,0.0,0.0,0.0,0.0,0.0,0.0,0.0,0.0,0.0,0.0,0.0,0.0,0.0,0.0,0.0,0.0,0.0,0.0,0.0,0.0,0.0,0.0,0.0,0.0,-2.3035,-2.3619,-2.4539,-2.5214,-2.5347,-2.4795,-2.3902,-2.3362,-2.3318,-2.332,0.0,0.0,0.0,0.0,0.0,0.0,0.0,0.0,0.0,0.0,0.0,0.0,0.0,0.0,0.0,0.0,0.0,0.0,0.0,0.0,0.0,0.0,0.0,0.0,0.0,0.0,0.0,0.0,0.0,0.0,0.0,0.0,0.0,0.0,0.0,0.0,0.0,0.0,0.0,0.0,0.0,0.0,0.0,0.0,0.0,0.0,0.0,0.0,0.0,0.0,0.0,0.0,0.0,0.0,0.0,0.0,0.0,0.0,0.0,0.0,0.0,0.0,0.0,0.0,0.0,0.0,0.0,0.0,0.0,0.0,0.0,0.0,0.0,0.0,0.0,0.0,0.0,0.0,0.0,0.0,0.0,0.0,0.0,0.0,0.0,0.0,0.0,0.0,0.0,0.0,0.0,0.0,0.0,0.0,0.0,0.0,0.0,0.0,0.0,0.0,0.0,0.0,-2.2798,-2.3406,-2.4906,-2.5312,-2.5482,-2.5429,-2.317,-2.2312,-2.3574,-2.2754,0.0,0.0,0.0,0.0,0.0,0.0,0.0,0.0,0.0,0.0,0.0,0.0,0.0,0.0,0.0,0.0,0.0,0.0,0.0,0.0,0.0,0.0,0.0,0.0,0.0,0.0,0.0,0.0,0.0,0.0,0.0,0.0,0.0,0.0,0.0,0.0,0.0,0.0,0.0,0.0,0.0,0.0,0.0,0.0,0.0,0.0,0.0,0.0,0.0,0.0,0.0,0.0,0.0,0.0,0.0,0.0,0.0,0.0,0.0,0.0,0.0,0.0,0.0,0.0,0.0,0.0,0.0,0.0,0.0,0.0,0.0,0.0,0.0,0.0,0.0,0.0,0.0,0.0,0.0,0.0,0.0,0.0,0.0,0.0,0.0,0.0,0.0,0.0,0.0,0.0,0.0,0.0,0.0,0.0,0.0,0.0,0.0,0.0,0.0,0.0,0.0,0.0,-2.3317,-2.3944,0.0,-2.4698,-2.4749,-2.4749,-2.3632,-2.3133,-2.3674,0.0,0.0,0.0,0.0,0.0,0.0,0.0,0.0,0.0,0.0,0.0,0.0,0.0,0.0,0.0,0.0,0.0,0.0,0.0,0.0,0.0,0.0,0.0,0.0,0.0,0.0,0.0,0.0,0.0,0.0,0.0,0.0,0.0,0.0,0.0,0.0,0.0,0.0,0.0,0.0,0.0,0.0,0.0,0.0,0.0,0.0,0.0,0.0,0.0,0.0,0.0,0.0,0.0,0.0,0.0,0.0,0.0,0.0,0.0,0.0,0.0,0.0,0.0,0.0,0.0,0.0,0.0,0.0,0.0,0.0,0.0,0.0,0.0,0.0,0.0,0.0,0.0,0.0,0.0,0.0,0.0,0.0,0.0,0.0,0.0,0.0,0.0,0.0,0.0,0.0,0.0,0.0,0.0,0.0,0.0,0.0,0.0,0.0,0.0,0.0,0.0,0.0,-2.2863,-2.3618,-2.4213,0.0,-2.4593,-2.464,-2.464,-2.3844,-2.3506,-2.3943,0.0,0.0,0.0,0.0,0.0,0.0,0.0,0.0,0.0,0.0,0.0,0.0,0.0,0.0,0.0,0.0,0.0,0.0,0.0,0.0,0.0,0.0,0.0,0.0,0.0,0.0,0.0,0.0,0.0,0.0,0.0,0.0,0.0,0.0,0.0,0.0,0.0,0.0,0.0,0.0,0.0,0.0,0.0,0.0,0.0,0.0,0.0,0.0,0.0,0.0,0.0,0.0,0.0,0.0,0.0,0.0,0.0,0.0,0.0,0.0,0.0,0.0,0.0,0.0,0.0,0.0,0.0,0.0,0.0,0.0,0.0,0.0,0.0,0.0,0.0,0.0,0.0,0.0,0.0,0.0,0.0,0.0,0.0,0.0,0.0,0.0,0.0,0.0,0.0,0.0,0.0,0.0,0.0,0.0,0.0,0.0,0.0,0.0,0.0,0.0,0.0,0.0,-2.3124,-2.3566,-2.4064,-2.4815,-2.5202,-2.5403,-2.5403,-2.3682,-2.3159,0.0,0.0,0.0,0.0,0.0,0.0,0.0,0.0,0.0,0.0,0.0,0.0,0.0,0.0,0.0,0.0,0.0,0.0,0.0,0.0,0.0,0.0,0.0,0.0,0.0,0.0,0.0,0.0,0.0,0.0,0.0,0.0,0.0,0.0,0.0,0.0,0.0,0.0,0.0,0.0,0.0,0.0,0.0,0.0,0.0,0.0,0.0,0.0,0.0,0.0,0.0,0.0,0.0,0.0,0.0,0.0,0.0,0.0,0.0,0.0,0.0,0.0,0.0,0.0,0.0,0.0,0.0,0.0,0.0,0.0,0.0,0.0,0.0,0.0,0.0,0.0,0.0,0.0,0.0,0.0,0.0,0.0,0.0,0.0,0.0,0.0,0.0,0.0,0.0,0.0,0.0,0.0,0.0,0.0,0.0,0.0,0.0,0.0,0.0,0.0,0.0,0.0,0.0,-2.3508,-2.3858,-2.4165,-2.4383,-2.4499,-2.4538,-2.4538,-2.4174,-2.4337,-2.5293,0.0,0.0,0.0,0.0,0.0,0.0,0.0,0.0,0.0,0.0,0.0,0.0,0.0,0.0,0.0,0.0,0.0,0.0,0.0,0.0,0.0,0.0,0.0,0.0,0.0,0.0,0.0,0.0,0.0,0.0,0.0,0.0,0.0,0.0,0.0,0.0,0.0,0.0,0.0,0.0,0.0,0.0,0.0,0.0,0.0,0.0,0.0,0.0,0.0,0.0,0.0,0.0,0.0,0.0,0.0,0.0,0.0,0.0,0.0,0.0,0.0,0.0,0.0,0.0,0.0,0.0,0.0,0.0,0.0,0.0,0.0,0.0,0.0,0.0,0.0,0.0,0.0,0.0,0.0,0.0,0.0,0.0,0.0,0.0,0.0,0.0,0.0,0.0,0.0,0.0,0.0,0.0,0.0,0.0,0.0,0.0,0.0,0.0,0.0,0.0,0.0,0.0,-2.4353,-2.4257,-2.419,-2.419,-2.419,-2.4228,-2.4321,-2.4426,-2.4746,-2.5386,0.0,0.0,0.0,0.0,0.0,0.0,0.0,0.0,0.0,0.0,0.0,0.0,0.0,0.0,0.0,0.0,0.0,0.0,0.0,0.0,0.0,0.0,0.0,0.0,0.0,0.0,0.0,0.0,0.0,0.0,0.0,0.0,0.0,0.0,0.0,0.0,0.0,0.0,0.0,0.0,0.0,0.0,0.0,0.0,0.0,0.0,0.0,0.0,0.0,0.0,0.0,0.0,0.0,0.0,0.0,0.0,0.0,0.0,0.0,0.0,0.0,0.0,0.0,0.0,0.0,0.0,0.0,0.0,0.0,0.0,0.0,0.0,0.0,0.0,0.0,0.0,0.0,0.0,0.0,0.0,0.0,0.0,0.0,0.0,0.0,0.0,0.0,0.0,0.0,0.0,0.0,0.0,0.0,0.0,0.0,0.0,0.0,0.0,0.0,0.0,0.0,0.0,-2.5311,-2.4705,-2.4228,-2.4228,-2.4247,-2.4339,-2.4512,-2.4526,-2.4716,-2.5101,0.0,0.0,0.0,0.0,0.0,0.0,0.0,0.0,0.0,0.0,0.0,0.0,0.0,0.0,0.0,0.0,0.0,0.0,0.0,0.0,0.0,0.0,0.0,0.0,0.0,0.0,0.0,0.0,0.0,0.0,0.0,0.0,0.0,0.0,0.0,0.0,0.0,0.0,0.0,0.0,0.0,0.0,0.0,0.0,0.0,0.0,0.0,0.0,0.0,0.0,0.0,0.0,0.0,0.0,0.0,0.0,0.0,0.0,0.0,0.0,-2.7985,0.0,0.0,0.0,0.0,0.0,0.0,0.0,0.0,0.0,0.0,0.0,0.0,0.0,0.0,0.0,0.0,0.0,0.0,0.0,0.0,0.0,0.0,0.0,0.0,0.0,0.0,0.0,0.0,0.0,0.0,0.0,0.0,0.0,0.0,0.0,0.0,0.0,0.0,0.0,0.0,0.0,-2.5384,-2.4857,-2.4445,-2.4445,-2.4594,-2.4685,-2.4731,-2.4836,-2.5222,-2.5971,-2.5535,0.0,0.0,0.0,0.0,0.0,0.0,0.0,0.0,0.0,0.0,0.0,0.0,0.0,0.0,0.0,0.0,0.0,0.0,0.0,0.0,0.0,0.0,0.0,0.0,0.0,0.0,0.0,0.0,0.0,0.0,0.0,0.0,0.0,0.0,0.0,0.0,0.0,0.0,0.0,0.0,0.0,0.0,0.0,0.0,0.0,0.0,0.0,0.0,0.0,0.0,0.0,0.0,0.0,0.0,0.0,0.0,0.0,0.0,0.0,0.0,-2.9089,0.0,0.0,0.0,0.0,0.0,0.0,0.0,0.0,0.0,0.0,0.0,0.0,0.0,0.0,0.0,0.0,0.0,0.0,0.0,0.0,0.0,0.0,0.0,0.0,0.0,0.0,0.0,0.0,0.0,0.0,0.0,0.0,0.0,0.0,0.0,0.0,0.0,0.0,0.0,0.0,-2.6227,-2.5323,-2.4639,-2.4639,-2.4746,-2.4832,-2.4891,-2.4962,-2.5225,-2.5773,-2.5503,0.0,0.0,0.0,0.0,0.0,0.0,0.0,0.0,0.0,0.0,0.0,0.0,0.0,0.0,0.0,0.0,0.0,0.0,0.0,0.0,0.0,0.0,0.0,0.0,0.0,0.0,0.0,0.0,0.0,0.0,0.0,0.0,0.0,0.0,0.0,0.0,0.0,0.0,0.0,0.0,0.0,0.0,0.0,0.0,0.0,0.0,0.0,0.0,0.0,0.0,0.0,0.0,0.0,-4.0671,-4.0249,-3.4302,-3.6541,-3.6486,-3.4449,-3.0668,-3.0844,-3.3593,0.0,0.0,0.0,0.0,0.0,0.0,0.0,0.0,0.0,0.0,0.0,0.0,0.0,0.0,0.0,0.0,0.0,0.0,0.0,0.0,0.0,0.0,0.0,0.0,0.0,-3.4007,-3.3594,0.0,0.0,0.0,0.0,0.0,0.0,0.0,0.0,0.0,0.0,0.0,0.0,-2.711,-2.5952,-2.5055,-2.5055,-2.5083,-2.5088,-2.5053,-2.5046,-2.5111,-2.5303,-2.5303,-2.536,0.0,0.0,0.0,0.0,0.0,0.0,0.0,0.0,0.0,0.0,0.0,0.0,0.0,0.0,0.0,0.0,0.0,0.0,0.0,0.0,0.0,0.0,0.0,0.0,0.0,0.0,0.0,0.0,0.0,0.0,0.0,0.0,-2.5244,-2.6181,0.0,0.0,0.0,0.0,0.0,0.0,0.0,0.0,0.0,0.0,0.0,0.0,0.0,-2.6077,-3.1511,-3.2613,-3.4816,-3.8102,-4.1754,-4.0855,-3.6119,-4.0524,-4.091,-3.7716,-3.1659,0.0,-3.3364,-2.7552,0.0,0.0,0.0,0.0,0.0,0.0,0.0,0.0,0.0,0.0,0.0,0.0,0.0,0.0,0.0,0.0,0.0,0.0,0.0,0.0,0.0,0.0,-3.5334,-3.6026,-3.5757,-3.5378,0.0,-3.3823,-3.1504,-2.906,-2.8006,0.0,0.0,0.0,0.0,0.0,0.0,0.0,-2.7185,-2.656,-2.6098,-2.6098,-2.6259,-2.6049,-2.5321,-2.5264,-2.5274,-2.5303,-2.5303,-2.563,-2.6409,-2.5774,0.0,0.0,0.0,0.0,0.0,0.0,0.0,0.0,0.0,0.0,0.0,0.0,0.0,0.0,0.0,0.0,0.0,0.0,0.0,0.0,0.0,0.0,0.0,0.0,0.0,0.0,0.0,0.0,0.0,-2.5903,-2.6384,-2.6763,-2.8277,-2.9416,0.0,0.0,0.0,0.0,0.0,0.0,0.0,0.0,0.0,-3.3752,-3.2314,-3.3637,-3.806,-3.8864,-3.9955,-4.1405,-4.2818,-4.2378,-4.0414,-4.2525,-4.2727,-4.124,-3.8395,-3.7955,-3.8891,-3.4266,-3.2172,-3.2372,0.0,0.0,0.0,0.0,-3.3975,-3.6171,-3.9388,-4.0079,0.0,-3.7972,0.0,0.0,0.0,0.0,0.0,0.0,0.0,0.0,0.0,0.0,-3.9008,-3.8873,-3.9315,-3.9738,-3.9604,-3.8235,-3.6155,0.0,-3.2192,-3.1613,-3.0734,0.0,0.0,0.0,0.0,-2.8261,-2.8261,-2.7637,-2.7206,-2.7206,-2.7281,-2.7178,-2.6794,-2.6313,-2.6024,-2.6024,-2.5572,-2.5457,-2.5851,-2.6034,-2.6275,0.0,0.0,0.0,0.0,0.0,0.0,0.0,0.0,0.0,0.0,0.0,0.0,0.0,0.0,0.0,0.0,0.0,0.0,0.0,0.0,0.0,0.0,0.0,0.0,0.0,0.0,0.0,0.0,-2.6707,-2.7497,-2.743,-2.9305,-3.0602,0.0,0.0,0.0,0.0,0.0,0.0,-3.1403,-3.1788,-3.2944,-3.5,-3.8212,-4.1075,-4.3461,-4.3497,-4.3497,-4.3497,-4.3497,-4.3497,-4.3497,-4.3497,-4.3497,-4.3497,-4.3497,-4.3497,-4.3296,-4.091,-3.7482,-3.4542,-4.2501,-4.5586,-4.4989,-3.995,-3.8315,-3.8892,-4.0719,-4.2064,-4.2409,-3.9452,0.0,-4.0193,-3.7832,0.0,0.0,0.0,0.0,-3.8681,-3.8911,-4.0546,-4.2085,-4.1854,-4.2797,-4.3566,-4.2912,-4.2085,-4.0412,0.0,-3.5968,-3.5545,-3.468,0.0,0.0,0.0,0.0,-2.9775,-2.9775,-2.9044,-2.8544,-2.8544,-2.8332,-2.8121,-2.7909,-2.7101,-2.6601,-2.6601,-2.5793,-2.5303,-2.5303,-2.5957,-2.6256,-2.6063,0.0,0.0,0.0,0.0,0.0,0.0,0.0,0.0,0.0,0.0,0.0,0.0,0.0,0.0,0.0,0.0,0.0,0.0,0.0,0.0,0.0,0.0,0.0,0.0,0.0,0.0,0.0,0.0,0.0,-2.8071,-2.956,0.0,0.0,0.0,0.0,-3.3966,-3.3788,-3.3623,-3.3642,-3.366,-3.5147,-3.8358,-4.157,-4.3332,-4.3497,-4.3497,-4.3497,-4.3497,-4.3497,-4.3497,-4.3497,-4.3497,-4.3497,-4.3497,-4.3497,-4.3497,-4.3479,-4.3314,-4.3073,-4.301,-4.4868,-4.5586,-4.5547,-4.522,-4.3085,-4.07,-4.2951,-4.2931,-4.2052,-4.3165,-4.2876,-4.2011,-4.1623,-4.0873,0.0,0.0,-3.9719,-4.0546,-4.1393,-4.2316,-4.3412,-4.497,-4.5413,-4.5451,-4.5413,-4.472,-4.2874,0.0,-3.7219,-3.6392,-3.5584,0.0,-3.3795,-3.2968,-3.2102,-3.1564,-3.1564,-3.0814,-3.0263,-3.0263,-2.9525,-2.8717,-2.7948,-2.7101,-2.6601,-2.6601,-2.5793,-2.5303,-2.5303,-2.5341,-2.6159,-2.7834,-2.7922,0.0,0.0,0.0,0.0,0.0,0.0,0.0,0.0,0.0,0.0,0.0,0.0,0.0,0.0,0.0,0.0,0.0,0.0,0.0,0.0,0.0,0.0,0.0,0.0,0.0,0.0,0.0,0.0,-3.1064,-3.3056,0.0,-3.4979,-3.509,-3.5459,-3.6251,-3.5754,-3.5404,-3.5404,-3.6395,-3.8432,-4.168,-4.2892,-4.3497,-4.3497,-4.3497,-4.3497,-4.3497,-4.3497,-4.3497,-4.3497,-4.3497,-4.3497,-4.3497,-4.3497,-4.3497,-4.3563,-4.4489,-4.4858,-4.4905,-4.54,-4.6259,-4.7086,-4.599,-4.5182,-4.4643,-4.4913,-4.4662,-4.4335,-4.4816,-4.422,-4.3104,-4.2104,-4.1585,-4.1393,-4.1662,-4.272,-4.397,-4.4855,-4.5316,-4.5701,-4.6297,-4.6009,-4.5586,-4.5586,-4.5355,-4.4682,-4.3181,-4.1316,-3.9892,-3.9604,-3.795,-3.6546,-3.6238,-3.5026,-3.3949,-3.3372,-3.3045,-3.2622,-3.2064,-3.1275,-3.066,-3.0371,-2.9025,-2.8198,-2.8198,-2.7428,-2.6967,-2.6967,-2.6967,-2.7274,-2.792,-2.7939,-2.8623,0.0,0.0,0.0,0.0,0.0,0.0,0.0,0.0,0.0,0.0,0.0,0.0,0.0,0.0,0.0,0.0,0.0,0.0,0.0,0.0,0.0,0.0,0.0,0.0,0.0,0.0,-3.2038,-3.3895,-3.5883,-3.7312,-3.7845,-3.7661,-3.7734,-3.8248,-3.856,-3.8487,-3.7955,-3.9441,-4.1295,-4.3424,-4.3497,-4.3497,-4.3497,-4.3497,-4.3497,-4.3497,-4.3497,-4.3497,-4.3497,-4.3497,-4.3497,-4.3513,-4.3986,-4.4204,-4.4271,-4.5223,-4.6278,-4.7317,-4.7317,-4.7528,-4.774,-4.7009,-4.6971,-4.7259,-4.6874,-4.624,-4.572,-4.649,-4.597,-4.4797,-4.347,-4.3297,-4.3643,-4.422,-4.5182,-4.622,-4.7086,-4.7298,-4.7298,-4.7298,-4.6855,-4.6432,-4.6432,-4.6432,-4.6355,-4.6086,-4.4432,-4.2989,-4.2701,-4.1027,-3.9623,-3.9335,-3.7853,-3.6565,-3.5988,-3.5161,-3.441,-3.3833,-3.2776,-3.1987,-3.1718,-3.0641,-2.9717,-2.914,-2.8602,-2.8179,-2.7909,-2.8159,-2.8429,-2.8736,-2.8736,-2.9294,-3.0398,0.0,0.0,0.0,0.0,0.0,0.0,0.0,0.0,0.0,0.0,0.0,0.0,0.0,0.0,0.0,0.0,0.0,0.0,0.0,0.0,0.0,0.0,0.0,-2.9595,-3.2934,-3.571,-3.6332,-3.7826,-3.8836,-3.8891,-3.9588,-4.0047,-4.0084,-4.2249,-4.2892,-4.1313,-4.2671,-4.3497,-4.3497,-4.3497,-4.3497,-4.3497,-4.3497,-4.3497,-4.3497,-4.3497,-4.3497,-4.3497,-4.3497,-4.3497,-4.3563,-4.4992,-4.5663,-4.574,-4.5624,-4.7548,-5.0529,-5.0529,-4.9221,-4.7451,-4.8509,-4.8548,-4.8144,-4.8702,-4.7451,-4.597,-4.8221,-4.8182,-4.7048,-4.599,-4.624,-4.6913,-4.6932,-4.6971,-4.7163,-4.7971,-4.8163,-4.8144,-4.8182,-4.8144,-4.8105,-4.8105,-4.8105,-4.7855,-4.7067,-4.622,-4.5355,-4.4489,-4.3662,-4.2854,-4.2008,-4.045,0.0,-3.9335,-3.7161,-3.5622,-3.5584,-3.4045,-3.2679,-3.1852,-3.1756,-3.0987,-2.9236,-2.914,-2.8794,-2.8005,-2.8717,-2.9544,-3.0417,-3.0456,-3.0475,-3.0475,0.0,0.0,0.0,0.0,0.0,0.0,0.0,0.0,0.0,0.0,0.0,0.0,0.0,0.0,0.0,0.0,0.0,0.0,0.0,0.0,0.0,0.0,-3.3794,-3.2711,-3.5073,-3.74,-3.8756,-4.0322,-4.1772,-4.2947,-4.3259,-4.3626,-4.4213,-4.4874,-4.4874,-4.4048,-4.3681,-4.3497,-4.3497,-4.3497,-4.3497,-4.3497,-4.3497,-4.3497,-4.3497,-4.3497,-4.3497,-4.3497,-4.3497,-4.3497,-4.3563,-4.4992,-4.7009,-4.9106,-4.6605,-4.6144,-4.699,-4.699,-4.7355,-4.7778,-4.6855,-4.6951,-4.7432,-4.6759,-4.6105,-4.5836,-4.7278,-4.699,-4.624,-4.7144,-4.7182,-4.7028,-4.7605,-4.824,-4.8913,-4.976,-4.951,-4.9202,-4.9817,-4.9029,-4.8105,-4.8105,-4.8105,-4.7855,-4.7067,-4.6721,-4.6278,-4.5393,-4.4528,-4.3893,-4.3643,-4.22,0.0,-4.0239,-3.9046,-3.8007,-3.7373,-3.6315,-3.5064,-3.3622,-3.2929,-3.1852,-3.016,-3.0044,-2.9948,-2.9717,-2.9929,-3.0448,-3.1333,-3.1929,-3.2218,0.0,0.0,0.0,0.0,0.0,0.0,0.0,0.0,0.0,0.0,0.0,0.0,0.0,0.0,0.0,0.0,0.0,0.0,0.0,0.0,0.0,0.0,-3.566,-3.7556,-3.739,-3.8597,-3.9974,-4.1258,-4.2818,-4.4176,-4.5112,-4.5204,-4.5406,-4.5865,-4.6214,-4.6214,-4.5792,-4.4745,-4.3956,-4.3497,-4.3497,-4.3497,-4.3497,-4.3497,-4.3497,-4.3497,-4.3497,-4.3497,-4.3497,-4.3497,-4.3497,0.0,-4.4992,-4.6721,-4.8394,-4.6413,-4.5586,0.0,0.0,0.0,0.0,0.0,-4.6913,-4.724,-4.6797,-4.6182,-4.5778,-4.6932,-4.7163,-4.7163,-4.7875,-4.8029,-4.8048,-4.8509,-4.9009,-4.9606,-5.0471,-5.0317,-5.0067,-5.0567,-4.9933,-4.9183,-4.9183,-4.8894,-4.8394,-4.7567,-4.7144,0.0,-4.574,-4.5182,-4.4836,-4.4836,-4.3701,-4.2547,-4.17,-4.0527,-3.9469,-3.8623,-3.745,-3.618,-3.4853,-3.3949,0.0,0.0,0.0,-3.1102,-3.1429,-3.1448,0.0,0.0,0.0,-3.3256,-3.2891,0.0,0.0,0.0,-3.2807,-3.3421,0.0,0.0,0.0,0.0,0.0,0.0,0.0,0.0,0.0,0.0,0.0,0.0,0.0,0.0,0.0,0.0,-3.8469,-4.1334,-4.268,-4.2928,-4.3167,-4.3699,-4.5021,-4.5938,-4.603,-4.6049,-4.6067,-4.6159,-4.6838,-4.7095,-4.6764,0.0,0.0,0.0,0.0,-4.3791,-4.3846,-4.3699,-4.3626,-4.3626,-4.3534,-4.3497,-4.3497,-4.3497,-4.3597,-4.3804,-4.5058,-4.5586,-4.5586,-4.5586,-4.5586,-4.5586,-4.5586,-4.5586,-4.5778,-4.7278,-4.7509,-4.7182,-4.7644,0.0,0.0,-4.6778,-4.8048,-4.9086,-4.8567,-4.8856,-4.9413,-4.951,-4.9606,-4.9856,-5.0625,-5.0837,-5.0837,-5.0837,-5.076,-5.0702,-5.0702,-5.001,-4.9163,-4.8394,-4.7528,-4.6644,-4.5874,-4.5663,-4.5586,-4.5586,-4.4855,-4.4008,-4.3201,-4.1662,-4.0335,-3.9508,0.0,0.0,-3.5718,-3.493,-3.3718,-3.1948,-3.1833,-3.216,-3.2872,-3.2891,-3.3314,-3.418,-3.4295,-3.4007,-3.3333,-3.343,-3.3487,-3.3506,-3.4776,-3.5411,0.0,0.0,0.0,0.0,0.0,0.0,0.0,0.0,0.0,0.0,0.0,0.0,0.0,0.0,0.0,-3.9976,-4.1351,-4.2986,-4.5773,-4.6746,-4.6728,-4.5571,-4.57,-4.6159,-4.6819,-4.6874,-4.715,-4.7792,-4.7994,-4.7774,-4.7076,-4.6838,-4.6122,-4.4819,-4.5204,-4.5645,-4.6085,-4.5021,-4.447,-4.447,0.0,0.0,-4.3497,-4.3497,-4.4117,-4.5223,-4.5475,-4.5586,-4.5586,-4.5586,-4.5586,-4.5586,-4.5586,-4.5586,-4.5624,-4.5951,-4.6009,-4.5932,-4.6047,-4.5855,-4.5624,-4.5855,-4.7932,-5.0337,-5.0221,-4.9817,0.0,-5.024,-5.0914,-5.1471,-5.1625,-5.1683,-5.1683,-5.1683,-5.1164,-5.0702,-5.0702,-5.001,-4.9356,-4.9183,-4.7932,-4.6855,-4.6682,-4.6067,-4.5586,-4.5586,-4.4855,-4.4008,-4.3201,-4.22,-4.1219,-4.0354,-3.9969,-3.8873,-3.6661,-3.6315,-3.5199,-3.2814,-3.2679,-3.2737,-3.2891,-3.2891,-3.3314,-3.418,-3.4891,-3.5488,-3.5968,-3.668,-3.7007,-3.6969,-3.5257,-3.4834,0.0,0.0,0.0,0.0,0.0,0.0,0.0,0.0,0.0,0.0,0.0,-3.4178,0.0,0.0,-3.9985,-4.252,-4.4432,-4.6078,-4.7518,-4.8416,-4.8489,-4.726,-4.748,-4.7737,-4.7719,-4.7719,-4.7884,-4.8269,-4.8691,-4.8581,-4.7755,-4.8122,-4.7664,-4.6159,-4.6361,-4.6452,-4.6305,-4.5645,-4.5296,-4.5296,-4.4617,-4.4011,-4.3497,-4.3497,-4.5218,-4.8144,-4.8144,-4.7182,-4.5586,-4.5586,-4.5586,-4.5586,-4.5586,-4.5586,-4.5586,-4.5586,-4.5586,-4.5586,-4.5586,-4.5586,-4.5586,-4.5586,-4.7317,-4.9548,-5.0433,-5.0779,-5.0991,-5.1433,-5.1722,-5.1914,-5.1914,-5.1606,-5.1298,-5.1298,-5.0991,-5.0702,-5.0702,-5.001,-4.9394,-4.9394,-4.8048,-4.6913,-4.6913,-4.6182,-4.5586,-4.5586,-4.522,-4.4643,-4.3816,-4.3316,-4.2566,-4.1296,-4.0758,-3.9815,-3.8142,-3.6834,-3.518,-3.3045,-3.2891,-3.3103,-3.3526,-3.3545,-3.4141,-3.543,-3.5892,-3.6507,-3.7353,-3.7796,-3.8007,-3.7969,-3.668,-3.6334,0.0,0.0,0.0,0.0,0.0,0.0,0.0,0.0,-3.2742,-3.5139,-3.6408,-3.7814,-4.0233,-4.1949,-4.3379,-4.4463,-4.6832,-4.8529,-4.8528,-4.915,-4.926,-4.8398,-4.8912,-4.9058,-4.8379,-4.8306,-4.8306,-4.8306,-4.8948,-4.9095,-4.8581,-4.9205,-4.904,-4.7865,-4.7829,-4.7462,-4.6691,-4.6471,-4.6471,-4.6673,-4.5718,-4.4888,-4.4188,-4.371,-4.6148,-5.0702,-5.0702,-4.9125,-4.6586,-4.6586,-4.6201,-4.5586,-4.5586,-4.5586,-4.5586,-4.5586,-4.5586,-4.5586,-4.5586,-4.5586,-4.5701,-4.6355,-4.749,-4.8875,-5.026,-5.1491,-5.2414,-5.2529,-5.2433,-5.2222,-5.1779,-5.1433,-5.1087,-5.0779,-5.0702,-5.0702,-5.0702,-5.001,-4.9452,-4.9625,-4.8298,-4.7201,-4.7355,-4.6528,-4.5797,-4.5624,-4.5586,-4.5278,-4.4412,-4.4297,-4.3662,-4.1989,-4.1162,-4.0354,-3.9373,-3.7257,-3.5391,-3.3987,-3.3737,-3.3949,-3.4661,-3.4545,-3.5161,-3.668,-3.6873,-3.7392,-3.8257,-3.8411,-3.8488,-3.8488,-3.8488,-3.8392,-2.6721,-2.7379,-2.8468,-2.9971,-3.0419,-3.1688,0.0,0.0,-3.7778,-3.9618,-4.1475,-4.2902,-4.3278,-4.4199,-4.5426,-4.7039,-4.7293,-4.7793,-4.9224,-4.9517,-4.926,-4.8398,-4.8398,-4.8416,-4.8324,-4.8306,-4.8306,-4.8306,-4.8398,-4.8746,-4.9407,-4.9536,-4.9829,-5.038,-5.0398,-5.0105,-4.9554,-4.8545,-4.8545,-4.9517,-4.7003,-4.6116,-4.6629,-4.4471,-4.6148,-5.0702,-5.0702,-5.0471,-5.0125,-5.0125,-4.8336,-4.5586,-4.5586,-4.5586,-4.5586,-4.5586,-4.5586,-4.5586,-4.5586,-4.5586,-4.6086,-4.9125,-5.026,-5.0452,-5.0625,-5.1491,-5.2491,-5.2972,-5.3433,-5.3299,-5.1337,-5.1875,-5.2549,-5.1048,-5.0702,-5.0702,-5.0702,-5.001,-4.9625,-5.0394,-4.9144,-4.8221,-4.899,-4.7798,-4.649,-4.572,-4.5586,-4.5278,-4.4412,-4.4297,-4.3662,-4.1989,-4.172,-4.1027,-3.9431,-3.8334,-3.7642,-3.745,-3.6699,-3.6315,-3.643,-3.5738,-3.5776,-3.668,-3.7469,-3.8277,-3.9161,-3.9873,-4.0219,-4.0219,-4.0219,-3.9835,-2.8852,-2.9976,0.0,0.0,-3.3959,-3.5772,-3.8402,-3.9681,-4.0745,-4.2255,-4.3986,-4.5223,-4.531,-4.5623,-4.6234,0.0,-4.7592,-4.8049,-4.8746,-4.8838,-4.8361,-4.7058,-4.6911,-4.7095,-4.7572,-4.7609,-4.781,-4.8269,-4.8765,-4.9205,-4.9554,-5.0472,-5.093,-5.0802,-5.1096,-5.1022,-5.0472,-4.9994,-4.9848,-4.9976,-4.8159,-4.7481,-4.7806,-4.7721,-4.88,-5.0702,-5.0702,-5.0702,-5.0702,-5.0702,-4.9856,-4.8567,-4.8567,-4.8567,-4.8317,-4.6317,-4.5586,-4.5586,-4.5586,-4.6894,-4.8798,-5.024,-5.0702,-5.1048,-5.301,-5.3933,-5.4357,-5.4587,-5.4818,-5.478,-5.3837,-5.3414,-5.3106,-5.2702,-5.1625,-5.0818,-5.1298,-5.0741,-5.026,-5.0625,-4.9702,-4.8971,-4.9336,-4.8009,-4.6778,-4.6413,-4.5913,-4.547,-4.5086,-4.5047,-4.4586,-4.3374,-4.2835,-4.2066,-4.0854,-3.995,-3.9258,-3.8796,-3.795,-3.7469,-3.7469,-3.7142,-3.7353,-3.82,-3.8565,-3.9161,-3.9988,-4.0335,-4.0489,-4.0489,-4.0489,-4.0315,-2.9954,0.0,0.0,-3.475,-3.6907,-3.904,-4.0095,-4.1705,-4.3245,-4.4227,-4.5622,-4.6633,-4.6477,-4.6345,-4.6366,-4.6709,-4.7443,-4.7902,-4.7682,-4.7645,-4.7131,-4.5736,-4.5369,-4.5553,-4.6379,-4.6654,-4.7113,-4.7921,-4.8545,-4.9095,-4.9554,-5.0912,-5.1499,-5.1132,-5.172,-5.1867,-5.1481,-5.1463,-5.1523,-5.1554,-5.0732,-5.0099,-4.9724,-5.1345,-5.2068,-5.2068,-5.2068,-5.2068,-5.201,-5.1068,-5.0702,-5.0702,-5.0702,-5.0702,-5.0394,-4.7913,-4.6394,-4.5586,-4.5586,-4.7836,-5.0702,-5.0702,-5.0702,-5.1318,-5.4684,-5.5703,-5.5703,-5.5703,-5.5703,-5.5703,-5.5703,-5.4799,-5.3991,-5.4376,-5.2779,-5.1298,-5.1798,-5.1279,-5.0702,-5.0702,-5.0183,-4.976,-4.976,-4.8355,-4.724,-4.724,-4.6297,-4.5586,-4.5586,-4.5393,-4.4989,-4.4374,-4.3585,-4.2835,-4.222,-4.1354,-4.0604,-4.0027,-3.895,-3.8354,-3.8354,-3.8123,-3.8411,-3.9277,-3.9296,-3.97,-4.0489,-4.0489,-4.0489,-4.0489,-4.0489,-4.0489,0.0,0.0,-3.4324,-3.6176,-3.8297,-4.0366,-4.2025,-4.4104,-4.5693,-4.5738,-4.6746,-4.742,-4.6656,-4.62,-4.5902,-4.592,-4.6617,-4.6874,-4.6085,-4.5975,-4.5663,-4.4837,-4.4048,-4.3883,0.0,-4.548,-4.6269,-4.7095,-4.7186,-4.7902,-4.9499,-5.038,-5.1187,-5.194,-5.2747,-5.3151,-5.3133,-5.3133,-5.3938,-5.5525,-5.5487,-5.46,-5.3125,-5.4789,-5.5549,-5.5549,-5.5549,-5.5549,-5.5299,-5.2029,-5.0702,-5.0702,-5.0702,-5.0702,-5.0683,-5.0567,-4.8452,-4.5586,-4.5586,-4.7836,-5.0702,-5.0702,-5.0702,-5.1318,-5.4684,-5.5703,-5.5703,-5.5703,-5.5703,-5.5703,-5.5703,-5.5665,-5.5626,-5.5645,-5.3953,-5.226,-5.1972,-5.1279,-5.0702,-5.0702,-5.0664,-5.0644,-5.0644,-4.9221,-4.8067,-4.8067,-4.6663,-4.5586,-4.5586,-4.4855,-4.4335,-4.4297,-4.3585,-4.3085,-4.3066,-4.2258,-4.1758,-4.1739,-4.0162,-3.9258,-3.9258,-3.845,-3.8411,-3.9277,-3.9296,-3.97,-4.0489,-4.0489,-4.0489,-4.0489,-4.0489,-4.0489,-3.1581,0.0,-3.8048,-3.9778,-4.1609,-4.3283,-4.4423,-4.567,-4.6365,-4.5563,-4.492,-4.4191,-4.3116,-4.2809,-4.2727,-4.2727,-4.4727,-4.603,-4.5223,-4.603,-4.581,-4.3387,-4.3809,0.0,0.0,0.0,0.0,-4.625,-4.6819,-4.759,-4.8673,-5.005,-5.1169,-5.1958,-5.2784,-5.3206,-5.3206,-5.3206,-5.3777,-5.4924,-5.5446,-5.5404,-5.4886,-5.5446,-5.5703,-5.5703,-5.5703,-5.5703,-5.5434,-5.2068,-5.0702,-5.0702,-5.0702,-5.0702,-5.0702,-5.0702,-4.9971,-4.8971,-4.8971,-4.974,-5.0702,-5.0702,-5.2202,-5.4222,-5.5357,-5.5703,-5.5703,-5.5703,-5.5703,-5.5703,-5.5703,-5.5703,-5.5703,-5.5703,-5.4549,-5.3491,-5.3606,-5.251,-5.151,-5.151,-5.1068,-5.0702,-5.0702,-4.9721,-4.8586,-4.7471,-4.6336,-4.5586,-4.5586,-4.5336,-4.5163,-4.5163,-4.4913,-4.4759,-4.4759,-4.3951,-4.3239,-4.2701,-4.1585,-4.07,-4.0123,-3.9796,-3.9796,-4.0085,-4.0085,-4.0219,-4.0489,-4.0489,-4.0489,-4.0489,-4.0489,-4.0796,-3.4843,-3.7971,-4.1091,-4.2886,-4.4261,-4.5256,-4.5528,-4.6135,-4.5973,-4.3769,-4.2625,-4.1446,-3.9548,-3.9191,-3.9282,-3.9542,-4.1944,-4.3773,-4.3828,-4.4745,-4.4947,-4.3736,-4.3993,0.0,0.0,0.0,0.0,-4.5461,-4.6489,-4.7462,-4.8269,-4.9903,-5.1169,-5.1958,-5.2784,-5.3206,-5.3206,-5.3206,-5.3777,-5.4952,-5.5446,-5.5703,-5.5703,-5.5703,-5.5703,-5.5626,-5.4434,-5.3914,-5.3741,-5.1587,-5.0702,-5.0702,-5.0702,-5.0702,-5.0702,-5.0702,-5.0702,-5.0702,-5.0702,-5.0702,-5.0702,-5.0702,-5.2145,-5.4126,-5.5338,-5.5703,-5.5703,-5.5703,-5.5703,-5.5703,-5.5703,-5.5703,-5.5703,-5.5703,-5.4914,-5.4241,-5.4453,-5.3126,-5.1914,-5.1914,-5.1241,-5.0702,-5.0702,-4.9721,-4.8471,-4.7105,-4.6163,-4.5586,-4.5586,-4.5586,-4.5586,-4.5586,-4.5586,-4.5586,-4.5586,-4.4797,-4.3951,-4.3143,-4.2277,-4.1412,-4.0527,-4.0489,-4.0642,-4.095,-4.095,-4.095,-4.0969,-4.1277,-4.1258,-4.0969,-4.1277,-4.172,-3.8395,-4.1156,-4.3517,-4.5359,-4.6139,-4.6243,-4.5388,-4.5429,-4.4508,-4.0606,-3.9935,-3.9132,0.0,0.0,-3.5856,-3.6689,-3.8629,-4.0561,-4.2194,-4.2525,-4.3424,0.0,0.0,0.0,0.0,0.0,0.0,-4.4892,0.0,-4.7517,-4.8324,-4.9958,-5.1206,-5.1977,-5.2784,-5.3206,-5.3206,-5.3206,-5.3977,-5.5577,-5.5577,-5.5621,-5.5703,-5.5703,-5.5703,-5.5511,-5.2337,-5.0856,-5.0702,-5.0702,-5.0702,-5.0702,-5.0702,-5.0702,-5.0702,-5.0702,-5.0702,-5.0702,-5.0702,-5.0702,-5.0702,-5.0702,-5.0818,-5.1548,-5.4741,-5.5703,-5.5703,-5.5703,-5.5703,-5.5703,-5.5703,-5.5703,-5.5703,-5.5703,-5.5126,-5.4549,-5.4549,-5.3203,-5.1972,-5.1972,-5.1279,-5.0702,-5.0741,-4.9317,-4.7894,-4.7086,-4.622,-4.5643,-4.5605,-4.5586,-4.5586,-4.5586,-4.5586,-4.5586,-4.5586,-4.4836,-4.3989,-4.3143,-4.2316,-4.1489,-4.0585,-4.0508,-4.0931,-4.1854,-4.1816,-4.1816,-4.1873,-4.2701,-4.2681,-4.1893,-4.272,-4.3124,-4.1958,-4.4589,-4.7002,-4.7516,-4.726,-4.6618,-4.5404,-4.3433,-4.1324,-3.9265,-3.6163,-3.3552,0.0,0.0,0.0,-3.5765,-3.9031,0.0,-4.3828,-4.5645,0.0,0.0,0.0,-4.6764,-4.5975,-4.7553,0.0,0.0,-4.7425,-4.8379,-4.9205,-5.0802,-5.1775,-5.1977,-5.2784,-5.3206,-5.3206,-5.3206,-5.3422,-5.3833,-5.3833,-5.4478,-5.5703,-5.5703,-5.5703,-5.5645,-5.4799,-5.301,-5.0702,-5.0702,-5.0702,-5.0702,-5.0702,-5.0702,-5.0702,-5.0702,-5.0702,-5.0702,-5.0702,-5.0702,-5.0702,-5.0702,-5.2375,-5.4568,-5.5434,-5.5703,-5.5703,-5.5703,-5.5703,-5.5703,-5.5703,-5.5703,-5.5703,-5.5703,-5.553,-5.5395,-5.5395,-5.4068,-5.2876,-5.2876,-5.1683,-5.0894,-5.1491,-5.0183,-4.8779,-4.7932,-4.7086,-4.6336,-4.5682,-4.5586,-4.5586,-4.5586,-4.5586,-4.5586,-4.5586,-4.5393,-4.4643,-4.3181,-4.2893,-4.2374,-4.1508,-4.0835,-4.1219,-4.2739,-4.2143,-4.2124,-4.2777,-4.2989,-4.2989,-4.2777,-4.3008,-4.3412,-4.5645,-4.7755,-4.9315,-4.8948,-4.8251,-4.6964,-4.4453,-4.2105,-3.9479,-3.5892,-3.2808,0.0,0.0,0.0,0.0,0.0,0.0,0.0,-4.3259,-4.5039,-4.6562,0.0,-4.8049,0.0,-4.8067,-4.9297,-4.9866,0.0,-4.9352,-4.9609,-5.0086,-5.1316,-5.216,-5.2509,-5.2968,-5.3206,-5.3206,-5.3206,-5.3206,-5.3206,-5.3206,-5.3663,-5.4602,-5.4602,-5.4996,-5.5684,0.0,-5.4302,-5.2799,-5.1552,-5.1063,-5.1025,-5.0796,-5.0702,-5.0702,-5.0702,-5.0702,-5.0702,-5.0702,-5.0702,-5.0702,-5.0702,-5.2972,-5.5703,-5.5703,-5.5703,-5.5703,-5.5703,-5.5703,-5.5703,-5.5703,-5.5703,-5.5703,-5.5703,-5.5703,-5.5703,-5.5703,-5.4684,-5.3664,-5.328,-5.2125,-5.1375,-5.1837,-5.051,-4.9221,-4.874,-4.7971,-4.7124,-4.6278,-4.5836,-4.5586,-4.5586,-4.5586,-4.5586,-4.5586,-4.5586,-4.5028,-4.3701,-4.3624,-4.3258,-4.2412,-4.1893,-4.2258,-4.3605,-4.3143,-4.3143,-4.3624,-4.4008,-4.3989,-4.3643,-4.4008,-4.4432,-4.9077,-5.0508,-5.0894,-4.9878,-4.8833,-4.7,-4.2993,-4.0688,-3.7747,-3.1899,0.0,0.0,-2.6493,0.0,-2.7582,-3.2146,0.0,-4.0565,-4.2093,-4.3318,-4.548,-4.9481,-4.926,-4.9315,-5.0674,-5.0986,-5.1371,-5.1958,-5.1444,-5.1132,-5.1132,-5.1775,-5.2472,-5.3188,-5.3206,-5.3206,-5.3206,-5.3206,-5.3206,-5.3206,-5.3206,-5.3206,-5.3206,-5.3206,-5.3977,-5.5331,0.0,0.0,-5.5202,-5.2894,-5.1782,-5.1524,-5.1044,-5.1065,-5.1298,-5.0856,-5.0702,-5.0702,-5.0702,-5.0702,-5.0702,-5.0702,-5.2664,-5.503,-5.503,-5.5338,-5.5703,-5.5703,-5.5703,-5.5703,-5.5703,-5.5703,-5.5703,-5.5703,-5.5703,-5.5703,-5.5703,-5.5068,-5.428,-5.353,-5.2683,-5.2125,-5.2241,-5.0933,-4.9837,-4.9606,-4.8933,-4.8105,-4.7182,-4.6317,-4.572,-4.5605,-4.5586,-4.5586,-4.5586,-4.5586,-4.522,-4.4355,-4.4297,-4.3989,-4.3297,-4.3162,-4.3528,-4.4451,-4.4355,-4.4355,-4.447,-4.522,-4.5201,-4.4489,-4.524,-4.5586,-5.1041,-5.2179,-5.2291,-5.0275,-4.823,-4.5703,-4.1734,-3.7011,0.0,0.0,0.0,-2.5462,-2.5686,-2.6179,0.0,-3.3206,0.0,0.0,0.0,0.0,-4.7525,0.0,0.0,0.0,0.0,0.0,0.0,0.0,0.0,-5.2784,-5.2784,-5.2931,-5.3078,-5.3206,-5.3206,-5.3206,-5.3206,-5.3206,-5.3206,-5.3206,-5.3206,-5.3206,-5.3206,-5.3206,-5.3359,-5.3623,-5.3502,0.0,-5.3683,-5.4113,-5.3328,-5.1816,-5.1716,-5.2972,-5.4491,-5.1722,-5.0702,-5.0702,-5.0702,-5.0702,-5.0702,-5.0702,-5.1087,-5.1568,-5.1568,-5.3491,-5.5703,-5.5703,-5.5703,-5.5703,-5.5703,-5.5703,-5.5703,-5.5703,-5.5703,-5.5703,-5.5703,-5.5068,-5.4453,-5.4299,-5.3568,-5.3203,-5.3914,-5.3203,-5.2068,-5.0683,-5.0337,-4.9683,-4.8105,-4.7182,-4.6394,-4.5682,-4.5586,-4.5586,-4.5586,-4.5586,-4.522,-4.4355,-4.4297,-4.4239,-4.4105,-4.3451,-4.3816,-4.5336,-4.4662,-4.4643,-4.5355,-4.5528,-4.5509,-4.5374,-4.5528,-4.5586,-5.0984,-5.1795,-5.1658,-4.9758,-4.7241,-4.3996,-3.9248,0.0,0.0,0.0,0.0,-2.4036,-2.4391,0.0,0.0,0.0,0.0,0.0,0.0,0.0,0.0,0.0,0.0,0.0,0.0,0.0,0.0,0.0,0.0,-5.4087,-5.3243,-5.3206,-5.3206,-5.3206,-5.3206,-5.3206,-5.3206,-5.3206,-5.3206,-5.3206,-5.3206,-5.3206,-5.3206,-5.3206,-5.3206,-5.3206,-5.3206,0.0,-5.323,-5.3777,-5.3718,-5.3214,-5.2729,-5.3302,-5.4082,-5.1603,-5.0702,-5.0702,-5.0702,-5.0159,-4.9589,-5.0421,-5.0702,-5.1029,-5.276,-5.4414,-5.5703,-5.5703,-5.5703,-5.5703,-5.5703,-5.5703,-5.5703,-5.5703,-5.5703,-5.5703,-5.5703,-5.5395,-5.5126,-5.5126,-5.4453,-5.401,-5.4434,-5.378,-5.2933,-5.2125,-5.1606,-5.0875,-4.9606,-4.8721,-4.7702,-4.6413,-4.5874,-4.5586,-4.5586,-4.5586,-4.5413,-4.4989,-4.497,-4.497,-4.497,-4.4605,-4.4778,-4.5566,-4.5182,-4.5182,-4.5586,-4.5586,-4.5586,-4.5586,-4.5586,-4.5586,-5.011,-5.0838,-5.0714,-4.9023,-4.6164,-4.2414,-3.7038,-3.2931,0.0,0.0,-2.3556,-2.3207,-2.3359,0.0,0.0,0.0,0.0,0.0,0.0,0.0,0.0,0.0,0.0,0.0,0.0,0.0,0.0,0.0,0.0,0.0,-5.3628,-5.3555,-5.3445,-5.3225,-5.3206,-5.3206,-5.3206,-5.3206,-5.3206,-5.3206,-5.3206,-5.3206,-5.3206,-5.3206,-5.3206,-5.3206,-5.3206,0.0,0.0,-5.3206,-5.3584,-5.4137,-5.3462,-5.3206,-5.295,-5.0922,-5.0183,-5.0183,-5.0183,-4.9356,-4.8513,-4.9754,-5.0421,-5.1318,-5.4684,-5.5703,-5.5703,-5.5703,-5.5703,-5.5703,-5.5703,-5.5703,-5.5703,-5.5703,-5.5703,-5.5703,-5.5703,-5.5703,-5.5703,-5.5703,-5.5184,-5.4761,-5.4761,-5.4122,-5.3539,-5.3347,-5.267,-5.1861,-5.0928,-4.9984,-4.8891,-4.7587,-4.649,-4.5797,-4.5605,-4.5586,-4.5586,-4.5586,-4.5586,-4.5586,-4.5586,-4.5586,-4.5586,-4.5586,-4.5586,-4.5586,-4.5586,-4.5586,-4.5586,-4.5586,-4.5586,-4.5586,-4.8848,-5.0075,-5.0558,-4.8451,-4.5177,-4.1192,-3.6288,0.0,0.0,0.0,-2.3162,-2.2615,-2.3274,-2.3494,0.0,0.0,0.0,0.0,0.0,0.0,0.0,0.0,0.0,0.0,0.0,0.0,0.0,0.0,0.0,0.0,-5.4675,-5.4638,-5.4197,-5.3243,-5.3206,-5.3206,-5.3206,-5.3206,-5.3206,-5.3206,-5.3206,-5.3206,-5.3206,-5.3206,-5.3206,-5.3206,-5.3206,0.0,0.0,-5.3206,-5.3248,-5.3295,-5.3248,-5.3206,-5.2803,-4.9674,-4.8513,-4.8513,-4.8513,-4.8421,-4.8326,-4.8477,-4.9504,-5.1318,-5.4684,-5.5703,-5.5703,-5.5703,-5.5703,-5.5703,-5.5703,-5.5703,-5.5703,-5.5703,-5.5703,-5.5703,-5.5703,-5.5703,-5.5703,-5.5703,-5.5645,-5.5588,-5.5588,-5.5227,-5.4664,-5.3856,-5.3376,-5.2655,-5.1402,-5.018,-4.9333,-4.9182,-4.774,-4.6471,-4.5663,-4.5586,-4.5586,-4.5586,-4.5586,-4.5586,-4.5586,-4.5586,-4.5586,-4.5586,-4.5586,-4.5586,-4.5586,-4.5586,-4.5586,-4.5586,-4.5586,-4.5586,-4.6079,-4.7738,-4.8178,-4.6884,-4.2723,-3.8031,-3.4277,0.0,0.0,-2.3369,-2.2609,-2.2395,-2.2682,-2.346,-2.4618,0.0,0.0,0.0,0.0,0.0,0.0,0.0,0.0,0.0,0.0,0.0,0.0,0.0,0.0,0.0,-5.6667,-5.4895,-5.4087,-5.4638,-5.372,-5.3206,-5.3206,-5.3206,-5.3206,-5.3206,-5.3206,-5.3206,-5.3206,-5.3206,-5.3206,-5.3206,-5.3206,0.0,0.0,-5.3206,-5.3206,-5.3206,-5.3206,-5.3206,-5.2803,-4.9517,-4.8306,-4.8306,-4.8306,-4.8306,-4.8306,-4.8306,-4.8728,-4.949,-5.0836,-5.3324,-5.5703,-5.5703,-5.5703,-5.5703,-5.5703,-5.5703,-5.5703,-5.5703,-5.5703,-5.5703,-5.5703,-5.5703,-5.5703,-5.5703,-5.5703,-5.5703,-5.5703,-5.5375,-5.4974,-5.4631,-5.3783,-5.3025,-5.2513,-5.1129,-4.9986,-4.9461,-4.8155,-4.7258,-4.7106,-4.7105,-4.6894,-4.6413,-4.6374,-4.6144,-4.5605,-4.5586,-4.5586,-4.5586,-4.5586,-4.5586,-4.5586,-4.5586,-4.5586,-4.5586,-4.5586,-4.5586,-4.2152,-4.444,-4.5669,-4.5162,-4.0696,-3.5707,0.0,0.0,0.0,-2.2615,-2.231,-2.231,-2.231,-2.3139,-2.4049,0.0,0.0,0.0,0.0,0.0,0.0,0.0,0.0,0.0,0.0,0.0,0.0,0.0,0.0,0.0,0.0,-5.3666,-5.2672,-5.4236,-5.3608,-5.3261,-5.3206,-5.3206,-5.3206,-5.3206,-5.3206,-5.3206,-5.3206,-5.3206,-5.3206,-5.3206,0.0,0.0,0.0,-5.3206,-5.3206,-5.3206,-5.3206,-5.3206,-5.2931,-5.0618,-4.9132,-4.8306,-4.8306,-4.8306,-4.8306,-4.8306,-4.8306,-4.8489,-4.9462,-5.2177,-5.4941,-5.4941,-5.5193,-5.5489,-5.5512,-5.5599,-5.5703,-5.5703,-5.5703,-5.5703,-5.5703,-5.5703,-5.5703,-5.5703,-5.5703,-5.5703,-5.5703,-5.5282,-5.4924,-5.4924,-5.3943,-5.3128,-5.3001,-5.1884,-5.0853,-5.0207,-4.906,-4.8232,-4.795,-4.803,-4.7855,-4.7298,-4.7259,-4.699,-4.6355,-4.6105,-4.597,-4.597,-4.572,-4.5586,-4.5586,-4.5586,-4.5586,-4.5586,-4.5586,-4.5586,-3.707,-4.0285,-4.3453,-4.3453,-3.9512,-3.5047,0.0,0.0,0.0,-2.2615,-2.231,-2.231,-2.231,-2.2327,-2.266,-2.3739,0.0,0.0,0.0,0.0,0.0,0.0,0.0,0.0,0.0,0.0,0.0,0.0,0.0,0.0,0.0,-5.0689,-4.9698,-5.1104,-5.2697,-5.3405,-5.3182,-5.3206,-5.3206,-5.3206,-5.3206,-5.3206,-5.3206,-5.3206,-5.3206,0.0,0.0,0.0,0.0,-5.3206,-5.3206,-5.3206,-5.3206,-5.3206,-5.3206,-5.317,-5.1096,-4.8306,-4.8306,-4.8306,-4.8306,-4.8306,-4.8306,-4.8912,-5.2179,-5.3188,-5.3248,-5.3248,-5.4032,-5.4952,-5.5061,-5.5399,-5.5703,-5.5703,-5.5703,-5.5703,-5.5703,-5.5703,-5.5703,-5.5703,-5.5703,-5.5703,-5.5703,-5.5034,-5.4503,-5.4503,-5.3758,-5.3046,-5.2549,-5.2188,-5.1952,-5.1889,-5.0792,-4.939,-4.7634,-4.7873,-4.8105,-4.8086,-4.8086,-4.8086,-4.8067,-4.7317,-4.6894,-4.6894,-4.6028,-4.5586,-4.5586,-4.5586,-4.5586,-4.5586,-4.5586,-4.5586,-3.3134,-3.5178,-3.6477,-3.6226,-3.3177,-2.9897,-2.8406,0.0,0.0,-2.2412,-2.231,-2.231,-2.231,-2.2716,-2.359,-2.5201,-2.6392,0.0,0.0,0.0,0.0,0.0,0.0,0.0,0.0,0.0,0.0,0.0,0.0,0.0,0.0,-5.0811,-5.1527,-5.2625,-5.121,-5.1346,-5.3372,-5.2315,-5.226,-5.3206,-5.3206,-5.3206,-5.317,-5.2068,0.0,0.0,0.0,0.0,0.0,-5.3206,-5.3206,-5.3206,-5.3206,-5.2546,-5.1701,-5.2803,-5.1132,-4.8306,-4.8306,-4.8306,-4.8306,-4.8306,-4.9829,-5.1848,-5.2894,-5.3206,-5.3272,-5.3624,-5.4369,-5.5034,-5.5088,-5.5399,-5.5703,-5.5703,-5.6145,-5.6588,-5.6588,-5.7049,-5.73,-5.6703,-5.7069,-5.728,-5.6684,-5.6161,-5.5798,-5.5798,-5.4543,-5.357,-5.3405,-5.2576,-5.1989,-5.1971,-5.0841,-5.0102,-5.0089,-4.9706,-4.9326,-4.901,-4.899,-4.8606,-4.7728,-4.7439,-4.7038,-4.6483,-4.6751,-4.6472,-4.5586,-4.6201,-4.649,-4.649,-4.649,-4.6778,0.0,-3.1021,-3.2141,-3.2186,-2.9748,0.0,0.0,0.0,0.0,0.0,0.0,-2.249,-2.2624,-2.3013,-2.3829,-2.5464,-2.6532,0.0,0.0,0.0,0.0,0.0,0.0,0.0,0.0,0.0,0.0,0.0,0.0,0.0,0.0,-5.0714,-5.1597,-5.2143,-5.0112,-5.0026,-5.214,-5.0934,-5.1086,-5.268,-5.3042,-5.3206,-5.3133,-5.0894,0.0,0.0,0.0,0.0,0.0,-5.3206,-5.3206,-5.3206,-5.3206,-5.2601,-5.1738,-5.1922,-5.0435,-4.8306,-4.8306,-4.8306,-4.8306,-4.8306,-5.0251,-5.2601,-5.2601,-5.2894,-5.3272,-5.3586,-5.4134,-5.4652,-5.4819,-5.5186,-5.5512,-5.5662,-5.6107,-5.6588,-5.6915,-5.7434,-5.7742,-5.753,-5.7934,-5.803,-5.7146,-5.6682,-5.6297,-5.5973,-5.4868,-5.4013,-5.3814,-5.3159,-5.2625,-5.2495,-5.1466,-5.1057,-5.1714,-5.0608,-5.0012,-5.0317,-4.9767,-4.9215,-4.8726,-4.8099,-4.7604,-4.7247,-4.7419,-4.7171,-4.6528,-4.7086,-4.7355,-4.7355,-4.7355,-4.7625,0.0,0.0,0.0,0.0,0.0,0.0,0.0,0.0,0.0,0.0,0.0,0.0,0.0,-2.3313,-2.3732,-2.5067,-2.5967,0.0,0.0,0.0,0.0,0.0,0.0,0.0,0.0,0.0,0.0,0.0,0.0,0.0,0.0,-5.0426,-5.0241,-5.0,-4.9355,-4.93,-4.9919,-4.9231,-4.981,-5.1611,-5.2463,-5.2993,-5.3096,-4.9811,0.0,0.0,0.0,0.0,0.0,-5.3206,-5.3206,-5.3206,-5.3206,-5.3188,-5.2894,-5.0949,-4.9499,-4.8471,-4.8343,-4.8306,-4.8324,-4.8398,-4.9774,-5.1408,-5.1573,-5.2362,-5.3206,-5.3206,-5.3484,-5.3905,-5.4322,-5.4817,-5.5281,-5.5673,-5.5816,-5.6107,-5.6992,-5.7165,-5.7415,-5.8223,-5.8434,-5.8204,-5.7319,-5.6855,-5.6343,-5.5542,-5.496,-5.4482,-5.4035,-5.3888,-5.3663,-5.3254,-5.2514,-5.2161,-5.2512,-5.0759,-5.0274,-5.1782,-5.0436,-4.9927,-5.0727,-4.9173,-4.8472,-4.8819,-4.799,-4.7769,-4.8202,-4.8125,-4.8125,-4.8202,-4.8202,-4.824,-2.3038,0.0,-2.4079,-2.3897,0.0,0.0,0.0,0.0,0.0,0.0,0.0,0.0,0.0,0.0,0.0,0.0,0.0,0.0,0.0,0.0,0.0,0.0,0.0,0.0,0.0,0.0,0.0,0.0,0.0,0.0,0.0,-5.0148,-4.9862,-4.903,-4.8855,-4.8927,-4.9256,-4.8344,-4.8447,-4.9664,-4.9747,-5.0976,-5.3096,-4.9811,0.0,0.0,0.0,0.0,-5.3206,-5.3206,-5.3206,-5.3206,-5.3206,-5.2821,-5.2307,-5.2417,-5.1499,-5.0031,-4.8746,-4.8306,-4.8453,-4.9315,-4.937,-4.9444,-5.1334,-5.2509,-5.3206,-5.3206,-5.3484,-5.3814,-5.3941,-5.5032,-5.6107,-5.6231,-5.6985,-5.7915,-5.8742,-5.8915,-5.8973,-5.9184,-5.9762,-5.9935,-5.905,-5.885,-5.8707,-5.8515,-5.7034,-5.5922,-5.5816,-5.4631,-5.3777,-5.3663,-5.2662,-5.2275,-5.2987,-5.1714,-5.1181,-5.1857,-5.0964,-5.0623,-5.114,-4.9908,-4.923,-4.9268,-4.8411,-4.8337,-4.9086,-4.8432,-4.8432,-4.9086,-4.9086,-4.9452,-2.231,-2.2547,-2.2743,-2.2488,-2.2639,-2.2743,0.0,0.0,0.0,0.0,0.0,0.0,0.0,0.0,0.0,0.0,0.0,0.0,0.0,0.0,0.0,0.0,0.0,0.0,0.0,0.0,0.0,0.0,0.0,0.0,0.0,-4.9752,-4.9603,-4.8735,-4.9012,-4.9074,-4.8843,-4.8043,-4.8043,-4.8843,-4.8766,-4.9561,-5.1038,-4.9962,-5.0086,0.0,0.0,0.0,-5.3206,-5.3206,-5.3206,-5.3206,-5.3206,-5.2931,-5.2564,-5.2619,-5.2105,-5.1169,-4.9903,-4.8948,-4.8581,-5.0196,-4.9976,-4.9426,-5.1261,-5.2472,-5.3206,-5.3206,-5.3359,-5.3565,-5.3851,-5.4402,-5.5319,-5.6893,-5.7992,-5.8646,-5.855,-5.9031,-5.9627,-6.0012,-6.0146,-6.005,-5.9588,-5.9184,-5.8954,-5.8954,-5.7987,-5.7207,-5.6965,-5.5792,-5.49,-5.4678,-5.3535,-5.2985,-5.3447,-5.2691,-5.227,-5.2492,-5.1409,-5.1076,-5.1877,-5.0923,-5.0546,-5.0873,-5.0588,-5.0491,-5.0548,-5.0067,-4.9894,-4.999,-4.999,-5.024,-2.231,-2.3088,-2.3812,-2.3413,-2.3464,-2.3646,0.0,0.0,0.0,0.0,0.0,0.0,0.0,0.0,0.0,0.0,0.0,0.0,0.0,0.0,0.0,0.0,0.0,0.0,0.0,0.0,0.0,0.0,0.0,0.0,0.0,-4.9387,-4.9361,-4.8656,-4.9189,-4.9189,-4.8656,-4.798,-4.8015,-4.8717,-4.8635,-4.858,-4.8629,-4.9846,-5.0857,0.0,0.0,0.0,-5.3206,-5.3206,-5.3248,-5.3295,-5.3295,-5.3295,-5.3222,-5.2522,-5.2242,-5.205,-5.1224,-4.9774,-4.8636,-5.0692,-5.0618,-4.9976,-5.1224,-5.2197,-5.2894,-5.3133,-5.3206,-5.3295,-5.374,-5.3716,-5.4331,-5.7301,-5.856,-5.8846,-5.7977,-5.8635,-5.9653,-6.0627,-6.0108,-5.955,-5.9685,-5.9031,-5.8531,-5.8665,-5.8569,-5.8342,-5.7932,-5.7126,-5.6369,-5.5851,-5.4803,-5.4,-5.3814,-5.3484,-5.3295,-5.3295,-5.1897,-5.1526,-5.2554,-5.2064,-5.2076,-5.269,-5.3018,-5.2837,-5.2106,-5.1972,-5.1548,-5.0875,-5.076,-5.0663,-2.231,-2.4205,-2.5671,-2.3381,-2.3819,-2.4743,0.0,0.0,0.0,0.0,0.0,0.0,0.0,0.0,0.0,0.0,0.0,0.0,0.0,0.0,0.0,0.0,0.0,0.0,0.0,0.0,0.0,0.0,0.0,0.0,0.0,-4.9559,-4.923,-4.8379,-4.844,-4.848,-4.8342,-4.7854,-4.7982,-4.87,-4.7957,-4.7958,-4.8593,-4.8662,-4.9756,-5.1591,0.0,-5.183,-5.3206,-5.3206,-5.3381,-5.372,-5.372,-5.372,-5.3702,-5.3572,-5.332,-5.2876,-5.1848,-5.0086,-4.8526,-4.9829,-4.9481,-4.8948,-5.0986,-5.1408,-5.1463,-5.2839,-5.3206,-5.3206,-5.3295,-5.4311,-5.5566,-5.6462,-5.7845,-5.9068,-5.9578,-5.9292,-5.9278,-6.0561,-6.0108,-5.9723,-6.0473,-5.9896,-5.9569,-6.03,-5.9781,-5.9277,-5.9211,-5.8138,-5.7128,-5.6368,-5.5769,-5.4969,-5.3907,-5.374,-5.372,-5.372,-5.2828,-5.2413,-5.2585,-5.3136,-5.334,-5.3121,-5.3182,-5.3126,-5.301,-5.226,-5.1856,-5.1702,-5.101,-5.0523,-2.231,-2.3579,-2.4754,-2.4109,-2.5756,-2.7317,0.0,0.0,0.0,0.0,0.0,0.0,0.0,0.0,0.0,0.0,0.0,0.0,0.0,0.0,0.0,0.0,0.0,0.0,0.0,0.0,0.0,0.0,0.0,0.0,0.0,0.0,-4.871,-4.8324,-4.8306,-4.8306,-4.8306,-4.8078,-4.8168,-4.8467,-4.7728,-4.7741,-4.846,-4.8828,-4.9793,-5.1187,0.0,-5.2232,-5.3545,-5.3545,-5.3796,-5.4153,-5.3905,-5.3814,-5.3777,-5.3584,-5.2991,-5.227,-5.1775,-5.0563,-4.9297,-4.9829,-5.005,-5.038,-5.1995,-5.2307,-5.2252,-5.3004,-5.3206,-5.3206,-5.3206,-5.4396,-5.5932,-5.7004,-5.8095,-5.9009,-5.937,-5.929,-5.938,-6.0261,-5.9721,-5.9466,-6.0604,-6.0089,-5.98,-6.0666,-6.0454,-6.0204,-6.0204,-5.9278,-5.8489,-5.8106,-5.6881,-5.5841,-5.5259,-5.4566,-5.4083,-5.3814,-5.3894,-5.3954,-5.3944,-5.4503,-5.4745,-5.4549,-5.4549,-5.4337,-5.3895,-5.3029,-5.2375,-5.1895,-5.1068,-5.0483,-2.2415,-2.3187,-2.4189,0.0,0.0,0.0,0.0,0.0,0.0,0.0,0.0,0.0,0.0,0.0,0.0,0.0,0.0,0.0,0.0,0.0,0.0,0.0,0.0,0.0,0.0,0.0,0.0,0.0,0.0,0.0,0.0,0.0,-4.8306,-4.8306,-4.8306,-4.8306,-4.8306,-4.8306,-4.8306,-4.8306,-4.7838,-4.7838,-4.8324,-4.8985,-4.9738,-5.0545,-5.1235,-5.2284,-5.3516,-5.3625,-5.3984,-5.4452,-5.4118,-5.3924,-5.374,-5.3359,-5.2692,-5.194,-5.1701,-5.1059,-5.0417,-5.0674,-5.0967,-5.1481,-5.2803,-5.3206,-5.3206,-5.3206,-5.3206,-5.3206,-5.3206,-5.4106,-5.5464,-5.7207,-5.7987,-5.842,-5.8799,-5.9065,-5.9389,-5.9996,-5.9398,-5.9224,-6.058,-6.0089,-5.98,-6.0666,-6.08,-6.08,-6.08,-6.0223,-5.9723,-5.9511,-5.8067,-5.7008,-5.6717,-5.5337,-5.4557,-5.4678,-5.495,-5.516,-5.5256,-5.5554,-5.5703,-5.5703,-5.5703,-5.5395,-5.478,-5.3914,-5.3068,-5.2183,-5.1356,-5.0656,-2.2686,-2.424,-2.5663,-2.4689,0.0,0.0,0.0,0.0,0.0,0.0,0.0,0.0,0.0,0.0,0.0,0.0,0.0,0.0,0.0,0.0,0.0,0.0,0.0,0.0,0.0,0.0,0.0,0.0,0.0,0.0,0.0,0.0,0.0,-4.8306,-4.8306,-4.8306,-4.8306,-4.8306,-4.8306,-4.8306,-4.8267,-4.8267,-4.8306,-4.8361,-4.8875,-4.9703,-5.0083,-5.1171,-5.2731,-5.309,-5.3723,-5.4503,-5.4471,-5.4187,-5.374,-5.3359,-5.317,-5.2949,-5.1958,-5.1555,-5.1665,-5.2656,-5.1683,-5.0508,-5.2582,-5.3206,-5.3206,-5.3206,-5.3206,-5.3206,-5.3206,-5.3298,-5.3904,-5.5996,-5.6536,-5.6996,-5.8409,-5.8735,-5.9009,-5.9916,-5.9398,-5.9224,-6.058,-6.0089,-5.98,-6.0666,-6.08,-6.08,-6.08,-6.0742,-6.0396,-5.9588,-5.9373,-5.8813,-5.7622,-5.5659,-5.5302,-5.7216,-5.5919,-5.5282,-5.564,-5.5684,-5.5703,-5.5703,-5.5703,-5.5665,-5.5607,-5.4799,-5.3953,-5.3087,-5.2222,-5.1212,-2.2972,-2.4611,-2.6214,0.0,0.0,0.0,0.0,0.0,0.0,0.0,0.0,0.0,0.0,0.0,0.0,0.0,0.0,0.0,0.0,0.0,0.0,0.0,0.0,0.0,0.0,0.0,0.0,0.0,0.0,0.0,0.0,0.0,0.0,-4.8306,-4.8306,-4.8306,-4.8306,-4.8306,-4.8306,-4.8306,-4.8306,-4.8306,-4.8306,-4.8306,-4.8783,-4.963,-4.9711,-5.088,-5.2565,-5.2236,-5.3053,-5.4471,-5.4187,-5.3479,-5.2721,-5.3088,-5.2894,-5.2399,-5.1977,-5.1848,-5.183,-5.1738,-5.1848,-5.2032,-5.216,-5.2674,-5.3206,-5.3206,-5.3206,-5.3206,-5.3206,-5.3573,-5.4161,-5.495,-5.5923,-5.6793,-5.7364,-5.7931,-5.8568,-5.9492,-5.9379,-5.9505,-6.0608,-6.0531,-6.0306,-6.0353,-6.0365,-6.0264,-5.9965,-5.9916,-5.9802,-5.946,-5.9206,-5.8802,-5.8092,-5.7302,-5.7181,-5.7977,-5.6429,-5.6034,-5.728,-5.6799,-5.6761,-5.7319,-5.678,-5.6511,-5.6511,-5.5164,-5.4337,-5.3991,-5.3106,-5.2324,-2.33,-2.4442,-2.5703,0.0,0.0,0.0,0.0,0.0,0.0,0.0,0.0,0.0,0.0,0.0,0.0,0.0,0.0,0.0,0.0,0.0,0.0,0.0,0.0,0.0,0.0,0.0,0.0,0.0,0.0,0.0,0.0,0.0,0.0,0.0,-4.8306,-4.8306,-4.8306,-4.8306,-4.8306,-4.8306,-4.8306,-4.8306,-4.8306,-4.8306,-4.8636,-4.9187,-4.9324,-5.0324,-5.1801,-5.1379,-5.2128,-5.3485,-5.3032,-5.2354,-5.172,-5.2527,-5.2307,-5.1683,-5.2197,-5.2197,-5.194,-5.1646,-5.2307,-5.3078,-5.2344,-5.2637,-5.3206,-5.3206,-5.3206,-5.3206,-5.3206,-5.361,-5.4087,-5.4344,-5.5445,-5.6492,-5.6767,-5.7428,-5.8282,-5.9231,-5.9389,-5.9709,-6.0647,-6.069,-6.0482,-6.0161,-5.9977,-5.9773,-5.9424,-5.9389,-5.9477,-5.9611,-5.9014,-5.8739,-5.9042,-5.8457,-5.8381,-5.905,-5.7473,-5.7069,-5.8261,-5.7723,-5.762,-5.8059,-5.7239,-5.6731,-5.6569,-5.5173,-5.4417,-5.4265,-5.3667,-5.3161,-2.3692,-2.371,0.0,0.0,0.0,0.0,0.0,0.0,0.0,0.0,0.0,0.0,0.0,0.0,0.0,0.0,0.0,0.0,0.0,0.0,0.0,0.0,0.0,0.0,0.0,0.0,0.0,0.0,0.0,0.0,0.0,0.0,0.0,0.0,-4.8306,-4.8306,-4.8306,-4.8306,-4.8306,-4.8306,-4.8306,-4.8306,-4.8306,-4.8306,-4.8306,-4.8344,-4.8709,-4.9381,-5.0232,-5.0635,-5.1042,-5.132,-5.0945,-5.0802,-5.0894,-5.1683,-5.1481,-5.1041,-5.2637,-5.2656,-5.2123,-5.2931,-5.3206,-5.3206,-5.3206,-5.3206,-5.3206,-5.3206,-5.3206,-5.3206,-5.3206,-5.3206,-5.3408,-5.4197,-5.5005,-5.5812,-5.662,-5.7428,-5.8282,-5.9212,-5.9389,-5.9677,-6.0622,-6.0411,-6.0084,-6.0103,-5.9677,-5.9389,-5.9408,-5.9408,-5.9578,-6.0025,-5.8957,-5.89,-6.0657,-5.8853,-5.8513,-6.0661,-5.9242,-5.8319,-5.8319,-5.8319,-5.8078,-5.7615,-5.6823,-5.6197,-5.5715,-5.4918,-5.4284,-5.3803,-5.383,-5.3604,-2.3996,0.0,0.0,0.0,0.0,0.0,0.0,0.0,0.0,0.0,0.0,0.0,0.0,0.0,0.0,0.0,0.0,0.0,0.0,0.0,0.0,0.0,0.0,0.0,0.0,0.0,0.0,0.0,0.0,0.0,0.0,0.0,0.0,0.0,-4.8306,-4.8306,-4.8306,-4.8306,-4.8306,-4.8306,-4.8306,-4.8306,-4.8306,-4.8306,-4.8306,-4.8306,-4.8421,-4.8974,-4.9842,-5.0509,-5.0195,-4.9325,-5.0404,-5.0453,-5.005,-5.0857,-5.1004,-5.0875,-5.1353,-5.1738,-5.2032,-5.227,-5.2747,-5.3206,-5.3206,-5.3206,-5.3206,-5.3206,-5.3206,-5.3206,-5.3206,-5.3206,-5.328,-5.35,-5.4601,-5.5666,-5.5886,-5.7024,-5.8168,-5.8814,-5.8913,-5.9121,-5.9709,-5.9709,-5.9511,-5.9139,-5.9009,-5.8814,-5.8461,-5.8418,-5.8591,-5.9084,-5.8765,-5.902,-6.0217,-5.9731,-5.9775,-6.0738,-6.0319,-6.005,-6.005,-5.9473,-5.9216,-5.9359,-5.852,-5.7859,-5.7393,-5.6315,-5.5674,-5.5538,-5.526,-5.5058,0.0,0.0,0.0,0.0,0.0,0.0,0.0,0.0,0.0,0.0,0.0,0.0,0.0,0.0,0.0,0.0,0.0,0.0,0.0,0.0,0.0,0.0,0.0,0.0,0.0,0.0,0.0,0.0,0.0,0.0,0.0,0.0,0.0,0.0,-4.8306,-4.8306,-4.8306,-4.8306,-4.8306,-4.8306,-4.8306,-4.8306,-4.8306,-4.8306,-4.8306,-4.8306,-4.8306,-4.86,-4.915,-4.9976,-4.9517,-4.8434,-4.9793,-4.9811,-4.9169,-5.0013,-5.0105,-4.9903,-5.0582,-5.1114,-5.1573,-5.1885,-5.2546,-5.3206,-5.3206,-5.3206,-5.3206,-5.3206,-5.3206,-5.3206,-5.3206,-5.3206,-5.3298,-5.361,-5.4656,-5.5684,-5.5996,-5.7079,-5.8142,-5.8591,-5.8694,-5.8835,-5.9319,-5.9267,-5.9009,-5.8735,-5.8568,-5.8307,-5.8024,-5.7997,-5.8168,-5.8673,-5.8694,-5.9084,-6.0025,-6.0103,-6.0311,-6.0757,-6.08,-6.08,-6.08,-6.03,-6.0041,-6.0084,-5.9264,-5.86,-5.8144,-5.7081,-5.6511,-5.6328,-5.6078,-5.5881,0.0,0.0,0.0,0.0,0.0,0.0,0.0,0.0,0.0,0.0,0.0,0.0,0.0,0.0,0.0,0.0,0.0,0.0,0.0,0.0,0.0,0.0,0.0,0.0,0.0,0.0,0.0,0.0,0.0,0.0,0.0,0.0,0.0,-4.8196,-4.8196,-4.8196,-4.8196,-4.8122,-4.8159,0.0,-4.8159,-4.8159,-4.8306,-4.8306,-4.8306,-4.8306,-4.8306,-4.8306,-4.8379,-4.9224,-4.9077,-4.8398,-4.9242,-4.9058,-4.8398,-4.9187,-4.8967,-4.8526,-5.005,-5.0618,-5.082,-5.1628,-5.2435,-5.3115,-5.3188,-5.3206,-5.3206,-5.3206,-5.3206,-5.3206,-5.3206,-5.3206,-5.3427,-5.4308,-5.506,-5.5812,-5.6638,-5.7428,-5.8142,-5.8549,-5.8632,-5.8756,-5.9195,-5.8913,-5.8632,-5.8632,-5.8282,-5.7997,-5.7997,-5.7997,-5.8168,-5.8591,-5.8632,-5.9009,-5.9965,-6.0025,-6.0264,-6.0757,-6.08,-6.08,-6.08,-6.08,-6.0578,-6.0103,-5.9388,-5.8764,-5.8329,-5.7546,-5.6922,-5.6526,-5.6553,-5.6256,0.0,0.0,0.0,0.0,0.0,0.0,0.0,0.0,0.0,0.0,0.0,0.0,0.0,0.0,0.0,0.0,0.0,0.0,0.0,0.0,0.0,0.0,0.0,0.0,0.0,0.0,0.0,0.0,0.0,0.0,0.0,0.0,0.0,-4.7388,-4.737,-4.737,-4.737,-4.6746,-4.7058,0.0,-4.7021,-4.7076,-4.8306,-4.8306,-4.8306,-4.8306,-4.8306,-4.8306,-4.8379,-4.9224,-4.9077,-4.8398,-4.9242,-4.9058,-4.8324,-4.8508,-4.8471,-4.8361,-4.871,-4.9279,-4.9976,-5.0802,-5.1591,-5.238,-5.3023,-5.3206,-5.3206,-5.3206,-5.3206,-5.3206,-5.3206,-5.3206,-5.3573,-5.4987,-5.5464,-5.5812,-5.6638,-5.7428,-5.8042,-5.8142,-5.8142,-5.8168,-5.8282,-5.8213,-5.8142,-5.8142,-5.807,-5.7997,-5.7997,-5.7997,-5.8024,-5.8142,-5.8142,-5.8526,-5.9458,-5.9526,-5.9916,-6.0757,-6.08,-6.08,-6.08,-6.08,-6.0578,-6.0103,-5.9912,-5.9619,-5.9125,-5.8653,-5.8034,-5.7357,-5.7723,-5.7098,0.0,0.0,0.0,0.0,0.0,0.0,0.0,0.0,0.0,0.0,0.0,0.0,0.0,0.0,0.0,0.0,0.0,0.0,0.0,0.0,0.0,0.0,0.0,0.0,0.0,0.0,0.0,0.0,0.0,0.0,0.0,-4.8306,-4.7939,-4.715,-4.7113,-4.6929,-4.6544,-4.6104,-4.6324,-4.715,-4.6305,-4.6342,-4.7186,-4.7957,-4.8306,-4.8306,-4.8306,-4.8545,-4.8985,-4.9829,-4.9664,-4.9003,-4.9848,-4.9407,-4.8306,-4.8306,-4.8306,-4.8306,-4.8306,-4.8875,-4.9646,-5.0086,-5.1022,-5.2068,-5.2509,-5.2894,-5.3206,-5.3206,-5.3206,-5.3206,-5.3206,-5.3206,-5.3518,-5.473,-5.5317,-5.5923,-5.7116,-5.7703,-5.7997,-5.7997,-5.7997,-5.7997,-5.7997,-5.7997,-5.7997,-5.7997,-5.7997,-5.7997,-5.7997,-5.7997,-5.7997,-5.7997,-5.7997,-5.8375,-5.9319,-5.9389,-5.9804,-6.0734,-6.08,-6.08,-6.08,-6.08,-6.069,-6.0437,-6.0456,-6.0291,-6.0055,-5.9852,-5.9319,-5.8515,-5.8769,-5.8184,0.0,0.0,0.0,0.0,0.0,0.0,0.0,0.0,0.0,0.0,0.0,0.0,0.0,0.0,0.0,0.0,0.0,0.0,0.0,0.0,0.0,0.0,0.0,0.0,0.0,0.0,0.0,0.0,0.0,0.0,-4.8104,-4.7976,-4.7535,-4.6728,-4.6709,-4.6379,-4.57,-4.5553,-4.5626,-4.5902,-4.5902,-4.5828,-4.5755,-4.737,-4.8104,-4.8104,-4.8251,-4.8783,-4.9646,-5.0472,-5.0325,-4.9664,-5.049,-4.9793,-4.8306,-4.8306,-4.8306,-4.8306,-4.8306,-4.8765,-4.9389,-4.9536,-5.049,-5.1628,-5.1903,-5.2454,-5.3023,-5.317,-5.3206,-5.3206,-5.3206,-5.3206,-5.3408,-5.4216,-5.5005,-5.5996,-5.7483,-5.7905,-5.7997,-5.7997,-5.7997,-5.7997,-5.7997,-5.7997,-5.7997,-5.7997,-5.7997,-5.7997,-5.7997,-5.7997,-5.7997,-5.7997,-5.7997,-5.8375,-5.9319,-5.9389,-5.9804,-6.0734,-6.08,-6.08,-6.08,-6.08,-6.08,-6.08,-6.08,-6.08,-6.08,-6.08,-6.0339,-5.9492,-5.9646,-5.9204,0.0,0.0,0.0,0.0,0.0,0.0,0.0,0.0,0.0,0.0,0.0,0.0,0.0,0.0,0.0,0.0,0.0,0.0,0.0,0.0,0.0,0.0,0.0,0.0,0.0,0.0,0.0,0.0,0.0,0.0,-4.7278,-4.6599,-4.5847,-4.5057,-4.5039,-4.4984,-4.4874,-4.4176,-4.4507,-4.5902,-4.5902,-4.5535,-4.4911,-4.6544,-4.7278,-4.7315,-4.8012,-4.8783,-4.9646,-5.0472,-5.0325,-4.9664,-5.049,-4.9793,-4.8306,-4.8306,-4.8306,-4.8306,-4.8306,-4.8379,-4.86,-4.9334,-4.9738,-5.016,-5.1573,-5.2068,-5.2307,-5.3004,-5.3206,-5.3206,-5.3206,-5.3206,-5.3408,-5.4216,-5.5005,-5.5849,-5.6767,-5.7519,-5.7997,-5.7997,-5.7997,-5.7997,-5.7997,-5.7997,-5.7997,-5.7997,-5.7997,-5.7997,-5.7997,-5.7997,-5.7997,-5.7997,-5.7997,-5.8375,-5.9319,-5.9389,-5.9804,-6.0734,-6.08,-6.08,-6.08,-6.08,-6.08,-6.08,-6.08,-6.08,-6.08,-6.08,-6.0339,-5.9511,-6.0262,-5.9781,0.0,0.0,0.0,0.0,0.0,0.0,0.0,0.0,0.0,0.0,0.0,0.0,0.0,0.0,0.0,0.0,0.0,0.0,0.0,0.0,0.0,0.0,0.0,0.0,0.0,0.0,0.0,0.0,0.0,-4.6434,-4.6434,-4.6085,-4.5535,-4.4745,-4.4709,-4.4488,-4.403,-4.3663,-4.3846,-4.4562,-4.4562,-4.4599,-4.4745,-4.5902,-4.6673,-4.715,-4.7957,-4.8783,-4.9609,-4.9976,-4.9903,-4.9627,-4.9976,-4.937,-4.8306,-4.8306,-4.8306,-4.8306,-4.8306,-4.8306,-4.8361,-4.8746,-4.9169,-4.9664,-5.0417,-5.1261,-5.2068,-5.2435,-5.2858,-5.3206,-5.3206,-5.3206,-5.3298,-5.3647,-5.4875,-5.6103,-5.6455,-5.7284,-5.7997,-5.7997,-5.7997,-5.7997,-5.7997,-5.7997,-5.7997,-5.7997,-5.7997,-5.7997,-5.7997,-5.7997,-5.7997,-5.7997,-5.8257,-5.8673,-5.9319,-5.9644,-6.0084,-6.0757,-6.08,-6.08,-6.08,-6.08,-6.08,-6.08,-6.08,-6.08,-6.08,-6.08,-6.0589,-6.0242,-6.0608,-6.0416,0.0,0.0,0.0,0.0,0.0,0.0,0.0,0.0,0.0,0.0,0.0,0.0,0.0,0.0,0.0,0.0,0.0,0.0,0.0,0.0,0.0,0.0,0.0,0.0,0.0,0.0,0.0,0.0,0.0,-4.5608,-4.5608,-4.5406,-4.5021,-4.4415,-4.4397,-4.4103,-4.3497,-4.3497,-4.3497,-4.3497,-4.3497,-4.3809,-4.4433,-4.5443,-4.6232,-4.6856,-4.7865,-4.8783,-4.9591,-4.9591,-4.9591,-4.9591,-4.9591,-4.9187,-4.8636,-4.8636,-4.8636,-4.8636,-4.8636,-4.8489,-4.8306,-4.8306,-4.871,-4.9242,-4.9499,-5.0417,-5.1463,-5.1867,-5.2435,-5.2949,-5.317,-5.3206,-5.3206,-5.3206,-5.47,-5.6307,-5.6968,-5.7672,-5.8168,-5.8168,-5.807,-5.7997,-5.7997,-5.7997,-5.7997,-5.7997,-5.7997,-5.7997,-5.7997,-5.7997,-5.7997,-5.7997,-5.8418,-5.8913,-5.9354,-5.9823,-6.0311,-6.0757,-6.08,-6.08,-6.08,-6.08,-6.08,-6.08,-6.08,-6.08,-6.08,-6.08,-6.08,-6.08,-6.08,-6.08,0.0,0.0,0.0,0.0,0.0,0.0,0.0,0.0,0.0,0.0,0.0,0.0,0.0,0.0,0.0,0.0,0.0,0.0,0.0,0.0,0.0,0.0,0.0,0.0,0.0,0.0,0.0,0.0,0.0,-4.4764,-4.4764,-4.403,-4.3608,-4.3552,-4.3552,-4.3534,-4.3497,-4.3497,-4.3497,-4.3497,-4.3497,-4.3516,-4.3608,-4.5186,-4.592,-4.6049,-4.7627,-4.8783,-4.9591,-4.9591,-4.9591,-4.9591,-4.9591,-4.9554,-4.9517,-4.9517,-4.9517,-4.9517,-4.9517,-4.8985,-4.8306,-4.8306,-4.8343,-4.8526,-4.9334,-4.9646,-5.0031,-5.1555,-5.2013,-5.2234,-5.3004,-5.3206,-5.3206,-5.3206,-5.4461,-5.6288,-5.8725,-5.8953,-5.8654,-5.8654,-5.8307,-5.7997,-5.7997,-5.7997,-5.7997,-5.7997,-5.7997,-5.7997,-5.7997,-5.7997,-5.7997,-5.7997,-5.8418,-5.8913,-5.9354,-5.9823,-6.0311,-6.0757,-6.08,-6.08,-6.08,-6.08,-6.08,-6.08,-6.08,-6.08,-6.08,-6.08,-6.08,-6.08,-6.08,-6.08,0.0,0.0,0.0,0.0,0.0,0.0,0.0,0.0,0.0,0.0,0.0,0.0,0.0,0.0,0.0,0.0,0.0,0.0,0.0,0.0,0.0,0.0,0.0,0.0,0.0,0.0,0.0,0.0,0.0,0.0,-4.392,-4.3644,-4.3497,-4.3497,-4.3497,-4.3497,-4.3497,-4.3497,-4.3497,-4.3497,-4.3497,-4.3754,-4.4287,-4.4874,-4.5406,-4.5957,-4.7076,-4.8012,-4.8765,-4.8765,-4.8765,-4.8765,-4.8765,-4.8765,-4.882,-4.937,-4.9591,-4.9646,-5.0178,-4.9829,-4.9132,-4.9132,-4.8765,-4.8361,-4.8673,-4.915,-4.9811,-5.0912,-5.1591,-5.2179,-5.3004,-5.3206,-5.3529,-5.4859,-5.6069,-5.7437,-5.9412,-5.9248,-5.8694,-5.8694,-5.8307,-5.7997,-5.7997,-5.7997,-5.7997,-5.7997,-5.7997,-5.7997,-5.7997,-5.7997,-5.7997,-5.7997,-5.8694,-5.9231,-5.9408,-6.0103,-6.0622,-6.08,-6.08,-6.08,-6.08,-6.08,-6.08,-6.08,-6.08,-6.08,-6.08,-6.08,-6.08,-6.08,-6.08,-6.08,0.0,0.0,0.0,0.0,0.0,0.0,0.0,0.0,0.0,0.0,0.0,0.0,0.0,0.0,0.0,0.0,0.0,0.0,0.0,0.0,0.0,0.0,0.0,0.0,0.0,0.0,0.0,0.0,0.0,0.0,-4.3497,-4.3497,-4.3497,-4.3497,-4.3497,-4.3497,-4.3497,-4.3497,-4.3497,-4.3497,-4.3497,-4.3773,-4.4305,-4.458,-4.5002,-4.5571,-4.6654,-4.7407,-4.7921,-4.8196,-4.8306,-4.8306,-4.8306,-4.8489,-4.8838,-4.9682,-4.9994,-5.0105,-5.0912,-5.0674,-4.9958,-4.9682,-4.9205,-4.8673,-4.8398,-4.8691,-4.9389,-5.049,-5.1187,-5.1871,-5.3083,-5.3524,-5.407,-5.5843,-5.6817,-5.7832,-5.9494,-5.9373,-5.8933,-5.8933,-5.8418,-5.7997,-5.7997,-5.7997,-5.7997,-5.7997,-5.7997,-5.7997,-5.7997,-5.8142,-5.8238,-5.8238,-5.9084,-5.9644,-5.9644,-6.0338,-6.08,-6.08,-6.08,-6.08,-6.08,-6.08,-6.08,-6.08,-6.08,-6.08,-6.08,-6.08,-6.08,-6.08,-6.08,-6.0734,0.0,0.0,0.0,0.0,0.0,0.0,0.0,0.0,0.0,0.0,0.0,0.0,0.0,0.0,0.0,0.0,0.0,0.0,0.0,0.0,0.0,0.0,0.0,0.0,0.0,0.0,0.0,0.0,0.0,-4.3497,-4.3497,-4.3497,-4.3497,-4.3497,-4.3497,-4.3497,-4.3497,-4.3497,-4.3497,-4.3497,-4.3497,-4.3497,-4.3516,-4.4305,-4.4672,-4.4764,-4.6361,-4.702,-4.715,-4.7976,-4.8306,-4.8306,-4.8306,-4.882,-4.9646,-5.049,-5.0802,-5.093,-5.1738,-5.1499,-5.071,-4.9884,-4.9609,-4.9426,-4.8563,-4.8324,-4.8691,-5.0343,-5.082,-5.129,-5.3274,-5.4171,-5.4839,-5.5939,-5.6609,-5.7389,-5.905,-5.9389,-5.9389,-5.9389,-5.8632,-5.7997,-5.7997,-5.7997,-5.7997,-5.7997,-5.7997,-5.7997,-5.7997,-5.8418,-5.8694,-5.8694,-5.9545,-6.0103,-6.0103,-6.0527,-6.08,-6.08,-6.08,-6.08,-6.08,-6.08,-6.08,-6.08,-6.08,-6.08,-6.08,-6.08,-6.08,-6.08,-6.08,-6.0508,-2.3896,0.0,0.0,0.0,0.0,0.0,0.0,0.0,0.0,0.0,0.0,0.0,0.0,0.0,0.0,0.0,0.0,0.0,0.0,0.0,0.0,0.0,0.0,0.0,0.0,0.0,0.0,0.0,-4.3497,-4.3497,-4.3497,-4.3497,-4.3497,-4.3497,-4.3497,-4.3497,-4.3497,-4.3497,-4.3497,-4.3497,-4.3497,-4.3497,-4.3497,-4.3718,-4.3828,-4.3883,-4.4929,-4.57,-4.6342,-4.7737,-4.8306,-4.8306,-4.8306,-4.8453,-4.882,-5.027,-5.0802,-5.1004,-5.2399,-5.2344,-5.1536,-5.0729,-5.0068,-4.9426,-4.8563,-4.8746,-4.9444,-5.0508,-5.1224,-5.1989,-5.3423,-5.4853,-5.5936,-5.6145,-5.7269,-5.8463,-5.9231,-5.9121,-5.8971,-5.9319,-5.8632,-5.7997,-5.7997,-5.7997,-5.7997,-5.7997,-5.7997,-5.7997,-5.7997,-5.8418,-5.8694,-5.8694,-5.9545,-6.0103,-6.0103,-6.0527,-6.08,-6.08,-6.08,-6.08,-6.08,-6.08,-6.08,-6.08,-6.08,-6.08,-6.08,-6.08,-6.08,-6.08,-6.0437,-5.9855,0.0,0.0,0.0,0.0,0.0,0.0,0.0,-2.319,0.0,0.0,0.0,0.0,0.0,0.0,0.0,0.0,0.0,0.0,0.0,0.0,0.0,0.0,0.0,0.0,0.0,0.0,0.0,-4.3105,-4.3375,-4.3497,-4.3497,-4.3497,-4.3497,-4.3497,-4.3497,-4.3497,-4.3497,-4.3497,-4.3497,-4.3497,-4.3497,-4.3497,-4.3497,-4.3497,-4.3497,-4.3534,-4.436,-4.4984,-4.5516,-4.715,-4.8012,-4.8306,-4.8306,-4.8526,-4.9003,-5.0325,-5.1004,-5.1481,-5.2766,-5.2674,-5.1867,-5.1059,-5.0251,-4.9499,-4.8985,-4.9187,-4.9829,-5.0967,-5.2133,-5.3219,-5.3901,-5.5102,-5.6122,-5.6234,-5.7308,-5.8453,-5.9039,-5.8895,-5.8835,-5.9284,-5.8632,-5.7997,-5.7997,-5.7997,-5.7997,-5.7997,-5.7997,-5.807,-5.8282,-5.8694,-5.9084,-5.9248,-5.9946,-6.0384,-6.0384,-6.0647,-6.08,-6.08,-6.08,-6.08,-6.08,-6.08,-6.08,-6.08,-6.08,-6.069,-6.0508,-6.069,-6.069,-6.0482,-5.9823,-5.9212,0.0,0.0,0.0,0.0,0.0,0.0,-2.2699,-2.3105,-2.3799,0.0,0.0,0.0,0.0,0.0,0.0,0.0,0.0,0.0,0.0,0.0,0.0,0.0,0.0,0.0,0.0,-4.0863,-4.2028,-4.2533,-4.3159,-4.3497,-4.3497,-4.3497,-4.3497,-4.3497,-4.3497,-4.3497,-4.3497,-4.3497,-4.3497,-4.3497,-4.3497,-4.3497,-4.3497,-4.3497,-4.3497,-4.3534,-4.4268,-4.4635,-4.4837,-4.6361,-4.7462,-4.8196,-4.8269,-4.8765,-4.9554,-5.0472,-5.1242,-5.1977,-5.2894,-5.2674,-5.1867,-5.1059,-5.0251,-4.9554,-4.9462,-4.9572,-5.0089,-5.1728,-5.331,-5.4503,-5.4566,-5.5191,-5.5926,-5.6229,-5.6967,-5.7806,-5.8492,-5.8603,-5.8686,-5.9152,-5.8557,-5.7997,-5.7997,-5.7997,-5.7997,-5.7997,-5.7997,-5.8168,-5.8632,-5.9121,-5.9578,-6.0055,-6.0508,-6.08,-6.08,-6.08,-6.08,-6.08,-6.08,-6.08,-6.08,-6.08,-6.08,-6.08,-6.08,-6.0578,-6.0103,-6.0508,-6.0437,-5.9916,-5.9084,-5.8654,0.0,0.0,0.0,0.0,0.0,0.0,-2.4086,-2.4644,-2.5033,0.0,0.0,0.0,0.0,0.0,0.0,0.0,0.0,0.0,0.0,0.0,0.0,0.0,0.0,0.0,0.0,-3.8167,-3.9657,-4.1595,-4.2831,-4.3497,-4.3497,-4.3497,-4.3497,-4.3497,-4.3497,-4.3497,-4.3497,-4.3497,-4.3497,-4.3497,-4.3497,-4.3497,-4.3497,-4.3497,-4.3497,-4.3497,-4.3663,-4.4103,-4.4782,-4.5736,-4.6617,-4.7407,-4.8067,-4.8398,-4.8746,-5.0251,-5.0894,-5.1242,-5.2711,-5.2674,-5.1867,-5.1059,-5.0251,-4.9462,-4.8765,-4.9499,-5.0956,-5.29,-5.3971,-5.4579,-5.4895,-5.5848,-5.6675,-5.6362,-5.6967,-5.7634,-5.7806,-5.7755,-5.7788,-5.8267,-5.8167,-5.7997,-5.7997,-5.7997,-5.7997,-5.7997,-5.7997,-5.8168,-5.8632,-5.9121,-5.9578,-6.0055,-6.0508,-6.08,-6.08,-6.08,-6.08,-6.08,-6.08,-6.08,-6.08,-6.08,-6.08,-6.08,-6.08,-6.0578,-6.0103,-6.0189,-5.9804,-5.8971,-5.8814,-5.8484,0.0,0.0,0.0,-2.5198,0.0,0.0,0.0,-2.478,-2.5152,0.0,0.0,0.0,0.0,0.0,0.0,0.0,0.0,0.0,0.0,0.0,0.0,0.0,0.0,0.0,0.0,-3.631,-3.8334,-4.052,-4.1708,-4.2488,-4.2873,-4.2892,-4.3075,-4.3479,-4.3497,-4.3497,-4.3497,-4.3497,-4.3497,-4.3497,-4.3497,-4.3497,-4.3497,-4.3497,-4.3497,-4.3497,-4.3497,-4.3718,-4.4158,-4.4966,-4.5792,-4.6636,-4.7829,-4.8563,-4.904,-4.9884,-5.0453,-5.093,-5.172,-5.1481,-5.0729,-5.0325,-4.9627,-4.8948,-4.8948,-5.0086,-5.1658,-5.2847,-5.3834,-5.4579,-5.5007,-5.5725,-5.6275,-5.6055,-5.6682,-5.7315,-5.7315,-5.7707,-5.811,-5.8091,-5.8217,-5.8282,-5.8024,-5.7997,-5.7997,-5.7997,-5.7997,-5.8168,-5.8632,-5.9121,-5.9578,-6.0055,-6.0508,-6.08,-6.08,-6.08,-6.08,-6.08,-6.08,-6.08,-6.08,-6.08,-6.08,-6.08,-6.0578,-6.0236,-5.9741,-5.9511,-5.9158,-5.8694,-5.8442,-5.8238,0.0,0.0,0.0,0.0,0.0,-2.5659,0.0,0.0,0.0,0.0,0.0,0.0,0.0,0.0,0.0,0.0,0.0,0.0,0.0,0.0,0.0,0.0,0.0,0.0,0.0,-3.4818,-3.7283,-3.9282,-4.0341,-4.1148,-4.1809,-4.2139,-4.2598,-4.324,-4.3406,-4.3497,-4.3497,-4.3497,-4.3497,-4.3497,-4.3497,-4.3497,-4.3497,-4.3497,-4.3497,-4.3497,-4.3497,-4.3497,-4.3552,-4.4378,-4.5168,-4.603,-4.7498,-4.86,-4.9352,-4.9517,-4.9994,-5.0582,-5.0747,-5.027,-4.9591,-4.9591,-4.9003,-4.8471,-4.9334,-5.0662,-5.2001,-5.2565,-5.363,-5.472,-5.5107,-5.5466,-5.5703,-5.5703,-5.6242,-5.6742,-5.6742,-5.7577,-5.8223,-5.7914,-5.8166,-5.8364,-5.8033,-5.7997,-5.7997,-5.7997,-5.7997,-5.8168,-5.8632,-5.9121,-5.9578,-6.0055,-6.0508,-6.08,-6.08,-6.08,-6.08,-6.08,-6.08,-6.08,-6.08,-6.08,-6.0757,-6.0666,-6.0291,-5.9804,-5.9248,-5.8874,-5.8654,-5.8568,-5.8168,-5.7997,0.0,0.0,0.0,0.0,-2.6573,0.0,0.0,0.0,0.0,0.0,0.0,0.0,0.0,0.0,0.0,0.0,0.0,0.0,0.0,0.0,0.0,0.0,0.0,0.0,0.0,0.0,-3.5834,-3.7649,-3.9166,-4.0065,-4.0157,-4.1534,-4.2341,-4.2433,-4.313,-4.3497,-4.3497,-4.3497,-4.3497,-4.3497,-4.3497,-4.3497,-4.3497,-4.3497,-4.3497,-4.3497,-4.3497,-4.3497,-4.3552,-4.4378,-4.5168,-4.5993,-4.6893,-4.7737,-4.8545,-4.9315,-4.9646,-4.9829,-5.0545,-5.027,-4.9591,-4.9591,-4.9003,-4.8471,-4.9334,-5.0471,-5.1689,-5.2817,-5.4048,-5.5115,-5.5512,-5.5662,-5.5703,-5.5703,-5.578,-5.5838,-5.5838,-5.6236,-5.6683,-5.6989,-5.7323,-5.7654,-5.7941,-5.7997,-5.7997,-5.7997,-5.7997,-5.8168,-5.8632,-5.9121,-5.9578,-6.0055,-6.0508,-6.08,-6.08,-6.08,-6.08,-6.08,-6.08,-6.08,-6.08,-6.08,-6.0603,-6.0189,-6.0132,-5.9677,-5.8775,-5.8735,-5.8484,-5.807,-5.8024,-5.7997,0.0,0.0,0.0,0.0,0.0,0.0,-2.6385,0.0,-2.633,0.0,0.0,0.0,0.0,0.0,0.0,0.0,0.0,0.0,0.0,0.0,0.0,0.0,0.0,0.0,0.0,0.0,0.0,0.0,0.0,-3.7477,-3.845,-4.0029,-4.1332,-4.2268,-4.3075,-4.3497,-4.3497,-4.3497,-4.3497,-4.3497,-4.3497,-4.3497,-4.3497,-4.3497,-4.3497,-4.3497,-4.3497,-4.3497,-4.3516,-4.3864,-4.4745,-4.592,-4.6269,-4.7186,-4.8343,-4.871,-4.8838,-4.8893,-4.9242,-4.9132,-4.8838,-4.8838,-4.86,-4.8379,-4.8728,-4.9677,-5.0919,-5.2159,-5.3386,-5.4556,-5.5465,-5.5703,-5.5703,-5.5703,-5.5703,-5.5703,-5.5703,-5.6629,-5.743,-5.7327,-5.8211,-5.8834,-5.8471,-5.8168,-5.7997,-5.7997,-5.8238,-5.8503,-5.8654,-5.9373,-5.9885,-6.0084,-6.0508,-6.08,-6.08,-6.08,-6.08,-6.08,-6.08,-6.08,-6.08,-6.0553,-6.0311,-6.0084,-5.9578,-5.9084,-5.8694,-5.89,-5.8629,-5.7997,-5.7997,-5.7997,-2.806,0.0,0.0,0.0,0.0,0.0,0.0,0.0,0.0,0.0,0.0,0.0,0.0,0.0,0.0,0.0,0.0,0.0,0.0,0.0,0.0,0.0,0.0,0.0,0.0,0.0,0.0,-3.2195,-3.377,-3.5202,-3.6413,-3.8652,-4.0432,-4.1607,-4.2837,-4.3497,-4.3497,-4.3497,-4.3497,-4.3497,-4.3497,-4.3497,-4.3497,-4.3497,-4.3548,-4.3612,-4.3548,-4.3529,-4.3612,-4.3548,-4.4452,-4.5902,-4.5902,-4.6874,-4.8306,-4.8306,-4.8306,-4.8306,-4.8306,-4.8306,-4.8306,-4.8306,-4.8306,-4.8306,-4.8306,-4.9231,-5.0511,-5.1681,-5.2957,-5.4279,-5.541,-5.5703,-5.5703,-5.5703,-5.5703,-5.5703,-5.5703,-5.6876,-5.7881,-5.7641,-5.8768,-5.9507,-5.8837,-5.8418,-5.8213,-5.8213,-5.8484,-5.8735,-5.8874,-5.9611,-6.0103,-6.0103,-6.0508,-6.08,-6.08,-6.1012,-6.1243,-6.1473,-6.1171,-6.0968,-6.0968,-6.0275,-5.9855,-5.9709,-5.9047,-5.8632,-5.8526,-5.8952,-5.8804,-5.7997,-5.8235,-5.8217,0.0,0.0,0.0,-2.838,0.0,0.0,0.0,0.0,-2.7553,0.0,0.0,0.0,0.0,0.0,0.0,-2.6691,0.0,0.0,0.0,0.0,0.0,0.0,0.0,0.0,0.0,0.0,0.0,-3.1341,-3.2926,-3.3862,-3.3917,-3.7716,-3.9918,-3.9974,-4.2268,-4.3497,-4.3497,-4.3497,-4.3497,-4.3497,-4.3497,-4.3497,-4.3497,-4.3497,-4.3679,-4.3955,-4.3646,-4.366,-4.3955,-4.3612,-4.4452,-4.5902,-4.5902,-4.6874,-4.8306,-4.8306,-4.8306,-4.8306,-4.8306,-4.8306,-4.8306,-4.8306,-4.8306,-4.8306,-4.8306,-4.9458,-5.0967,-5.179,-5.32,-5.4684,-5.5491,-5.5703,-5.5703,-5.5703,-5.5703,-5.5703,-5.5703,-5.6395,-5.7152,-5.7527,-5.8263,-5.8805,-5.8743,-5.8694,-5.8654,-5.8654,-5.8694,-5.8874,-5.9319,-5.9804,-6.0103,-6.0103,-6.0508,-6.08,-6.08,-6.157,-6.2377,-6.3166,-6.2049,-6.1372,-6.1372,-6.0113,-5.9231,-5.8775,-5.8735,-5.8503,-5.8042,-5.8822,-5.8804,-5.8015,-5.8804,-5.8749,0.0,0.0,-2.8714,-2.9132,0.0,0.0,0.0,0.0,0.0,0.0,0.0,0.0,0.0,0.0,-2.75,-2.75,-2.7589,0.0,0.0,0.0,0.0,0.0,0.0,0.0,0.0,0.0,0.0,-2.9764,-3.1292,-3.243,0.0,-3.6376,-3.8781,-3.9863,-4.1717,-4.2947,-4.3479,-4.3497,-4.3497,-4.3497,-4.3497,-4.3497,-4.3497,-4.3497,-4.366,-4.3986,-4.3646,-4.3693,-4.3986,-4.3646,-4.4121,-4.5168,-4.5681,-4.6562,-4.759,-4.8104,-4.8306,-4.8306,-4.8306,-4.8306,-4.8306,-4.8306,-4.8306,-4.8326,-4.864,-4.9281,-5.0279,-5.1923,-5.2992,-5.3953,-5.5338,-5.5703,-5.5703,-5.5703,-5.5703,-5.5703,-5.5703,-5.6838,-5.7912,-5.8045,-5.8934,-5.9543,-5.921,-5.8913,-5.8694,-5.8694,-5.8971,-5.9319,-5.9804,-6.0264,-6.0553,-6.0553,-6.069,-6.1031,-6.1608,-6.2138,-6.2548,-6.2816,-6.2097,-6.1429,-6.088,-6.0135,-5.9395,-5.8713,-5.8375,-5.8186,-5.7997,-5.8822,-5.8804,-5.8015,-5.8841,-5.8786,-2.9342,-2.9237,0.0,-2.95,-2.8838,0.0,-2.8167,0.0,0.0,0.0,0.0,0.0,0.0,0.0,0.0,-2.795,-2.7992,-2.7897,0.0,-2.7371,0.0,0.0,0.0,0.0,0.0,0.0,-2.8597,-2.8572,-3.032,-3.1623,0.0,0.0,-3.8102,-3.9423,-4.1313,-4.269,-4.3479,-4.3497,-4.3497,-4.3497,-4.3497,-4.3563,-4.3679,-4.3679,-4.3849,-4.4204,-4.3974,-4.3943,-4.3967,-4.3791,-4.4076,-4.4782,-4.5748,-4.6594,-4.737,-4.807,-4.8306,-4.8306,-4.8306,-4.8306,-4.8306,-4.8306,-4.8306,-4.8364,-4.8779,-4.9171,-4.993,-5.2018,-5.2889,-5.3587,-5.5261,-5.5703,-5.578,-5.6088,-5.6145,-5.6242,-5.6549,-5.7723,-5.8677,-5.85,-5.9374,-5.9885,-5.9248,-5.8913,-5.8694,-5.8694,-5.8951,-5.9389,-6.0025,-6.0365,-6.0737,-6.1223,-6.1262,-6.1637,-6.2605,-6.2754,-6.2767,-6.2767,-6.2049,-6.1224,-6.0436,-5.9644,-5.9406,-5.974,-5.8565,-5.8419,-5.9281,-5.9245,-5.8804,-5.8015,-5.8841,-5.8786]}]]